[[{"header":{"parameterUnit":"m.s-1","parameterCategory":1,"la1":31.0,"la2":29.5877,"lo1":-88.7671,"lo2":-86.6584,"dy":0.0162,"dx":0.0185,"nx":115,"ny":88,"refTime":"2026-04-30T00:00:00:Z","depth":0,"parameterNumber":2,"parameterNumberName":"U-component_of_WINDS"},"data":[0.0,0.0,0.0,0.0,0.0,0.0,0.0,0.0,0.0,0.0,0.0,0.0,0.0,0.0,0.0,0.0,0.0,0.0,0.0,0.0,0.0,0.0,0.0,0.0,0.0,0.0,0.0,0.0,0.0,0.0,0.0,0.0,0.0,0.0,0.0,0.0,0.0,0.0,0.0,0.0,0.0,0.0,0.0,0.0,0.0,0.0,0.0,0.0,0.0,0.0,0.0,0.0,0.0,0.0,0.0,0.0,0.0,0.0,0.0,0.0,0.0,0.0,0.0,0.0,0.0,0.0,0.0,0.0,0.0,0.0,0.0,0.0,0.0,0.0,0.0,0.0,0.0,0.0,0.0,0.0,0.0,0.0,0.0,0.0,0.0,0.0,0.0,0.0,0.0,0.0,0.0,0.0,0.0,0.0,0.0,0.0,0.0,0.0,0.0,0.0,0.0,0.0,0.0,0.0,0.0,0.0,0.0,0.0,0.0,0.0,0.0,0.0,0.0,0.0,0.0,0.0,0.0,0.0,0.0,0.0,0.0,0.0,0.0,0.0,0.0,0.0,0.0,0.0,0.0,0.0,0.0,0.0,0.0,0.0,0.0,0.0,0.0,0.0,0.0,0.0,0.0,0.0,0.0,0.0,0.0,0.0,0.0,0.0,0.0,0.0,0.0,0.0,0.0,0.0,0.0,0.0,0.0,0.0,0.0,0.0,0.0,0.0,0.0,0.0,0.0,0.0,0.0,0.0,0.0,0.0,0.0,0.0,0.0,0.0,0.0,0.0,0.0,0.0,0.0,0.0,0.0,0.0,0.0,0.0,0.0,0.0,0.0,0.0,0.0,0.0,0.0,0.0,0.0,0.0,0.0,0.0,0.0,0.0,0.0,0.0,0.0,0.0,0.0,0.0,0.0,0.0,0.0,0.0,0.0,0.0,0.0,0.0,0.0,0.0,0.0,0.0,0.0,0.0,0.0,0.0,0.0,0.0,0.0,0.0,0.0,0.0,0.0,0.0,0.0,0.0,0.0,0.0,0.0,0.0,0.0,0.0,0.0,0.0,0.0,0.0,0.0,0.0,0.0,0.0,0.0,0.0,0.0,0.0,0.0,0.0,0.0,0.0,0.0,0.0,0.0,0.0,0.0,0.0,0.0,0.0,0.0,0.0,0.0,0.0,0.0,0.0,0.0,0.0,0.0,0.0,0.0,0.0,0.0,0.0,0.0,0.0,0.0,0.0,0.0,0.0,0.0,0.0,0.0,0.0,0.0,0.0,0.0,0.0,0.0,0.0,0.0,0.0,0.0,0.0,0.0,0.0,0.0,0.0,0.0,0.0,0.0,0.0,0.0,0.0,0.0,0.0,0.0,0.0,0.0,0.0,0.0,0.0,0.0,0.0,0.0,0.0,0.0,0.0,0.0,0.0,0.0,0.0,0.0,0.0,0.0,0.0,0.0,0.0,0.0,0.0,0.0,0.0,0.0,0.0,0.0,0.0,0.0,0.0,0.0,0.0,0.0,0.0,0.0,0.0,0.0,0.0,0.0,0.0,0.0,0.0,0.0,0.0,0.0,0.0,0.0,0.0,0.0,0.0,0.0,0.0,0.0,0.0,0.0,0.0,0.0,0.0,0.0,0.0,0.0,0.0,0.0,0.0,0.0,0.0,0.0,0.0,0.0,0.0,0.0,0.0,0.0,0.0,0.0,0.0,0.0,0.0,0.0,0.0,0.0,0.0,0.0,0.0,0.0,0.0,0.0,0.0,0.0,0.0,0.0,0.0,0.0,0.0,0.0,0.0,0.0,0.0,0.0,0.0,0.0,0.0,0.0,0.0,0.0,0.0,0.0,0.0,0.0,0.0,0.0,0.0,0.0,0.0,0.0,0.0,0.0,0.0,0.0,0.0,0.0,0.0,0.0,0.0,0.0,0.0,0.0,0.0,0.0,0.0,0.0,0.0,0.0,0.0,0.0,0.0,0.0,0.0,0.0,0.0,0.0,0.0,0.0,0.0,0.0,0.0,0.0,0.0,0.0,0.0,0.0,0.0,0.0,0.0,0.0,0.0,0.0,0.0,0.0,0.0,0.0,0.0,0.0,0.0,0.0,0.0,0.0,0.0,0.0,0.0,0.0,0.0,0.0,0.0,0.0,0.0,0.0,0.0,0.0,0.0,0.0,0.0,0.0,0.0,0.0,0.0,0.0,0.0,0.0,0.0,0.0,0.0,0.0,0.0,0.0,0.0,0.0,0.0,0.0,0.0,0.0,0.0,0.0,0.0,0.0,0.0,0.0,0.0,0.0,0.0,0.0,0.0,0.0,0.0,0.0,0.0,0.0,0.0,0.0,0.0,0.0,0.0,0.0,0.0,0.0,0.0,0.0,0.0,0.0,0.0,0.0,0.0,0.0,0.0,0.0,0.0,0.0,0.0,0.0,0.0,0.0,0.0,0.0,0.0,0.0,0.0,0.0,0.0,0.0,0.0,0.0,0.0,0.0,0.0,0.0,0.0,0.0,0.0,0.0,0.0,0.0,0.0,0.0,0.0,0.0,0.0,0.0,0.0,0.0,0.0,0.0,0.0,0.0,0.0,0.0,0.0,0.0,0.0,0.0,0.0,0.0,0.0,0.0,0.0,0.0,0.0,0.0,0.0,0.0,0.0,0.0,0.0,0.0,0.0,0.0,0.0,0.0,0.0,0.0,0.0,0.0,0.0,0.0,0.0,0.0,0.0,0.0,0.0,0.0,0.0,0.0,0.0,0.0,0.0,0.0,0.0,0.0,0.0,0.0,0.0,0.0,0.0,0.0,0.0,0.0,0.0,0.0,0.0,0.0,0.0,0.0,0.0,0.0,0.0,0.0,0.0,0.0,0.0,0.0,0.0,0.0,0.0,0.0,0.0,0.0,0.0,0.0,0.0,0.0,0.0,0.0,0.0,0.0,0.0,0.0,0.0,0.0,0.0,0.0,0.0,0.0,0.0,0.0,0.0,0.0,0.0,0.0,0.0,0.0,0.0,0.0,0.0,0.0,0.0,0.0,0.0,0.0,0.0,0.0,0.0,0.0,0.0,0.0,0.0,0.0,0.0,0.0,0.0,0.0,0.0,0.0,0.0,0.0,0.0,0.0,0.0,0.0,0.0,0.0,0.0,0.0,0.0,0.0,0.0,0.0,0.0,0.0,0.0,0.0,0.0,0.0,0.0,0.0,0.0,0.0,0.0,0.0,0.0,0.0,0.0,0.0,0.0,0.0,0.0,0.0,0.0,0.0,0.0,0.0,0.0,0.0,0.0,0.0,0.0,0.0,0.0,0.0,0.0,0.0,0.0,0.0,0.0,0.0,0.0,0.0,0.0,0.0,0.0,0.0,0.0,0.0,0.0,0.0,0.0,0.0,0.0,0.0,0.0,0.0,0.0,0.0,0.0,0.0,0.0,0.0,0.0,0.0,0.0,0.0,0.0,0.0,0.0,0.0,0.0,0.0,0.0,0.0,0.0,0.0,0.0,0.0,0.0,0.0,0.0,0.0,0.0,0.0,0.0,0.0,0.0,0.0,0.0,0.0,0.0,0.0,0.0,0.0,0.0,0.0,0.0,0.0,0.0,0.0,0.0,0.0,0.0,0.0,0.0,0.0,0.0,0.0,0.0,0.0,0.0,0.0,0.0,0.0,0.0,0.0,0.0,0.0,0.0,0.0,0.0,0.0,0.0,0.0,0.0,0.0,0.0,0.0,0.0,0.0,0.0,0.0,0.0,0.0,0.0,0.0,0.0,0.0,0.0,0.0,0.0,0.0,0.0,0.0,0.0,0.0,0.0,0.0,0.0,0.0,0.0,0.0,0.0,0.0,0.0,0.0,0.0,0.0,0.0,0.0,0.0,0.0,0.0,0.0,0.0,0.0,0.0,0.0,0.0,0.0,0.0,0.0,0.0,0.0,0.0,0.0,0.0,0.0,0.0,0.0,0.0,0.0,0.0,0.0,0.0,0.0,0.0,0.0,0.0,0.0,0.0,0.0,0.0,0.0,0.0,0.0,0.0,0.0,0.0,0.0,0.0,0.0,0.0,0.0,0.0,0.0,0.0,0.0,0.0,0.0,0.0,0.0,0.0,0.0,0.0,0.0,0.0,0.0,0.0,0.0,0.0,0.0,0.0,0.0,0.0,0.0,0.0,0.0,0.0,0.0,0.0,0.0,0.0,0.0,0.0,0.0,0.0,0.0,0.0,0.0,0.0,0.0,0.0,0.0,0.0,0.0,0.0,0.0,0.0,0.0,0.0,0.0,0.0,0.0,0.0,5.6719,0.0,0.0,0.0,0.0,0.0,0.0,0.0,0.0,0.0,0.0,0.0,0.0,0.0,0.0,0.0,0.0,0.0,0.0,0.0,0.0,0.0,0.0,0.0,0.0,0.0,0.0,0.0,0.0,0.0,0.0,0.0,0.0,0.0,0.0,0.0,0.0,0.0,0.0,0.0,0.0,0.0,0.0,0.0,0.0,0.0,0.0,0.0,0.0,0.0,0.0,0.0,0.0,0.0,0.0,0.0,0.0,0.0,0.0,0.0,0.0,0.0,0.0,0.0,0.0,0.0,0.0,0.0,0.0,0.0,0.0,0.0,0.0,0.0,0.0,0.0,0.0,0.0,0.0,0.0,0.0,0.0,0.0,0.0,0.0,0.0,0.0,0.0,0.0,0.0,0.0,0.0,0.0,0.0,0.0,0.0,0.0,0.0,0.0,0.0,0.0,0.0,0.0,0.0,0.0,0.0,0.0,0.0,0.0,0.0,0.0,6.1992,6.1133,6.1094,6.0117,5.8086,0.0,0.0,0.0,0.0,0.0,0.0,0.0,0.0,0.0,0.0,0.0,0.0,0.0,0.0,0.0,0.0,0.0,0.0,0.0,0.0,0.0,0.0,0.0,0.0,0.0,0.0,0.0,0.0,0.0,0.0,0.0,0.0,0.0,0.0,0.0,0.0,0.0,0.0,0.0,0.0,0.0,0.0,0.0,0.0,0.0,0.0,0.0,0.0,0.0,0.0,0.0,0.0,0.0,0.0,0.0,0.0,0.0,0.0,0.0,0.0,0.0,0.0,0.0,0.0,0.0,0.0,0.0,0.0,0.0,0.0,0.0,0.0,0.0,0.0,0.0,0.0,0.0,0.0,0.0,0.0,0.0,0.0,0.0,0.0,0.0,0.0,0.0,0.0,0.0,0.0,0.0,0.0,0.0,0.0,0.0,0.0,0.0,0.0,0.0,0.0,0.0,0.0,0.0,0.0,0.0,0.0,0.0,0.0,0.0,0.0,0.0,0.0,6.2305,6.1406,5.9492,0.0,0.0,0.0,0.0,0.0,0.0,0.0,0.0,0.0,0.0,0.0,0.0,0.0,0.0,0.0,0.0,0.0,0.0,0.0,0.0,0.0,0.0,0.0,0.0,0.0,0.0,0.0,0.0,0.0,0.0,0.0,0.0,0.0,0.0,0.0,0.0,0.0,0.0,0.0,0.0,0.0,0.0,0.0,0.0,0.0,0.0,0.0,0.0,0.0,0.0,0.0,0.0,0.0,0.0,0.0,0.0,0.0,0.0,0.0,0.0,0.0,0.0,0.0,0.0,0.0,0.0,0.0,0.0,0.0,0.0,0.0,0.0,0.0,0.0,0.0,0.0,0.0,0.0,0.0,0.0,0.0,0.0,0.0,0.0,0.0,0.0,0.0,0.0,0.0,0.0,0.0,0.0,0.0,0.0,0.0,0.0,0.0,0.0,0.0,0.0,0.0,0.0,0.0,0.0,0.0,0.0,0.0,0.0,0.0,0.0,6.2539,6.3984,6.4023,0.0,6.039,0.0,0.0,0.0,0.0,0.0,0.0,0.0,0.0,0.0,0.0,0.0,0.0,0.0,0.0,0.0,0.0,0.0,0.0,0.0,0.0,0.0,0.0,0.0,0.0,0.0,0.0,0.0,0.0,0.0,0.0,0.0,0.0,0.0,0.0,0.0,0.0,0.0,0.0,0.0,0.0,0.0,0.0,0.0,0.0,0.0,0.0,0.0,0.0,0.0,0.0,0.0,0.0,0.0,0.0,0.0,0.0,0.0,0.0,0.0,0.0,0.0,0.0,0.0,0.0,0.0,0.0,0.0,0.0,0.0,0.0,0.0,0.0,0.0,0.0,0.0,0.0,0.0,0.0,0.0,0.0,0.0,0.0,0.0,0.0,0.0,0.0,0.0,0.0,0.0,0.0,0.0,0.0,0.0,0.0,0.0,0.0,0.0,0.0,0.0,0.0,0.0,0.0,0.0,0.0,0.0,0.0,0.0,0.0,0.0,0.0,6.4101,6.4297,6.332,6.1797,0.0,0.0,0.0,0.0,0.0,0.0,0.0,0.0,0.0,0.0,0.0,0.0,0.0,0.0,0.0,0.0,0.0,0.0,0.0,0.0,0.0,0.0,0.0,0.0,0.0,0.0,0.0,0.0,0.0,0.0,0.0,0.0,0.0,0.0,0.0,0.0,0.0,0.0,0.0,0.0,0.0,0.0,0.0,0.0,0.0,0.0,0.0,0.0,0.0,0.0,0.0,0.0,0.0,0.0,0.0,0.0,0.0,0.0,0.0,0.0,0.0,0.0,0.0,0.0,0.0,0.0,0.0,0.0,0.0,0.0,0.0,0.0,0.0,0.0,0.0,0.0,0.0,0.0,0.0,0.0,0.0,0.0,0.0,0.0,0.0,0.0,0.0,0.0,0.0,0.0,0.0,0.0,0.0,0.0,0.0,0.0,0.0,0.0,0.0,0.0,0.0,0.0,0.0,0.0,0.0,0.0,0.0,0.0,0.0,0.0,6.4531,6.5039,6.4648,6.3672,6.1992,5.9609,0.0,0.0,0.0,0.0,0.0,0.0,0.0,0.0,0.0,0.0,0.0,0.0,0.0,0.0,0.0,0.0,0.0,0.0,0.0,0.0,0.0,0.0,0.0,0.0,0.0,0.0,0.0,0.0,0.0,0.0,0.0,0.0,0.0,0.0,0.0,0.0,0.0,0.0,0.0,0.0,0.0,0.0,0.0,0.0,0.0,0.0,0.0,0.0,0.0,0.0,0.0,0.0,0.0,0.0,0.0,0.0,0.0,0.0,0.0,0.0,0.0,0.0,0.0,0.0,0.0,0.0,0.0,0.0,0.0,0.0,0.0,0.0,0.0,0.0,0.0,0.0,0.0,0.0,0.0,0.0,0.0,0.0,0.0,0.0,0.0,0.0,0.0,0.0,0.0,0.0,0.0,0.0,0.0,0.0,0.0,0.0,0.0,0.0,0.0,0.0,0.0,0.0,0.0,0.0,0.0,0.0,0.0,0.0,0.0,6.5117,6.4765,6.5586,6.625,6.4687,0.0,0.0,0.0,0.0,0.0,0.0,0.0,0.0,0.0,0.0,0.0,0.0,0.0,0.0,0.0,0.0,0.0,0.0,0.0,0.0,0.0,0.0,0.0,0.0,0.0,0.0,0.0,0.0,0.0,0.0,0.0,0.0,0.0,0.0,0.0,0.0,0.0,0.0,0.0,0.0,0.0,0.0,0.0,0.0,0.0,0.0,0.0,0.0,0.0,0.0,0.0,0.0,0.0,0.0,0.0,0.0,0.0,0.0,0.0,0.0,0.0,0.0,0.0,0.0,0.0,0.0,0.0,0.0,0.0,0.0,0.0,0.0,0.0,0.0,0.0,0.0,0.0,0.0,0.0,0.0,0.0,0.0,0.0,0.0,0.0,0.0,0.0,0.0,0.0,0.0,0.0,0.0,0.0,0.0,0.0,0.0,0.0,0.0,0.0,0.0,0.0,0.0,0.0,0.0,0.0,0.0,0.0,0.0,0.0,6.3476,6.4062,6.5508,6.7812,6.5156,6.2851,0.0,0.0,0.0,0.0,0.0,0.0,0.0,0.0,0.0,0.0,0.0,0.0,0.0,0.0,0.0,0.0,0.0,0.0,0.0,0.0,0.0,0.0,0.0,0.0,0.0,0.0,0.0,0.0,0.0,0.0,0.0,0.0,0.0,0.0,0.0,0.0,0.0,0.0,0.0,0.0,0.0,0.0,0.0,0.0,0.0,0.0,0.0,0.0,0.0,0.0,0.0,0.0,0.0,0.0,0.0,0.0,0.0,0.0,0.0,0.0,0.0,0.0,0.0,0.0,0.0,0.0,0.0,0.0,0.0,0.0,0.0,0.0,0.0,0.0,0.0,0.0,0.0,0.0,0.0,0.0,0.0,0.0,0.0,0.0,0.0,0.0,0.0,0.0,0.0,0.0,0.0,0.0,0.0,0.0,0.0,0.0,0.0,0.0,0.0,0.0,0.0,0.0,0.0,0.0,0.0,0.0,0.0,0.0,0.0,6.293,0.0,6.668,6.793,6.4805,6.2031,0.0,0.0,0.0,0.0,0.0,0.0,0.0,0.0,0.0,0.0,0.0,0.0,0.0,0.0,0.0,0.0,0.0,0.0,0.0,0.0,0.0,0.0,0.0,0.0,0.0,0.0,0.0,0.0,0.0,0.0,0.0,0.0,0.0,0.0,0.0,0.0,0.0,0.0,0.0,0.0,0.0,0.0,0.0,0.0,0.0,0.0,0.0,0.0,0.0,0.0,0.0,0.0,0.0,0.0,0.0,0.0,0.0,0.0,0.0,0.0,0.0,0.0,0.0,0.0,0.0,0.0,0.0,0.0,0.0,0.0,0.0,0.0,0.0,0.0,0.0,0.0,0.0,0.0,0.0,0.0,0.0,0.0,0.0,0.0,0.0,0.0,0.0,0.0,0.0,0.0,0.0,0.0,0.0,0.0,0.0,0.0,0.0,0.0,0.0,0.0,0.0,0.0,0.0,0.0,0.0,0.0,0.0,0.0,6.1328,6.539,6.793,6.8086,6.582,6.5547,6.2734,0.0,0.0,0.0,0.0,0.0,0.0,0.0,0.0,0.0,0.0,0.0,0.0,0.0,0.0,0.0,0.0,0.0,0.0,0.0,0.0,0.0,0.0,0.0,0.0,0.0,0.0,0.0,0.0,0.0,0.0,0.0,0.0,0.0,0.0,0.0,0.0,0.0,0.0,0.0,0.0,0.0,0.0,0.0,0.0,0.0,0.0,0.0,0.0,0.0,0.0,0.0,0.0,0.0,0.0,0.0,0.0,0.0,0.0,0.0,0.0,0.0,0.0,0.0,0.0,0.0,0.0,0.0,0.0,0.0,0.0,0.0,0.0,0.0,0.0,0.0,0.0,0.0,0.0,0.0,0.0,0.0,0.0,0.0,0.0,0.0,0.0,0.0,0.0,0.0,0.0,0.0,0.0,0.0,0.0,0.0,0.0,0.0,0.0,0.0,0.0,0.0,0.0,0.0,0.0,0.0,0.0,0.0,0.0,0.0,6.4687,6.664,6.8125,6.8945,6.5078,6.2344,0.0,0.0,0.0,0.0,0.0,0.0,0.0,0.0,0.0,0.0,0.0,0.0,0.0,0.0,0.0,0.0,0.0,0.0,0.0,0.0,0.0,0.0,0.0,0.0,0.0,0.0,0.0,0.0,0.0,0.0,0.0,0.0,0.0,0.0,0.0,0.0,0.0,0.0,0.0,0.0,0.0,0.0,0.0,0.0,0.0,0.0,0.0,0.0,0.0,0.0,0.0,0.0,0.0,0.0,0.0,0.0,0.0,0.0,0.0,0.0,0.0,0.0,0.0,0.0,0.0,0.0,0.0,0.0,0.0,0.0,0.0,0.0,0.0,0.0,0.0,0.0,0.0,0.0,0.0,0.0,0.0,0.0,0.0,0.0,0.0,0.0,0.0,0.0,0.0,0.0,0.0,0.0,0.0,0.0,0.0,0.0,0.0,0.0,0.0,0.0,0.0,0.0,0.0,0.0,0.0,0.0,0.0,0.0,0.0,6.8164,6.9531,7.0703,7.164,6.7031,6.375,6.2031,0.0,0.0,0.0,0.0,0.0,0.0,0.0,0.0,0.0,0.0,0.0,0.0,0.0,0.0,0.0,0.0,0.0,0.0,0.0,0.0,0.0,0.0,0.0,0.0,0.0,0.0,0.0,0.0,0.0,0.0,0.0,0.0,0.0,0.0,0.0,0.0,0.0,0.0,0.0,0.0,0.0,0.0,0.0,0.0,0.0,0.0,0.0,0.0,0.0,0.0,0.0,0.0,0.0,0.0,0.0,0.0,0.0,0.0,0.0,0.0,0.0,0.0,0.0,0.0,0.0,0.0,0.0,0.0,0.0,0.0,0.0,0.0,0.0,0.0,0.0,0.0,0.0,0.0,0.0,0.0,0.0,0.0,0.0,0.0,0.0,0.0,0.0,0.0,0.0,0.0,0.0,0.0,0.0,0.0,0.0,0.0,0.0,0.0,0.0,0.0,0.0,0.0,0.0,0.0,0.0,0.0,0.0,0.0,7.4687,7.5859,7.5664,7.3867,7.0976,6.6758,0.0,0.0,0.0,0.0,0.0,0.0,0.0,0.0,0.0,0.0,0.0,0.0,0.0,0.0,0.0,0.0,0.0,0.0,0.0,0.0,0.0,0.0,0.0,0.0,0.0,0.0,0.0,0.0,0.0,0.0,0.0,0.0,0.0,0.0,0.0,0.0,0.0,0.0,0.0,0.0,0.0,0.0,0.0,0.0,0.0,0.0,0.0,0.0,0.0,0.0,0.0,0.0,0.0,0.0,0.0,0.0,0.0,0.0,0.0,0.0,0.0,0.0,0.0,0.0,0.0,0.0,0.0,0.0,0.0,0.0,0.0,0.0,0.0,0.0,0.0,0.0,0.0,0.0,0.0,0.0,0.0,0.0,0.0,0.0,0.0,0.0,0.0,0.0,0.0,0.0,0.0,0.0,0.0,0.0,0.0,0.0,0.0,0.0,0.0,0.0,0.0,0.0,0.0,0.0,0.0,0.0,0.0,0.0,0.0,7.6484,8.1094,8.2383,7.9922,7.3711,6.9023,0.0,0.0,0.0,0.0,0.0,0.0,0.0,0.0,0.0,0.0,0.0,0.0,0.0,0.0,0.0,0.0,0.0,0.0,0.0,0.0,0.0,0.0,0.0,0.0,0.0,0.0,0.0,0.0,0.0,0.0,0.0,0.0,0.0,0.0,0.0,0.0,0.0,0.0,0.0,0.0,0.0,0.0,0.0,0.0,0.0,0.0,0.0,0.0,0.0,0.0,0.0,0.0,0.0,0.0,0.0,0.0,0.0,0.0,0.0,0.0,0.0,0.0,0.0,0.0,0.0,0.0,0.0,0.0,0.0,0.0,0.0,0.0,0.0,0.0,0.0,0.0,0.0,0.0,0.0,0.0,0.0,0.0,0.0,0.0,0.0,0.0,0.0,0.0,0.0,0.0,0.0,0.0,0.0,0.0,0.0,0.0,0.0,0.0,0.0,0.0,0.0,0.0,0.0,0.0,0.0,0.0,0.0,0.0,7.5859,7.9297,8.5234,8.7617,8.6133,7.8555,7.2656,0.0,0.0,0.0,0.0,0.0,0.0,0.0,0.0,0.0,0.0,0.0,0.0,0.0,0.0,0.0,0.0,0.0,0.0,0.0,0.0,0.0,0.0,0.0,0.0,0.0,0.0,0.0,0.0,0.0,0.0,0.0,0.0,0.0,0.0,0.0,0.0,0.0,0.0,0.0,0.0,0.0,0.0,0.0,0.0,0.0,0.0,0.0,0.0,0.0,0.0,0.0,0.0,0.0,0.0,0.0,0.0,0.0,0.0,0.0,0.0,0.0,0.0,0.0,0.0,0.0,0.0,0.0,0.0,0.0,0.0,0.0,0.0,0.0,0.0,0.0,0.0,0.0,0.0,0.0,0.0,0.0,0.0,0.0,0.0,0.0,0.0,0.0,0.0,0.0,0.0,0.0,0.0,0.0,0.0,0.0,0.0,0.0,0.0,0.0,0.0,0.0,0.0,0.0,0.0,0.0,0.0,0.0,0.0,7.9101,8.2539,8.8398,9.1406,9.1094,8.375,7.668,0.0,0.0,0.0,0.0,0.0,0.0,0.0,0.0,0.0,0.0,0.0,0.0,0.0,0.0,0.0,0.0,0.0,0.0,0.0,0.0,0.0,0.0,0.0,0.0,0.0,0.0,0.0,0.0,0.0,0.0,0.0,0.0,0.0,0.0,0.0,0.0,0.0,0.0,0.0,0.0,0.0,0.0,0.0,0.0,0.0,0.0,0.0,0.0,0.0,0.0,0.0,0.0,0.0,0.0,0.0,0.0,0.0,0.0,0.0,0.0,0.0,0.0,0.0,0.0,0.0,0.0,0.0,0.0,0.0,0.0,0.0,0.0,0.0,0.0,0.0,0.0,0.0,0.0,0.0,0.0,0.0,0.0,0.0,0.0,0.0,0.0,0.0,0.0,0.0,0.0,0.0,0.0,0.0,0.0,0.0,0.0,0.0,0.0,0.0,0.0,0.0,0.0,0.0,0.0,0.0,0.0,0.0,0.0,8.0859,8.4336,8.957,9.1992,9.1289,8.375,7.7773,0.0,0.0,0.0,0.0,0.0,0.0,0.0,0.0,0.0,0.0,0.0,0.0,0.0,0.0,0.0,0.0,0.0,0.0,0.0,0.0,0.0,0.0,0.0,0.0,0.0,0.0,0.0,0.0,0.0,0.0,0.0,0.0,0.0,0.0,0.0,0.0,0.0,0.0,0.0,0.0,0.0,0.0,0.0,0.0,0.0,0.0,0.0,0.0,6.5117,0.0,0.0,0.0,0.0,0.0,0.0,0.0,0.0,0.0,0.0,0.0,0.0,0.0,0.0,0.0,0.0,0.0,0.0,0.0,0.0,0.0,0.0,0.0,0.0,0.0,0.0,0.0,0.0,0.0,0.0,0.0,0.0,0.0,0.0,0.0,0.0,0.0,0.0,0.0,0.0,0.0,0.0,0.0,0.0,0.0,0.0,0.0,0.0,0.0,0.0,0.0,0.0,0.0,0.0,0.0,0.0,0.0,0.0,0.0,8.1992,8.5508,9.0156,9.2187,9.1133,8.5742,8.039,0.0,0.0,0.0,0.0,0.0,0.0,0.0,0.0,0.0,0.0,0.0,0.0,0.0,0.0,0.0,0.0,0.0,0.0,0.0,0.0,0.0,0.0,0.0,0.0,0.0,0.0,0.0,0.0,0.0,0.0,0.0,0.0,0.0,0.0,0.0,0.0,0.0,0.0,0.0,0.0,0.0,0.0,0.0,0.0,0.0,0.0,0.0,0.0,0.0,0.0,0.0,0.0,0.0,0.0,0.0,0.0,0.0,0.0,0.0,0.0,0.0,0.0,0.0,0.0,0.0,0.0,0.0,0.0,0.0,0.0,0.0,0.0,0.0,0.0,0.0,0.0,0.0,0.0,0.0,0.0,0.0,0.0,0.0,0.0,0.0,0.0,0.0,0.0,0.0,0.0,0.0,0.0,0.0,0.0,0.0,0.0,0.0,0.0,0.0,0.0,0.0,0.0,0.0,0.0,0.0,0.0,0.0,7.7578,8.2617,8.6719,9.0586,9.2187,9.1289,8.7969,8.2969,7.6172,0.0,0.0,0.0,0.0,0.0,0.0,0.0,0.0,0.0,0.0,0.0,0.0,0.0,0.0,0.0,0.0,0.0,0.0,0.0,0.0,0.0,0.0,0.0,0.0,0.0,0.0,0.0,0.0,0.0,0.0,0.0,0.0,0.0,0.0,0.0,0.0,0.0,0.0,6.1484,6.4219,0.0,0.0,0.0,0.0,0.0,0.0,0.0,0.0,6.625,0.0,0.0,0.0,0.0,0.0,0.0,0.0,0.0,0.0,0.0,0.0,0.0,0.0,0.0,0.0,0.0,0.0,0.0,0.0,0.0,0.0,0.0,0.0,0.0,0.0,0.0,0.0,0.0,0.0,0.0,0.0,0.0,0.0,0.0,0.0,0.0,0.0,0.0,0.0,0.0,0.0,0.0,0.0,0.0,0.0,0.0,0.0,0.0,0.0,0.0,0.0,0.0,0.0,0.0,0.0,0.0,7.5976,7.793,8.2226,8.9179,9.1484,9.2187,9.125,8.8008,8.2969,7.6211,0.0,0.0,0.0,0.0,0.0,0.0,0.0,0.0,0.0,0.0,0.0,0.0,0.0,0.0,0.0,0.0,0.0,0.0,0.0,0.0,0.0,0.0,0.0,0.0,0.0,0.0,0.0,0.0,0.0,0.0,0.0,0.0,0.0,0.0,0.0,0.0,0.0,0.0,0.0,6.7851,6.8984,0.0,0.0,0.0,0.0,0.0,0.0,0.0,0.0,6.6172,0.0,0.0,0.0,0.0,0.0,0.0,0.0,0.0,0.0,0.0,0.0,0.0,0.0,0.0,0.0,0.0,0.0,0.0,0.0,0.0,0.0,0.0,0.0,0.0,0.0,0.0,0.0,0.0,0.0,0.0,0.0,0.0,0.0,0.0,0.0,0.0,0.0,0.0,0.0,0.0,0.0,0.0,0.0,0.0,0.0,0.0,0.0,0.0,0.0,0.0,0.0,0.0,0.0,0.0,0.0,7.4961,7.9531,8.4453,8.9804,9.1719,9.1953,9.0586,8.6445,8.1367,0.0,0.0,0.0,0.0,0.0,0.0,0.0,0.0,0.0,0.0,0.0,0.0,0.0,0.0,0.0,0.0,0.0,0.0,0.0,0.0,0.0,0.0,0.0,0.0,0.0,0.0,0.0,0.0,0.0,0.0,0.0,0.0,0.0,0.0,0.0,0.0,0.0,0.0,0.0,0.0,6.918,7.0586,7.3555,0.0,0.0,0.0,0.0,0.0,0.0,6.6797,6.6406,0.0,0.0,0.0,0.0,0.0,0.0,0.0,0.0,0.0,0.0,0.0,0.0,0.0,0.0,0.0,0.0,0.0,0.0,0.0,0.0,0.0,0.0,0.0,0.0,0.0,0.0,0.0,0.0,0.0,0.0,0.0,0.0,0.0,0.0,0.0,0.0,0.0,0.0,0.0,0.0,0.0,0.0,0.0,0.0,0.0,0.0,0.0,0.0,0.0,0.0,0.0,0.0,0.0,0.0,0.0,7.3594,8.0195,8.5703,8.9804,9.1367,9.1406,8.9961,8.4844,7.9609,0.0,0.0,0.0,0.0,0.0,0.0,0.0,0.0,0.0,0.0,0.0,0.0,0.0,0.0,0.0,0.0,0.0,0.0,0.0,0.0,0.0,0.0,0.0,0.0,0.0,0.0,0.0,0.0,0.0,0.0,0.0,0.0,0.0,0.0,0.0,0.0,0.0,0.0,0.0,0.0,0.0,7.2383,7.4062,7.3008,0.0,0.0,0.0,0.0,6.8008,6.8359,0.0,0.0,0.0,0.0,0.0,0.0,0.0,0.0,0.0,0.0,0.0,0.0,0.0,0.0,0.0,0.0,0.0,0.0,0.0,0.0,0.0,0.0,0.0,0.0,0.0,0.0,0.0,0.0,0.0,0.0,0.0,0.0,0.0,0.0,0.0,0.0,0.0,0.0,0.0,0.0,0.0,0.0,0.0,0.0,0.0,0.0,0.0,0.0,0.0,0.0,0.0,0.0,0.0,0.0,0.0,0.0,7.4219,7.7578,8.2734,8.957,9.0195,9.0195,8.9922,8.4258,7.8711,0.0,0.0,0.0,0.0,0.0,0.0,0.0,0.0,0.0,0.0,0.0,0.0,0.0,0.0,0.0,0.0,0.0,0.0,0.0,0.0,0.0,0.0,0.0,0.0,0.0,0.0,0.0,0.0,0.0,0.0,0.0,0.0,0.0,0.0,0.0,0.0,0.0,0.0,0.0,0.0,0.0,7.4844,7.3633,7.2617,7.1914,0.0,0.0,7.0664,7.1289,7.332,0.0,0.0,0.0,0.0,0.0,0.0,0.0,0.0,0.0,0.0,0.0,0.0,0.0,0.0,0.0,0.0,0.0,0.0,0.0,0.0,0.0,0.0,0.0,0.0,0.0,0.0,0.0,0.0,0.0,0.0,0.0,0.0,0.0,0.0,0.0,0.0,0.0,0.0,0.0,0.0,0.0,0.0,0.0,0.0,0.0,0.0,0.0,0.0,0.0,0.0,0.0,0.0,0.0,0.0,0.0,6.8437,7.3164,7.9531,8.4961,8.9101,8.9765,8.9765,8.9258,8.25,7.7109,0.0,0.0,0.0,0.0,0.0,0.0,0.0,0.0,0.0,0.0,0.0,0.0,0.0,0.0,0.0,0.0,0.0,0.0,0.0,0.0,0.0,0.0,0.0,0.0,0.0,0.0,0.0,0.0,0.0,0.0,0.0,0.0,0.0,0.0,0.0,0.0,0.0,0.0,0.0,0.0,0.0,0.0,7.6055,7.5898,0.0,0.0,0.0,7.3437,7.2812,0.0,0.0,0.0,0.0,0.0,0.0,0.0,0.0,0.0,0.0,0.0,0.0,0.0,0.0,0.0,0.0,0.0,0.0,0.0,0.0,0.0,0.0,0.0,0.0,0.0,0.0,0.0,0.0,0.0,0.0,0.0,0.0,0.0,0.0,0.0,0.0,0.0,0.0,0.0,0.0,0.0,0.0,0.0,0.0,0.0,0.0,0.0,0.0,0.0,0.0,0.0,0.0,0.0,0.0,0.0,0.0,0.0,7.2422,8.082,8.6367,8.8633,8.914,8.9179,8.8594,8.2031,0.0,0.0,0.0,0.0,0.0,0.0,0.0,0.0,0.0,0.0,0.0,0.0,0.0,0.0,0.0,0.0,0.0,0.0,0.0,0.0,0.0,0.0,0.0,0.0,0.0,0.0,0.0,5.1992,0.0,0.0,0.0,0.0,0.0,0.0,0.0,0.0,0.0,0.0,0.0,0.0,0.0,0.0,7.5078,7.7226,7.8086,7.8476,0.0,0.0,7.6328,7.5664,7.7578,7.7226,0.0,0.0,0.0,0.0,0.0,0.0,0.0,0.0,0.0,0.0,0.0,0.0,0.0,0.0,0.0,0.0,0.0,0.0,0.0,0.0,0.0,0.0,0.0,0.0,0.0,0.0,0.0,0.0,0.0,0.0,0.0,0.0,0.0,0.0,0.0,0.0,0.0,0.0,0.0,0.0,0.0,0.0,0.0,0.0,0.0,0.0,0.0,0.0,0.0,0.0,0.0,0.0,0.0,0.0,0.0,7.3242,7.9375,8.4609,8.8515,8.8008,8.8008,8.8594,8.4336,7.8828,0.0,0.0,0.0,0.0,0.0,0.0,0.0,0.0,0.0,0.0,0.0,0.0,0.0,0.0,0.0,0.0,0.0,0.0,0.0,0.0,0.0,0.0,0.0,0.0,0.0,0.0,0.0,0.0,0.0,0.0,0.0,0.0,0.0,0.0,0.0,0.0,0.0,0.0,0.0,0.0,0.0,7.6445,7.5039,7.6953,7.9336,0.0,7.9883,7.9101,8.1328,8.5078,8.4765,7.5703,0.0,0.0,0.0,0.0,0.0,0.0,0.0,0.0,0.0,0.0,0.0,0.0,0.0,0.0,0.0,0.0,0.0,0.0,0.0,0.0,0.0,0.0,0.0,0.0,0.0,0.0,0.0,0.0,0.0,0.0,0.0,0.0,0.0,0.0,0.0,0.0,0.0,0.0,0.0,0.0,0.0,0.0,0.0,0.0,0.0,0.0,0.0,0.0,0.0,0.0,0.0,0.0,0.0,6.9297,7.2539,8.0039,8.5234,8.7812,8.7656,8.7656,8.7929,8.4297,7.9297,0.0,0.0,0.0,0.0,0.0,0.0,0.0,0.0,0.0,0.0,0.0,0.0,0.0,0.0,0.0,0.0,0.0,0.0,0.0,0.0,0.0,0.0,0.0,0.0,0.0,0.0,0.0,0.0,5.6211,5.6328,5.6133,0.0,0.0,0.0,0.0,0.0,0.0,0.0,0.0,0.0,0.0,7.6484,7.8984,8.0664,0.0,0.0,8.2265,8.1601,8.1523,8.2422,8.1015,7.4805,7.2344,0.0,0.0,0.0,0.0,0.0,0.0,0.0,0.0,0.0,0.0,0.0,0.0,0.0,0.0,0.0,0.0,0.0,0.0,0.0,0.0,0.0,0.0,0.0,0.0,0.0,0.0,0.0,0.0,0.0,0.0,0.0,0.0,0.0,0.0,0.0,0.0,0.0,0.0,0.0,0.0,0.0,0.0,0.0,0.0,0.0,0.0,0.0,0.0,0.0,0.0,0.0,0.0,6.9336,7.2383,8.0156,8.5234,8.7461,8.75,8.75,8.7422,8.4609,8.0351,0.0,0.0,0.0,0.0,0.0,0.0,0.0,0.0,0.0,0.0,0.0,0.0,0.0,0.0,0.0,0.0,0.0,0.0,0.0,0.0,0.0,0.0,0.0,0.0,0.0,0.0,0.0,0.0,5.75,5.7383,5.7031,0.0,0.0,0.0,0.0,0.0,0.0,0.0,0.0,0.0,0.0,7.7148,8.0976,8.2265,8.2812,8.2812,8.2383,8.1797,8.1094,8.0898,7.9414,7.5156,0.0,0.0,0.0,0.0,0.0,0.0,0.0,0.0,0.0,0.0,0.0,0.0,0.0,0.0,0.0,0.0,0.0,0.0,0.0,0.0,0.0,0.0,0.0,0.0,0.0,0.0,0.0,5.918,0.0,0.0,5.6719,0.0,0.0,0.0,0.0,0.0,0.0,0.0,0.0,0.0,0.0,0.0,0.0,0.0,0.0,0.0,0.0,0.0,0.0,0.0,0.0,0.0,0.0,6.9023,7.3242,7.9297,8.4062,8.7344,8.75,8.75,8.7461,8.5781,8.2383,7.7148,0.0,0.0,0.0,0.0,0.0,0.0,0.0,0.0,0.0,0.0,0.0,0.0,0.0,0.0,0.0,0.0,0.0,0.0,0.0,0.0,0.0,0.0,0.0,0.0,0.0,0.0,5.6797,5.664,5.6992,0.0,0.0,0.0,0.0,0.0,0.0,0.0,0.0,0.0,0.0,7.4101,7.8711,7.9648,8.0508,8.1133,8.1172,7.9765,7.9219,8.0781,8.2304,8.207,0.0,0.0,0.0,0.0,0.0,0.0,0.0,0.0,0.0,0.0,0.0,0.0,0.0,0.0,0.0,0.0,0.0,0.0,0.0,0.0,0.0,0.0,0.0,0.0,0.0,0.0,0.0,6.4414,6.1875,0.0,0.0,0.0,0.0,0.0,0.0,0.0,0.0,0.0,0.0,0.0,6.6953,6.8633,0.0,0.0,0.0,0.0,0.0,0.0,0.0,0.0,0.0,0.0,0.0,0.0,6.8711,7.2578,7.9531,8.4297,8.6562,8.7187,8.75,8.75,8.6367,8.2226,7.4844,0.0,0.0,0.0,0.0,0.0,0.0,0.0,0.0,0.0,0.0,0.0,0.0,0.0,0.0,0.0,0.0,0.0,0.0,0.0,0.0,0.0,0.0,0.0,0.0,0.0,5.8633,0.0,0.0,0.0,0.0,0.0,0.0,0.0,0.0,0.0,0.0,0.0,6.6875,7.0273,7.3711,7.664,7.8633,8.0117,8.1406,0.0,0.0,0.0,0.0,0.0,0.0,0.0,0.0,0.0,0.0,0.0,0.0,0.0,0.0,7.2265,6.625,6.5156,6.5156,6.5156,0.0,0.0,0.0,0.0,0.0,0.0,0.0,0.0,0.0,0.0,0.0,0.0,0.0,0.0,6.7617,0.0,6.5859,0.0,0.0,0.0,0.0,0.0,0.0,0.0,0.0,7.0312,7.207,7.1836,7.3476,7.3711,0.0,7.1445,6.8398,0.0,0.0,0.0,0.0,0.0,0.0,0.0,0.0,6.9609,7.3476,8.0117,8.457,8.6562,8.7187,8.75,8.7461,8.6367,8.2383,7.5312,7.1836,6.789,0.0,0.0,0.0,0.0,0.0,0.0,0.0,0.0,0.0,0.0,0.0,0.0,0.0,0.0,0.0,0.0,0.0,0.0,0.0,0.0,0.0,0.0,0.0,5.9726,0.0,0.0,0.0,0.0,0.0,0.0,0.0,0.0,0.0,6.3867,6.668,6.9844,7.293,7.5351,7.7109,7.793,0.0,0.0,0.0,0.0,0.0,0.0,0.0,7.75,7.6914,7.6445,7.6445,7.7539,7.8633,7.9258,7.8984,0.0,0.0,7.1211,6.9805,6.9687,6.9961,7.0898,7.1367,7.0586,7.1719,7.2617,0.0,0.0,0.0,0.0,0.0,0.0,0.0,0.0,7.1133,7.0625,0.0,6.9726,0.0,0.0,0.0,0.0,0.0,6.9101,0.0,0.0,7.7187,7.9297,7.8633,7.8633,7.8711,7.8594,7.6953,7.4805,7.2148,6.8125,0.0,0.0,0.0,0.0,0.0,0.0,7.1601,7.5898,8.0976,8.4844,8.7304,8.7461,8.75,8.7461,8.5859,8.2969,7.8867,7.6953,7.3672,6.8594,6.4336,0.0,0.0,0.0,0.0,0.0,0.0,0.0,0.0,0.0,0.0,0.0,0.0,0.0,0.0,0.0,0.0,0.0,0.0,0.0,0.0,6.039,0.0,0.0,0.0,0.0,0.0,0.0,0.0,0.0,0.0,0.0,6.6211,6.9492,7.2969,7.5469,0.0,0.0,0.0,0.0,7.9805,7.6758,7.6914,7.7578,7.7695,7.9648,8.1172,8.1133,0.0,0.0,8.3984,8.2383,8.1172,8.0234,8.0898,8.0703,7.9062,7.6523,7.5156,7.582,7.4883,7.4062,7.4687,7.5273,7.5312,7.8828,0.0,0.0,0.0,0.0,7.3984,7.5586,7.8047,7.8047,7.6875,7.4922,7.4336,0.0,0.0,0.0,0.0,0.0,0.0,7.3086,7.5781,7.8476,8.0547,8.2148,8.2773,8.3047,8.3047,8.1914,8.0703,7.9297,7.75,7.2148,6.3711,0.0,0.0,0.0,0.0,7.25,7.6797,8.1289,8.457,8.6523,8.7148,8.75,8.75,8.6406,8.4687,8.2226,8.0469,7.7461,7.2969,6.9805,0.0,0.0,0.0,0.0,0.0,0.0,0.0,0.0,0.0,0.0,0.0,0.0,0.0,0.0,0.0,0.0,0.0,0.0,0.0,5.9453,6.0625,6.1172,0.0,0.0,0.0,0.0,0.0,0.0,0.0,0.0,0.0,7.2656,7.289,7.3437,0.0,0.0,7.5937,7.4609,7.7656,8.0156,8.0429,8.1719,0.0,0.0,8.4648,8.4726,8.4726,8.6523,8.7812,8.7304,8.7344,8.7344,8.7031,8.625,8.5469,8.4883,8.2304,8.0312,8.039,8.0547,8.0703,8.0976,8.1484,8.1875,8.4726,8.0781,7.8594,7.7969,7.8437,7.8828,8.0312,8.2539,8.2187,8.1172,7.9726,7.918,7.6289,7.1719,7.0703,0.0,0.0,0.0,7.6445,7.9805,8.1133,8.2773,8.4609,8.5156,8.5429,8.539,8.4531,8.3828,8.332,8.2109,7.7773,7.0586,0.0,0.0,6.8476,7.1992,7.5742,7.9687,8.2969,8.5469,8.7148,8.7383,8.75,8.75,8.6992,8.6054,8.4687,8.3633,8.125,7.7305,7.4336,7.0586,0.0,0.0,0.0,0.0,0.0,0.0,0.0,0.0,0.0,0.0,0.0,5.7617,5.6914,0.0,0.0,0.0,5.9219,6.043,6.164,6.2656,0.0,0.0,0.0,0.0,0.0,0.0,0.0,6.9648,7.1914,7.4336,7.7031,7.7109,7.7187,7.8047,7.8476,7.8242,7.7031,0.0,8.2539,8.3242,8.4531,8.6133,8.8125,8.8633,8.9062,9.0117,9.1094,9.1445,9.0859,9.0937,9.0898,9.0469,8.9414,8.8515,8.8476,8.6992,8.5195,8.3711,8.4023,8.4609,8.4648,8.5039,8.539,8.8984,8.8554,8.4726,8.3008,8.289,8.3672,8.4492,8.5234,8.4453,8.4062,8.4023,8.3867,8.1484,7.7461,7.5117,0.0,7.7734,7.8555,8.0664,8.3828,8.4726,8.5547,8.6289,8.6367,8.6406,8.6367,8.5508,8.5156,8.5156,8.3554,8.1797,8.0,7.7695,7.5937,7.4883,7.7265,8.0234,8.3515,8.5312,8.6992,8.8633,8.7969,8.7578,8.75,8.75,8.7148,8.6328,8.6172,8.457,8.1328,7.7969,7.414,6.9883,0.0,0.0,0.0,0.0,0.0,0.0,0.0,0.0,0.0,0.0,0.0,0.0,0.0,0.0,6.0273,6.2109,0.0,6.5625,6.582,0.0,0.0,0.0,6.6758,6.8594,7.0234,7.2148,7.4609,0.0,0.0,7.9805,8.1445,8.2851,8.3867,8.4531,8.4297,8.2617,8.457,8.6094,8.5351,8.6094,8.7617,9.0234,9.1953,9.3828,9.5976,9.664,9.5625,9.414,9.3047,9.2304,9.1523,9.0664,9.0078,9.0078,9.0469,9.0078,8.6172,8.6133,8.664,8.6719,8.6719,8.664,9.1289,9.0664,9.0312,8.9023,8.7226,8.7383,8.7969,8.875,8.8554,8.8125,8.7422,8.6133,8.3906,8.1054,8.0429,8.0859,8.2109,8.2304,8.3554,8.5586,8.6484,8.6992,8.7226,8.7812,8.8125,8.8047,8.7265,8.7187,8.7734,8.6758,8.5039,8.2773,8.207,7.9687,7.5859,7.8125,8.0781,8.3554,8.5312,8.7031,8.8633,8.8515,8.8125,8.75,8.75,8.7383,8.7187,8.5898,8.4492,8.2969,7.9726,7.6211,7.2539,6.6836,0.0,0.0,0.0,0.0,0.0,0.0,0.0,0.0,0.0,5.8789,5.6406,0.0,5.9297,0.0,6.3203,6.5703,6.7422,6.7578,0.0,0.0,7.0,7.0703,7.3711,7.5,7.6133,7.7422,7.9062,8.0742,8.2461,8.3594,8.5078,8.7109,8.6015,8.4531,8.3554,8.6054,8.8047,8.8008,8.9609,9.1758,9.3633,9.5937,9.7851,9.9179,9.7812,9.6133,9.5078,9.3594,9.2539,9.2265,9.1562,9.1054,9.0976,9.1172,9.1015,9.0,8.9961,9.0078,9.0078,8.957,8.8906,9.3476,9.3047,9.3125,9.2344,9.0937,9.0195,9.0117,9.0547,9.0156,8.9726,8.9179,8.7539,8.5976,8.457,8.3789,8.414,8.5312,8.5351,8.625,8.789,8.8398,8.8594,8.8633,8.9062,8.9297,8.9258,8.8828,8.8828,8.9258,8.8828,8.789,8.6484,8.6445,8.4648,8.1211,8.0937,8.1953,8.414,8.625,8.7929,8.9219,8.8906,8.8125,8.6953,8.6562,8.5781,8.4648,8.3672,8.2578,8.1367,7.914,7.6328,7.2851,6.8476,6.4883,0.0,0.0,0.0,0.0,0.0,0.0,0.0,0.0,0.0,0.0,0.0,6.1562,6.3164,6.6094,6.8594,7.0312,7.1172,7.25,7.4648,7.4765,7.5781,7.8476,7.9531,8.0547,8.1797,8.3086,8.4375,8.5703,8.6953,8.8242,8.9687,8.8945,8.8008,8.7383,8.9062,9.0429,9.0508,9.1992,9.4062,9.6484,9.9062,10.0742,10.0664,9.9062,9.7226,9.5976,9.4336,9.3086,9.2656,9.2187,9.1875,9.1914,9.2226,9.2539,9.2929,9.3047,9.289,9.2539,9.207,9.1484,9.5195,9.5117,9.4375,9.4062,9.3945,9.2422,9.1679,9.1406,9.0664,9.0273,9.0078,8.8594,8.7851,8.7578,8.6172,8.6328,8.7656,8.7773,8.8594,8.9961,9.0117,9.0117,8.9961,9.0117,9.0156,9.0156,9.0078,9.0039,9.0156,9.0039,8.9883,8.9687,8.9687,8.8828,8.7109,8.4258,8.3594,8.5234,8.7617,8.9179,8.9804,8.8906,8.7578,8.5937,8.5039,8.3437,8.1133,8.0781,8.0,7.8594,7.7578,7.5703,7.2812,6.9961,6.7344,0.0,6.2305,0.0,0.0,0.0,0.0,0.0,0.0,0.0,0.0,6.4687,6.5117,6.7539,6.9922,7.2109,7.3945,7.5508,7.7109,7.8945,7.9765,8.0898,8.2578,8.3554,8.4726,8.6328,8.7265,8.8086,8.8711,9.0312,9.1289,9.1289,9.1914,9.207,9.1758,9.1992,9.2422,9.2734,9.3711,9.5547,9.8086,10.0742,10.2031,10.1211,9.9609,9.8164,9.6484,9.4804,9.3437,9.2773,9.2578,9.2539,9.2578,9.3281,9.4062,9.4648,9.4961,9.5,9.4414,9.4023,9.3711,9.5195,9.5195,9.5039,9.4961,9.4922,9.4609,9.3633,9.2344,9.2187,9.1719,9.1054,9.0703,8.9804,8.8554,8.8867,8.8828,8.8515,8.9219,8.9609,8.9804,9.0664,9.0586,8.9844,9.0664,9.1054,9.1015,9.0351,9.0351,9.1054,9.0351,8.9297,8.8008,8.7969,8.7109,8.5469,0.0,0.0,0.0,8.8828,8.9492,8.8906,8.7461,8.5859,8.414,8.3242,0.0,8.1054,7.9687,7.8828,7.8476,7.6992,0.0,0.0,0.0,0.0,0.0,0.0,0.0,0.0,0.0,0.0,0.0,6.8281,6.6992,6.582,6.8476,7.082,7.2031,7.3789,7.5898,7.8242,7.875,7.9961,8.2304,8.2773,8.3554,8.5234,8.625,8.7148,8.8086,8.8984,8.957,8.9765,9.0664,9.1328,9.1484,9.2656,9.3515,9.3398,9.2969,9.289,9.3633,9.5429,9.707,9.7812,9.9648,10.0664,9.9531,9.8086,9.6719,9.5664,9.4062,9.289,9.2617,9.2578,9.2578,9.2617,9.332,9.3906,9.4101,9.5273,9.6211,9.6015,9.5429,9.4297,9.6836,0.0,9.6015,9.582,0.0,9.539,9.4687,9.3906,9.3906,9.3398,9.2539,9.1679,9.082,9.0,9.0,9.0,9.0,9.0429,9.082,9.1133,9.1703,9.166,9.1172,9.1679,9.1953,9.1914,9.1523,9.1484,9.1914,9.1484,9.0859,9.0039,9.0,8.957,8.875,8.914,8.914,8.875,8.957,9.0195,9.0547,8.9375,8.7695,8.5586,0.0,0.0,0.0,0.0,0.0,0.0,0.0,0.0,0.0,0.0,0.0,7.1328,6.9687,6.8906,6.9375,6.9765,7.0937,7.3086,7.3711,7.2851,7.0234,7.2812,7.4922,7.582,7.7422,7.9101,8.0781,8.1758,8.3125,8.5195,8.5547,8.6172,8.7773,8.8437,8.8867,8.9297,9.0117,9.0625,9.0625,9.1406,9.2109,9.2539,9.332,9.4101,9.4414,9.4179,9.4219,9.5078,9.6523,9.7851,9.8359,9.9375,10.0156,9.9531,9.8203,9.6875,9.5976,9.4414,9.3125,9.2734,9.2578,9.2578,9.2617,9.2969,9.3398,9.3828,9.4609,9.539,9.5742,9.582,9.5234,9.8711,9.7851,9.7226,9.6836,9.664,9.5937,9.5625,9.5625,0.0,0.0,0.0,9.2461,9.1679,9.1484,9.0781,9.0781,9.1289,9.1445,9.1914,9.2539,9.2599,9.254,9.2461,9.2578,9.2578,9.2539,9.2517,9.256,9.2578,9.2539,9.2539,9.2578,9.2578,9.2578,9.2578,9.2578,9.1914,9.0508,9.0156,9.0703,9.207,9.1172,8.957,8.7304,8.5586,8.3242,8.0273,7.8398,7.7109,7.6367,7.5547,7.4805,7.4297,7.4883,7.5039,7.4531,7.5117,7.5508,7.5508,7.6172,7.6719,7.6992,7.8633,7.8515,7.5937,7.7187,7.8515,7.9531,8.0898,8.2031,8.289,8.4258,8.582,8.7539,8.7734,8.832,8.9726,9.0156,9.0195,9.0312,9.0976,9.1523,9.1562,9.2304,9.3047,9.375,9.4219,9.4648,9.539,9.5508,9.5586,9.625,9.7109,9.7929,9.8633,9.9219,9.9765,9.9336,9.8125,9.7031,9.6054,9.4726,9.3515,9.2695,9.2578,9.2578,9.2578,9.2656,9.2851,9.3554,9.3789,9.4101,9.4804,9.539,9.5117,9.9609,9.8789,9.8711,9.8203,9.75,9.7383,9.7344,9.7226,9.582,9.5117,9.4961,9.3984,9.3125,9.2422,9.2304,9.1875,9.1367,9.207,9.2383,0.0,9.2486,9.2372,9.2031,9.2383,9.25,9.2265,9.2268,9.2365,9.2539,9.2383,9.2344,9.2578,9.2578,9.2578,9.2578,9.2578,9.25,9.2187,9.0742,9.0117,9.0351,8.8828,8.75,8.6406,8.4765,8.3242,8.1953,7.9648,7.8281,7.8125,7.7305,7.7109,7.7734,7.789,7.8203,7.875,7.8906,7.8984,7.8984,7.9101,7.9805,8.1328,8.3008,8.289,8.0429,8.1015,8.2265,8.3789,8.4101,8.4687,8.5547,8.5859,8.6719,8.8242,8.8515,8.8945,9.0,9.0703,9.1133,9.1133,9.1875,9.2422,9.25,9.3164,9.3789,9.4101,9.5273,9.6406,9.6875,9.6758,9.6406,9.6562,9.7187,9.7695,9.7969,9.7969,9.8008,9.7148,9.6445,9.5664,9.4726,9.3789,9.3008,9.2617,9.2578,9.2578,9.2578,9.2578,9.2695,9.2929,9.3359,9.3867,9.4062,9.3711,9.2969,10.0234,9.9101,9.9492,9.9179,9.8398,9.8398,9.8125,9.7656,9.6875,9.6289,9.582,9.5,9.4375,9.3984,9.3515,9.3008,9.25,9.2422,9.2265,9.207,9.2187,9.2109,9.1914,9.2107,9.2405,9.269,9.2243,9.2348,9.2812,9.2315,9.2105,9.2226,9.2304,9.2422,9.2578,9.2578,9.2578,9.2578,9.1797,9.1406,9.1406,9.0664,8.9844,8.8984,8.7304,8.5976,8.5117,8.2617,8.125,8.125,8.0429,8.0156,8.0547,8.1015,8.1406,8.1797,8.2265,8.25,8.2539,8.25,8.2851,8.3633,8.4453,8.4648,8.3906,8.375,8.4062,8.4844,8.5312,8.5781,8.6211,8.7031,8.8047,8.9297,8.9804,9.0469,9.125,9.1719,9.1992,9.207,9.2773,9.3281,9.332,9.4062,9.4844,9.5312,9.6758,9.7812,9.7734,9.7812,9.7656,9.7304,9.75,9.7656,9.7695,9.7695,9.7539,9.7187,9.6836,9.6015,9.4922,9.4179,9.3633,9.2773,9.2578,9.2578,9.2578,9.2578,9.2578,9.2617,9.2851,9.3164,9.3086,9.25,9.1484,10.0976,9.9648,10.0312,9.9961,9.9023,9.8789,9.832,9.7734,9.7617,9.7276,9.6639,9.5787,9.5356,9.5239,9.4381,9.3906,9.361,9.2802,9.2461,9.2428,9.2077,9.2077,9.2354,9.2274,9.2613,9.327,9.271,9.2754,9.3307,9.2548,9.2009,9.1914,9.2062,9.2265,9.25,9.25,9.2539,9.2578,9.2578,9.2578,9.2578,9.2578,9.2265,9.1562,9.0078,8.8984,8.8281,8.6054,8.4765,8.4687,8.375,8.3203,8.3203,8.3828,8.4179,8.4258,8.5,8.539,8.5234,8.5195,8.5195,8.5195,8.539,8.5781,8.6328,8.5898,8.5469,8.5547,8.6133,8.6562,8.6914,8.789,8.914,9.0156,9.0898,9.1562,9.2422,9.2578,9.2578,9.2695,9.3359,9.3867,9.4062,9.4844,9.5781,9.6719,9.7929,9.8359,9.7929,9.832,9.8359,9.7929,9.7695,9.7695,9.7695,9.7695,9.7578,9.75,9.7344,9.6445,9.5312,9.4844,9.4336,9.2969,9.2578,9.2578,9.2578,9.2578,9.2578,9.2617,9.2656,9.2578,9.2304,9.1836,9.0898,10.2187,10.1445,10.1445,10.0508,9.9062,9.8242,9.789,9.7734,9.7542,9.7401,9.7208,9.6392,9.5908,9.5554,9.4751,9.4379,9.4267,9.3463,9.3431,9.3848,9.2596,9.2596,9.3694,9.332,9.3397,9.3933,9.3842,9.3928,9.4174,9.3235,9.2486,9.1938,9.1905,9.207,9.2226,9.2265,9.2344,9.2578,9.2578,9.2578,9.2578,9.2578,9.2539,9.25,9.1562,9.1015,9.0742,8.9179,8.8203,8.8125,8.6679,8.582,8.582,8.5937,8.5976,8.5976,8.6758,8.6914,8.6172,8.6094,8.6094,8.6133,8.6758,8.7187,8.7304,8.7265,8.7226,8.7187,8.7304,8.7656,8.8359,8.8672,8.9492,9.0859,9.125,9.164,9.2422,9.2578,9.2578,9.2578,9.3398,9.3906,9.4179,9.539,9.664,9.7344,9.7812,9.8008,9.7773,9.7929,9.8008,9.7773,9.7695,9.7695,9.7695,9.7695,9.7461,9.6875,9.664,9.5976,9.4883,9.4179,9.3672,9.2929,9.2578,9.2578,9.2578,9.2578,9.2578,9.2578,9.2539,9.2383,9.1679,9.1445,9.0976,10.2383,10.1679,10.2148,10.1679,10.0508,10.0,9.9492,9.8945,9.8246,9.7844,9.7596,9.6757,9.6442,9.6402,9.5547,9.509,9.4906,9.4082,9.3823,9.3936,9.3249,9.3287,9.3782,9.3636,9.3905,9.4518,9.4134,9.4174,9.452,9.3785,9.3015,9.2473,9.2406,9.2325,9.2054,9.2131,9.2265,9.2344,9.2539,9.2578,9.2578,9.2578,9.2578,9.25,9.1758,9.1328,9.1211,9.0117,8.9453,8.9453,8.8789,8.8203,8.7695,8.8164,8.8203,8.7773,8.8008,8.8047,8.7695,8.7265,8.6992,8.6953,8.7304,8.75,8.75,8.75,8.75,8.7539,8.7929,8.8359,8.875,8.9609,9.0547,9.125,9.1758,9.2226,9.2539,9.2578,9.2578,9.2695,9.3828,9.4648,9.4922,9.6133,9.7265,9.7734,9.8086,9.8203,9.7812,9.8125,9.8203,9.7812,9.7695,9.7695,9.7695,9.7695,9.75,9.7226,9.6797,9.5976,9.5039,9.4179,9.3633,9.2773,9.2656,9.2617,9.2578,9.2578,9.2578,9.2578,9.2578,9.2461,9.2109,9.207,9.1875,10.248,10.2041,10.2304,10.2029,10.1367,10.0937,10.0371,9.9761,9.8902,9.8326,9.7864,9.7134,9.6826,9.6711,9.6134,9.5751,9.552,9.4751,9.4366,9.4323,9.3943,9.3943,9.4362,9.4136,9.4483,9.5135,9.4749,9.4634,9.4905,9.4403,9.3708,9.313,9.2823,9.2553,9.2189,9.2087,9.2066,9.2226,9.2383,9.2617,9.2929,9.2969,9.2969,9.289,9.2109,9.1758,9.1992,9.1172,9.0703,9.0703,9.0508,9.0078,8.9492,8.9804,8.9687,8.914,8.9062,8.9062,8.9062,8.8515,8.8164,8.8203,8.8164,8.8203,8.8164,8.8203,8.8164,8.8281,8.8945,8.9375,8.9219,9.039,9.1328,9.164,9.2265,9.2578,9.2578,9.2578,9.2578,9.2734,9.4062,9.5429,9.5937,9.6914,9.7656,9.7773,9.8203,9.8476,9.7929,9.8164,9.832,9.7812,9.7695,9.7695,9.7695,9.7695,9.7695,9.7617,9.7187,9.664,9.5703,9.4844,9.3984,9.3437,9.2969,9.2617,9.2617,9.2578,9.2578,9.2578,9.2578,9.2578,9.25,9.2578,9.2578,10.2631,10.2665,10.171,10.1184,10.082,10.0039,9.9654,9.966,9.9288,9.8673,9.8018,9.7557,9.7057,9.6403,9.6288,9.6249,9.6134,9.5366,9.5366,9.5826,9.452,9.4635,9.6057,9.5366,9.5366,9.6095,9.6019,9.5672,9.5095,9.4943,9.4482,9.3672,9.2977,9.263,9.2588,9.1952,9.1756,9.2109,9.2265,9.2734,9.3672,9.3789,9.3828,9.3828,9.3008,9.2969,9.3476,9.2929,9.2461,9.2461,9.1679,9.1211,9.1094,9.0429,9.0039,9.0,8.9961,8.9961,8.9922,8.9804,8.9765,8.9804,8.9687,8.9804,8.9648,8.9648,8.9648,8.9844,9.0429,9.0703,9.0156,9.0859,9.1679,9.2344,9.2539,9.2578,9.2578,9.2578,9.2578,9.289,9.4258,9.5781,9.7265,9.7617,9.7695,9.7695,9.7773,9.7773,9.7773,9.7773,9.7773,9.7773,9.7695,9.7695,9.7695,9.7695,9.7695,9.7578,9.7422,9.7226,9.6523,9.5742,9.4804,9.3906,9.3125,9.2695,9.2617,9.2578,9.2578,9.2578,9.2578,9.2578,9.2578,9.2578,9.2578,10.2301,10.2356,10.1935,10.1722,10.1608,10.1103,10.0914,10.0827,10.0096,9.9596,9.9135,9.8057,9.7326,9.7056,9.6519,9.6288,9.6249,9.598,9.6019,9.6211,9.5635,9.5712,9.6172,9.598,9.598,9.6249,9.6288,9.6172,9.5865,9.5865,9.5366,9.452,9.3674,9.3095,9.2553,9.1864,9.1608,9.1795,9.242,9.3125,9.3711,9.4179,9.4804,9.5469,9.4726,9.414,9.3906,9.3594,9.3164,9.2617,9.2265,9.1875,9.1367,9.1015,9.1094,9.1562,9.1133,9.082,9.0781,9.0312,9.0,9.0,9.0,9.0039,9.0,9.0,9.0,9.0156,9.082,9.1054,9.1094,9.1601,9.2226,9.25,9.2578,9.2578,9.2578,9.2617,9.2812,9.3554,9.4961,9.6484,9.7304,9.7695,9.7695,9.7695,9.7695,9.7695,9.7695,9.7695,9.7695,9.7695,9.7695,9.7695,9.7695,9.7695,9.7656,9.75,9.7304,9.6953,9.6406,9.539,9.4375,9.4101,9.332,9.2773,9.2695,9.2578,9.2578,9.2578,9.2578,9.2578,9.2578,9.2578,9.2578,10.2048,10.1968,10.1971,10.1904,10.1827,10.1635,10.1558,10.1481,10.0788,10.0327,9.9904,9.8827,9.8057,9.748,9.6903,9.6519,9.6326,9.6288,9.6288,9.6288,9.6288,9.6288,9.6288,9.6288,9.6288,9.6288,9.6288,9.6288,9.6288,9.6288,9.598,9.5366,9.4521,9.3828,9.3246,9.2592,9.2284,9.2589,9.3221,9.3828,9.4429,9.5021,9.5859,9.664,9.6328,9.5586,9.4765,9.4492,9.4062,9.3515,9.3437,9.3164,9.2656,9.2578,9.2695,9.2929,9.2461,9.1992,9.1719,9.1172,9.0859,9.0859,9.0859,9.082,9.0859,9.082,9.082,9.0976,9.1328,9.1719,9.1836,9.2265,9.2578,9.2578,9.2578,9.2578,9.2617,9.289,9.3554,9.4648,9.5703,9.6758,9.75,9.7656,9.7695,9.7695,9.7695,9.7695,9.7695,9.7695,9.7695,9.7695,9.7695,9.7695,9.7695,9.7695,9.7695,9.7539,9.75,9.7031,9.6523,9.5351,9.457,9.4258,9.375,9.3125,9.2773,9.2656,9.2656,9.2656,9.2578,9.2578,9.2578,9.2578,9.2578,10.1905,10.1712,10.1673,10.1558,10.1404,10.1366,10.1327,10.1327,10.125,10.0788,10.025,10.0019,9.9019,9.7788,9.7442,9.7056,9.6403,9.6365,9.6365,9.6326,9.6288,9.6288,9.6288,9.6288,9.6288,9.6288,9.6288,9.6288,9.6288,9.6288,9.6249,9.6095,9.5289,9.4788,9.4933,9.3974,9.3782,9.4039,9.4257,9.4999,9.6299,9.6368,9.6758,9.75,9.7539,9.7148,9.6445,9.5625,9.5156,9.5039,9.5039,9.5156,9.4883,9.4844,9.4687,9.4023,9.3867,9.3437,9.2734,9.2539,9.2422,9.2304,9.2461,9.2304,9.2226,9.2304,9.2304,9.2304,9.2383,9.25,9.25,9.2656,9.2695,9.2578,9.2578,9.2617,9.2812,9.3437,9.4531,9.5937,9.6562,9.6875,9.7461,9.7695,9.7695,9.7695,9.7695,9.7695,9.7695,9.7695,9.7695,9.7773,9.7773,9.7734,9.7734,9.7734,9.7695,9.7656,9.7656,9.7422,9.7187,9.6367,9.5664,9.5234,9.4492,9.3867,9.3515,9.3437,9.3281,9.3242,9.2969,9.2851,9.289,9.289,9.2656,10.152,10.1443,10.1443,10.1404,10.1327,10.1289,10.1289,10.1289,10.1289,10.1173,10.0866,10.0327,9.9481,9.8442,9.7787,9.7094,9.6365,9.6788,9.6826,9.6403,9.6326,9.6326,9.6326,9.6288,9.6288,9.6288,9.6288,9.6288,9.6288,9.6288,9.6288,9.6134,9.5443,9.502,9.498,9.4174,9.3789,9.3971,9.4504,9.5221,9.5939,9.6527,9.7148,9.7617,9.7695,9.7539,9.7304,9.6523,9.582,9.5273,9.5195,9.5195,9.5195,9.5195,9.5078,9.4844,9.4804,9.4414,9.3633,9.3476,9.3242,9.2773,9.2617,9.2578,9.2578,9.2617,9.2617,9.2617,9.2578,9.2578,9.2695,9.3164,9.3242,9.2656,9.2578,9.2969,9.3594,9.4765,9.5781,9.6406,9.6992,9.7422,9.7617,9.7695,9.7695,9.7695,9.7695,9.7695,9.7734,9.7773,9.8008,9.8398,9.8164,9.8008,9.8164,9.8125,9.7851,9.7773,9.7695,9.7695,9.75,9.7226,9.6601,9.5937,9.5195,9.4687,9.4336,9.4179,9.4023,9.3984,9.3945,9.375,9.3515,9.332,9.3164,10.1289,10.1289,10.1289,10.1289,10.1289,10.1289,10.1289,10.1289,10.1289,10.1289,10.1173,10.075,10.0096,9.9288,9.8711,9.8018,9.7326,9.7787,9.771,9.7211,9.6826,9.6749,9.6711,9.6749,9.6557,9.6326,9.6288,9.6288,9.6288,9.6288,9.6288,9.6172,9.5712,9.5481,9.5443,9.4982,9.4712,9.4853,9.5312,9.5763,9.6215,9.6792,9.7265,9.7578,9.7656,9.7695,9.7656,9.7461,9.7031,9.6289,9.6133,9.6133,9.6133,9.6172,9.6015,9.5742,9.5625,9.5312,9.4531,9.4375,9.4179,9.3672,9.3554,9.3594,9.3515,9.3359,9.3086,9.3086,9.2773,9.2734,9.3086,9.3515,9.3711,9.3633,9.3633,9.3945,9.4804,9.582,9.6601,9.6953,9.7383,9.7617,9.7695,9.7695,9.7695,9.7695,9.7695,9.7929,9.8047,9.8203,9.8711,9.9101,9.9179,9.9023,9.8867,9.8554,9.8086,9.789,9.7695,9.7695,9.7617,9.7422,9.6992,9.6289,9.5586,9.5078,9.4765,9.4844,9.4804,9.4844,9.4883,9.457,9.4336,9.414,9.4023,10.1289,10.1289,10.1289,10.1289,10.1289,10.1289,10.1289,10.1289,10.1289,10.1289,10.1289,10.1212,10.0789,10.0173,9.9827,9.9327,9.8904,9.8826,9.8749,9.8442,9.8019,9.7711,9.7596,9.7441,9.7096,9.6711,9.6519,9.6519,9.6711,9.6557,9.6365,9.6442,9.6288,9.6249,9.6134,9.6249,9.6172,9.6248,9.6435,9.6583,9.6853,9.7177,9.7383,9.7422,9.7695,9.789,9.7969,9.8554,9.8594,9.789,9.7656,9.7578,9.7656,9.7734,9.7344,9.664,9.6562,9.6094,9.5508,9.5273,9.5156,9.4961,9.4922,9.5195,9.4883,9.4336,9.3984,9.3945,9.3398,9.3203,9.3828,9.4219,9.4531,9.5195,9.5195,9.5508,9.6289,9.6523,9.6914,9.7461,9.7695,9.7695,9.7695,9.7695,9.7734,9.7851,9.7929,9.8281,9.8828,9.9179,9.9531,9.9804,10.0039,9.9961,9.9804,9.9414,9.8984,9.8828,9.8476,9.8164,9.7851,9.7578,9.7461,9.6758,9.6172,9.5664,9.5508,9.5781,9.582,9.582,9.5664,9.539,9.5156,9.4961,9.4726,10.1289,10.1289,10.1289,10.1289,10.1289,10.1289,10.1289,10.1289,10.1289,10.1289,10.1289,10.1289,10.0866,10.0135,10.0135,9.9635,9.9173,9.9519,9.9365,9.8942,9.9327,9.8981,9.8404,9.7827,9.7787,9.7942,9.7442,9.7519,9.8057,9.7442,9.721,9.7171,9.6673,9.6365,9.6288,9.6403,9.6326,9.6365,9.6403,9.6557,9.6784,9.704,9.7186,9.7461,9.8242,9.8633,9.8711,9.9492,9.9531,9.875,9.8672,9.8359,9.789,9.8281,9.8203,9.75,9.7304,9.7031,9.6367,9.6172,9.5898,9.5273,9.5351,9.5195,9.5195,9.5,9.4844,9.4844,9.4609,9.457,9.4883,9.5429,9.6133,9.6758,9.6484,9.625,9.6562,9.7031,9.75,9.7656,9.7695,9.7695,9.7695,9.7773,9.7969,9.8437,9.8711,9.8984,9.9687,10.0,10.0273,10.0625,10.082,10.0781,10.0625,10.0234,9.9961,9.9883,9.9531,9.9023,9.8398,9.7695,9.7617,9.7344,9.707,9.6601,9.6836,9.7148,9.7031,9.6679,9.6484,9.6172,9.5937,9.5703,9.5351,10.1289,10.1289,10.1289,10.1289,10.1289,10.1289,10.1289,10.1289,10.1289,10.1289,10.1289,10.1289,10.1058,10.0635,10.0596,10.0366,9.9942,10.0366,10.0289,10.0058,10.0404,9.9904,9.898,9.8519,9.8673,9.8711,9.8288,9.8365,9.8634,9.8288,9.8057,9.7979,9.7595,9.7364,9.7441,9.7364,9.7326,9.7365,9.7326,9.7402,9.7556,9.7902,9.8163,9.8437,9.914,9.9648,10.0078,10.0273,10.0039,9.9648,9.9492,9.914,9.8398,9.8711,9.8594,9.7773,9.7695,9.7461,9.7148,9.6992,9.6797,9.6367,9.625,9.625,9.6211,9.5976,9.5742,9.5742,9.5429,9.5429,9.582,9.6523,9.7148,9.7461,9.7265,9.6992,9.6992,9.7422,9.7656,9.7695,9.7695,9.7695,9.7734,9.8008,9.8437,9.8906,9.9336,9.9922,10.0625,10.0781,10.1054,10.1445,10.164,10.1601,10.1406,10.1015,10.0625,10.0547,10.0273,9.9804,9.8945,9.8047,9.7773,9.7734,9.7734,9.7695,9.7695,9.7695,9.7539,9.7226,9.7109,9.6992,9.6758,9.6484,9.6133,10.1289,10.1289,10.1289,10.1289,10.1289,10.1289,10.1289,10.1289,10.1289,10.1289,10.1289,10.1289,10.125,10.1289,10.1173,10.125,10.1212,10.1135,10.1212,10.1096,10.1096,10.048,9.948,9.9634,9.9596,9.9327,9.9058,9.9058,9.9211,9.9096,9.8904,9.8865,9.8749,9.8711,9.8518,9.8634,9.8749,9.8596,9.8481,9.848,9.8595,9.8977,9.9279,9.9375,10.0078,10.082,10.125,10.1133,10.0664,10.0586,10.0508,10.0,9.9297,9.9179,9.8945,9.8281,9.8086,9.7969,9.7929,9.7851,9.7734,9.7656,9.7617,9.7695,9.7383,9.6953,9.6601,9.6601,9.5898,9.6054,9.6523,9.7304,9.7578,9.7656,9.7656,9.7656,9.7695,9.7695,9.7734,9.7812,9.7851,9.7851,9.8125,9.8594,9.9219,9.9883,10.0273,10.0781,10.1406,10.1719,10.2031,10.2422,10.25,10.2461,10.2148,10.1758,10.1406,10.1094,10.0859,10.0351,9.9492,9.8711,9.8164,9.7929,9.789,9.7812,9.7695,9.7695,9.7695,9.7656,9.7422,9.75,9.7578,9.7304,9.6992,10.1289,10.1289,10.1289,10.1289,10.1289,10.1289,10.1289,10.1289,10.1289,10.1289,10.1289,10.1289,10.1289,10.1289,10.1289,10.1289,10.1289,10.1289,10.1289,10.1289,10.1289,10.1173,10.0596,10.0404,10.0365,10.0404,10.0057,10.0134,10.0404,10.0057,9.9827,9.9711,9.9288,9.8827,9.8904,9.9019,9.8827,9.8788,9.8865,9.8981,9.9058,9.948,9.9785,9.9883,10.0781,10.1719,10.2422,10.2422,10.2344,10.2187,10.164,10.0937,10.0312,10.0586,10.0429,9.9687,9.9023,9.8984,9.9336,9.8594,9.8047,9.8515,9.8125,9.7695,9.7695,9.7539,9.7383,9.7422,9.7265,9.7109,9.7304,9.7539,9.7734,9.7773,9.7773,9.7773,9.7734,9.7734,9.8047,9.8476,9.8711,9.8945,9.957,9.9726,10.0273,10.0859,10.1289,10.1719,10.207,10.2461,10.2656,10.289,10.2851,10.2695,10.2578,10.2304,10.2109,10.1797,10.1523,10.125,10.039,9.9453,9.8984,9.8476,9.8086,9.7929,9.7695,9.7695,9.7695,9.7695,9.7695,9.7695,9.7695,9.7695,9.7695,10.1789,10.2404,10.1635,10.152,10.1827,10.1481,10.1289,10.1289,10.1289,10.1289,10.1289,10.1289,10.1289,10.1289,10.1289,10.1289,10.1289,10.1289,10.1289,10.1289,10.1289,10.1289,10.1289,10.0903,10.0903,10.125,10.0865,10.0981,10.1096,10.0903,10.0634,10.0634,10.0173,10.0096,9.9981,9.9981,10.0057,10.0019,9.9981,9.9981,10.0058,10.0481,10.0948,10.1133,10.1836,10.2461,10.2812,10.289,10.289,10.2773,10.2422,10.1797,10.1133,10.1328,10.1133,10.039,9.9961,9.9765,9.9844,9.9531,9.8984,9.8984,9.8554,9.8125,9.7812,9.7695,9.7695,9.7695,9.7656,9.7695,9.7695,9.7695,9.7812,9.8242,9.832,9.8437,9.875,9.8594,9.8437,9.8984,9.9336,9.9726,10.0156,10.0664,10.0937,10.1367,10.1992,10.2383,10.2422,10.2734,10.2773,10.289,10.289,10.289,10.289,10.2773,10.2734,10.2539,10.2344,10.2187,10.1758,10.0781,9.9844,9.9101,9.8242,9.789,9.7695,9.7695,9.7695,9.7734,9.7734,9.7695,9.7695,9.7773,9.7734,10.2404,10.3405,10.2174,10.2058,10.2482,10.1981,10.1673,10.152,10.152,10.1481,10.1289,10.1289,10.1289,10.1289,10.1289,10.1289,10.1289,10.1327,10.1366,10.1635,10.1635,10.1789,10.1866,10.1904,10.1866,10.1673,10.1327,10.1366,10.152,10.152,10.152,10.152,10.1712,10.1404,10.1327,10.1443,10.1289,10.1096,10.1019,10.1212,10.1327,10.1751,10.2035,10.2461,10.2929,10.2929,10.2969,10.289,10.289,10.289,10.289,10.25,10.2031,10.1758,10.1562,10.0781,10.0664,10.0703,10.082,10.0469,9.9883,9.9336,9.9023,9.8672,9.8125,9.7812,9.7695,9.7695,9.7695,9.7773,9.7851,9.8008,9.8437,9.8945,9.9179,9.957,9.9961,9.9687,9.9609,9.9609,10.0195,10.0664,10.1054,10.1484,10.1679,10.1914,10.25,10.289,10.289,10.289,10.289,10.289,10.289,10.289,10.289,10.289,10.289,10.289,10.2812,10.2617,10.2461,10.1562,10.039,9.914,9.8359,9.8086,9.7812,9.7695,9.7695,9.7734,9.7851,9.7929,9.789,9.7851,9.7851,10.2789,10.1827,10.2981,10.3135,10.2751,10.3175,10.2982,10.2482,10.2366,10.1943,10.1404,10.1327,10.1366,10.1327,10.1289,10.1327,10.1404,10.1558,10.1827,10.2289,10.2404,10.2635,10.3135,10.3135,10.3289,10.3058,10.2289,10.1866,10.2289,10.2404,10.2404,10.252,10.2982,10.2751,10.1981,10.1904,10.2058,10.1712,10.1597,10.1827,10.2212,10.2251,10.2294,10.2851,10.3437,10.3437,10.3008,10.289,10.289,10.289,10.289,10.2812,10.2656,10.2578,10.2461,10.2226,10.1679,10.1601,10.1953,10.1094,10.082,10.0664,9.9961,9.914,9.8711,9.8203,9.8086,9.7929,9.7969,9.8047,9.8711,9.8789,9.9219,9.9804,10.0117,10.0195,10.0469,10.0781,10.1015,10.1015,10.1328,10.1562,10.1875,10.2148,10.2265,10.2344,10.2656,10.289,10.289,10.289,10.289,10.289,10.289,10.289,10.289,10.289,10.289,10.289,10.2812,10.2539,10.2265,10.1836,10.0898,9.9883,9.9062,9.8672,9.8359,9.8047,9.8242,9.8672,9.8476,9.8242,9.8515,9.875,9.8359,10.2828,10.3251,10.3251,10.352,10.3866,10.3867,10.3674,10.3328,10.3251,10.3058,10.2597,10.2212,10.1981,10.1866,10.1443,10.152,10.1943,10.252,10.2867,10.3252,10.3289,10.3403,10.3941,10.3941,10.3905,10.3674,10.3058,10.2828,10.3251,10.3288,10.3249,10.3328,10.3752,10.3444,10.2904,10.302,10.3021,10.2635,10.2597,10.279,10.3291,10.3137,10.3366,10.3515,10.3789,10.3672,10.3086,10.289,10.289,10.289,10.289,10.289,10.289,10.2929,10.2929,10.2851,10.25,10.2383,10.2773,10.1992,10.1758,10.1445,10.0703,10.0156,9.9726,9.9336,9.8984,9.9023,9.9062,9.9179,9.9648,9.9648,10.0117,10.0742,10.0976,10.1172,10.1562,10.1992,10.2148,10.2187,10.2226,10.2344,10.2578,10.2773,10.2851,10.289,10.289,10.289,10.289,10.289,10.289,10.289,10.289,10.289,10.289,10.289,10.289,10.289,10.2851,10.2578,10.2461,10.2187,10.1758,10.1015,10.0312,9.9648,9.9414,9.9297,9.9453,9.9531,9.9414,9.9336,9.9531,9.957,9.9023,10.3328,10.4751,10.3789,10.4059,10.4903,10.4636,10.4287,10.4172,10.4134,10.402,10.3828,10.3174,10.2866,10.2712,10.2327,10.2251,10.2944,10.3598,10.3867,10.4137,10.4134,10.417,10.4362,10.4362,10.4557,10.4674,10.4482,10.4289,10.4135,10.4134,10.4134,10.4289,10.4252,10.4097,10.3941,10.3943,10.402,10.3905,10.3866,10.3906,10.4061,10.4686,10.4844,10.4414,10.4375,10.4101,10.3398,10.3281,10.3086,10.3047,10.3047,10.3125,10.2969,10.3086,10.3164,10.3125,10.3008,10.2929,10.289,10.2851,10.2422,10.2031,10.1719,10.1211,10.0703,10.0312,10.0156,10.0312,10.0234,10.0273,10.0469,10.0547,10.1015,10.1601,10.1914,10.2031,10.2461,10.2734,10.2695,10.2773,10.289,10.289,10.289,10.289,10.289,10.289,10.289,10.289,10.289,10.289,10.289,10.289,10.289,10.289,10.289,10.289,10.289,10.289,10.289,10.2773,10.2773,10.2773,10.2304,10.1836,10.1562,10.0976,10.0781,10.039,10.0273,10.0195,10.0273,10.0547,10.0898,10.0156,9.9179,10.5097,10.4174,10.5405,10.5636,10.5291,10.5751,10.5636,10.498,10.4941,10.4557,10.4134,10.3866,10.3712,10.3597,10.3635,10.3597,10.3789,10.402,10.4482,10.4943,10.498,10.5287,10.5903,10.6136,10.5828,10.5751,10.5867,10.5636,10.5174,10.498,10.498,10.5057,10.5443,10.5441,10.4403,10.471,10.4595,10.4054,10.398,10.4018,10.433,10.5845,10.5825,10.5195,10.5039,10.4922,10.4179,10.4023,10.3789,10.3242,10.3711,10.3633,10.3203,10.3672,10.3984,10.3828,10.3437,10.2929,10.3008,10.2929,10.2851,10.2461,10.2109,10.164,10.1367,10.0937,10.0625,10.0312,10.0429,10.0781,10.1328,10.1445,10.1914,10.2265,10.2578,10.2617,10.289,10.289,10.289,10.289,10.289,10.289,10.289,10.289,10.289,10.289,10.2929,10.2929,10.2969,10.2969,10.289,10.289,10.289,10.289,10.289,10.289,10.2969,10.2929,10.2929,10.2929,10.289,10.289,10.289,10.2539,10.2304,10.1914,10.1328,10.0976,10.0898,10.0976,10.1133,10.1719,10.2422,10.1172,9.9648,10.5674,10.4674,10.5366,10.5751,10.5867,10.6251,10.6213,10.5864,10.5826,10.5633,10.5249,10.4749,10.4326,10.4134,10.4328,10.4559,10.4674,10.502,10.5443,10.5713,10.5826,10.602,10.6251,10.6405,10.6405,10.6405,10.6367,10.6213,10.5905,10.5828,10.5826,10.5864,10.6174,10.6136,10.521,10.5595,10.5595,10.5441,10.5364,10.5403,10.5794,10.6476,10.6685,10.5664,10.5976,10.5625,10.5156,10.4922,10.4804,10.4453,10.4804,10.4804,10.4531,10.4726,10.4922,10.4922,10.4648,10.4179,10.3711,10.3242,10.3047,10.289,10.2539,10.2383,10.2226,10.1992,10.1719,10.1797,10.1797,10.1953,10.2226,10.2304,10.25,10.2812,10.3164,10.3086,10.3086,10.2929,10.289,10.289,10.2969,10.3164,10.3281,10.3242,10.3359,10.3476,10.3398,10.3242,10.3203,10.3164,10.3086,10.289,10.289,10.289,10.289,10.289,10.3008,10.3047,10.3047,10.3008,10.2929,10.289,10.3008,10.2969,10.2695,10.2226,10.1719,10.1758,10.1875,10.1953,10.2031,10.2422,10.2734,10.1992,10.0625,10.602,10.5443,10.5443,10.5828,10.6405,10.6405,10.6405,10.6405,10.6367,10.6367,10.6251,10.571,10.5095,10.4787,10.5174,10.5405,10.5484,10.6097,10.6328,10.6405,10.6405,10.6367,10.6405,10.6405,10.6405,10.6405,10.6405,10.6328,10.6367,10.6328,10.629,10.6405,10.6367,10.6367,10.6367,10.629,10.6213,10.6213,10.6213,10.6328,10.6561,10.6869,10.6842,10.664,10.6523,10.6367,10.5898,10.5781,10.5742,10.5429,10.5664,10.5664,10.539,10.5586,10.5781,10.5781,10.5664,10.5469,10.4844,10.4297,10.3554,10.3242,10.2969,10.2773,10.2812,10.289,10.289,10.2695,10.3047,10.3086,10.3242,10.3398,10.3711,10.3789,10.3789,10.3594,10.3554,10.3672,10.3828,10.4023,10.4062,10.3906,10.3906,10.375,10.3828,10.4023,10.3906,10.3672,10.3554,10.3515,10.3242,10.3047,10.3008,10.3125,10.3398,10.332,10.3281,10.3359,10.3398,10.3359,10.3437,10.332,10.3281,10.3164,10.3008,10.2734,10.2304,10.2617,10.289,10.2656,10.25,10.2695,10.2695,10.207,10.1445,10.6367,10.629,10.629,10.6328,10.6405,10.6405,10.6405,10.6405,10.6405,10.6405,10.6405,10.629,10.6136,10.6136,10.6059,10.6174,10.6251,10.6367,10.6405,10.6405,10.6405,10.6405,10.6405,10.6405,10.6405,10.6405,10.6405,10.6405,10.6444,10.6597,10.6482,10.6405,10.6405,10.6405,10.6405,10.6405,10.6405,10.6405,10.6405,10.6405,10.6521,10.6719,10.6921,10.6957,10.664,10.6406,10.6601,10.6601,10.6406,10.5898,10.6328,10.6406,10.6133,10.6406,10.6601,10.664,10.664,10.6523,10.6172,10.5469,10.4844,10.414,10.3594,10.3281,10.3398,10.3086,10.2969,10.3242,10.3828,10.4062,10.4336,10.4687,10.4804,10.4804,10.4648,10.4687,10.4687,10.4844,10.5,10.5234,10.5117,10.4765,10.4687,10.4531,10.4687,10.4883,10.4844,10.4648,10.414,10.3984,10.3515,10.3281,10.3203,10.3437,10.4062,10.414,10.4219,10.4414,10.4531,10.4375,10.4258,10.4062,10.3945,10.3437,10.3242,10.3086,10.289,10.289,10.289,10.289,10.289,10.289,10.2773,10.2344,10.164,10.6405,10.6405,10.6405,10.6405,10.6405,10.6405,10.6405,10.6405,10.6405,10.6405,10.6405,10.6405,10.6405,10.6405,10.6405,10.6405,10.6405,10.6405,10.6405,10.6405,10.6405,10.6405,10.6405,10.6482,10.6405,10.6482,10.6444,10.6405,10.6444,10.6944,10.6751,10.6597,10.6521,10.6405,10.6405,10.6521,10.6482,10.6444,10.6444,10.6405,10.6444,10.6674,10.6944,10.7131,10.7284,10.7226,10.7461,10.75,10.7304,10.7187,10.7344,10.7148,10.6953,10.7265,10.7383,10.7422,10.7422,10.7422,10.7187,10.6328,10.5351,10.5117,10.4687,10.4414,10.4297,10.4453,10.4492,10.4648,10.4726,10.4961,10.5078,10.5273,10.539,10.5469,10.5586,10.5664,10.5742,10.5859,10.5859,10.5937,10.5664,10.5312,10.5351,10.539,10.5586,10.5742,10.5703,10.5547,10.5039,10.4609,10.4219,10.4023,10.4023,10.4258,10.4844,10.5039,10.5156,10.5429,10.5703,10.539,10.5117,10.5039,10.4804,10.414,10.3594,10.3515,10.3359,10.3047,10.289,10.2929,10.2929,10.289,10.2734,10.2539,10.2109,10.6405,10.6405,10.6405,10.6405,10.6405,10.6405,10.6405,10.6405,10.6405,10.6405,10.6405,10.6405,10.6405,10.6405,10.6405,10.6405,10.6405,10.6405,10.6597,10.6636,10.6597,10.6751,10.6905,10.7021,10.7059,10.7021,10.7136,10.7251,10.7328,10.779,10.7521,10.7175,10.7021,10.7098,10.6905,10.7021,10.7021,10.6828,10.679,10.679,10.6828,10.6982,10.76,10.7903,10.8249,10.8515,10.8633,10.8633,10.8398,10.8203,10.8125,10.7969,10.7969,10.8008,10.8008,10.8008,10.8008,10.8008,10.7617,10.6836,10.5898,10.582,10.5469,10.539,10.5508,10.5508,10.5234,10.5351,10.5625,10.5859,10.5898,10.6172,10.6445,10.6679,10.664,10.6679,10.664,10.6719,10.6601,10.6562,10.6367,10.6445,10.6484,10.6562,10.6328,10.6406,10.6211,10.6093,10.5898,10.5508,10.5156,10.5078,10.5117,10.5429,10.5781,10.5859,10.6015,10.6601,10.6719,10.6328,10.6054,10.5976,10.5586,10.4883,10.4414,10.4101,10.3828,10.3594,10.3242,10.2929,10.2969,10.3008,10.289,10.2734,10.2773,10.6405,10.6405,10.6405,10.6405,10.6482,10.6405,10.6405,10.6405,10.6405,10.6405,10.6405,10.6405,10.6405,10.6405,10.6405,10.6482,10.6597,10.6597,10.6905,10.7408,10.7213,10.7559,10.7947,10.8059,10.7864,10.8639,10.8521,10.8406,10.8598,10.8829,10.8406,10.8136,10.8213,10.8332,10.7831,10.8409,10.837,10.7793,10.7677,10.7677,10.7677,10.7716,10.837,10.8946,10.9288,10.9531,10.9726,10.9531,10.9297,10.9218,10.8711,10.8515,10.8437,10.8398,10.832,10.8164,10.8125,10.8086,10.7969,10.7148,10.6953,10.6719,10.6328,10.6015,10.5703,10.5664,10.5859,10.6172,10.6367,10.664,10.6953,10.7265,10.75,10.7578,10.75,10.7461,10.7383,10.7383,10.7265,10.7148,10.7578,10.789,10.7851,10.7734,10.7304,10.7031,10.6797,10.664,10.6562,10.6484,10.6211,10.6211,10.625,10.6367,10.664,10.6679,10.6914,10.7539,10.7617,10.7148,10.6875,10.6758,10.6289,10.5625,10.5312,10.5078,10.4648,10.4219,10.3984,10.375,10.3203,10.3125,10.3008,10.3008,10.3086,10.6405,10.6405,10.6405,10.6751,10.7098,10.6636,10.6405,10.6405,10.6405,10.6405,10.6405,10.6405,10.6405,10.6405,10.6521,10.6751,10.7136,10.7251,10.7716,10.8332,10.8059,10.8367,10.8713,10.8829,10.871,10.8825,10.8902,10.9017,10.8863,10.944,10.9252,10.8944,10.9213,10.921,10.8748,10.8825,10.8671,10.8517,10.8482,10.8485,10.8485,10.8559,10.8867,10.9566,10.9803,11.0117,11.0508,11.0234,11.0156,11.0117,10.9648,10.9531,10.9531,10.9531,10.9336,10.9023,10.8867,10.8867,10.9023,10.8867,10.8672,10.7969,10.7304,10.707,10.7148,10.7187,10.7187,10.7109,10.7226,10.7461,10.7695,10.7734,10.7851,10.7851,10.7851,10.7851,10.7812,10.7851,10.7812,10.7773,10.8008,10.8086,10.8125,10.832,10.8047,10.8008,10.7851,10.7539,10.7422,10.75,10.7383,10.7383,10.7422,10.7422,10.7461,10.7344,10.7344,10.7734,10.7929,10.7773,10.7578,10.7422,10.7031,10.6445,10.6289,10.6054,10.5469,10.5,10.4922,10.4687,10.4258,10.3867,10.3789,10.3672,10.3554,10.6405,10.6444,10.6751,10.7136,10.76,10.7059,10.6944,10.7136,10.6982,10.6982,10.7175,10.7021,10.7059,10.7213,10.7328,10.7175,10.7754,10.8062,10.8213,10.8867,10.8863,10.9286,10.9598,10.9479,10.9671,10.9633,10.9786,10.9863,11.0017,11.0402,11.0325,11.0098,11.0056,11.0056,10.9863,10.994,10.9709,10.9556,10.9367,10.9329,10.9367,10.944,10.9671,11.015,11.0537,11.0781,11.0976,11.1015,11.0976,11.0976,11.082,11.0664,11.0664,11.0547,11.0312,10.9883,10.9765,10.9765,10.9883,11.0078,10.9726,10.9101,10.8672,10.8633,10.8593,10.8242,10.8203,10.8203,10.8203,10.8281,10.8398,10.8398,10.832,10.8359,10.8554,10.8593,10.8867,10.8906,10.8906,10.8828,10.8515,10.8476,10.8476,10.8593,10.8672,10.8828,10.8945,10.8593,10.8242,10.8242,10.8242,10.8242,10.8086,10.7929,10.7851,10.7812,10.7851,10.7969,10.8047,10.8125,10.7969,10.7734,10.75,10.7344,10.7148,10.6836,10.6172,10.5781,10.5625,10.5586,10.5508,10.5117,10.4765,10.4531,10.4336,10.6405,10.6521,10.7328,10.7675,10.7754,10.7947,10.8332,10.8755,10.8024,10.8062,10.8796,10.7867,10.7905,10.8636,10.879,10.8482,10.8216,10.8675,10.906,10.921,10.9436,11.0209,11.0594,11.0555,11.0594,11.1055,11.1252,11.0944,11.1406,11.1252,11.1252,11.1137,11.0632,11.0748,11.094,11.0978,11.0709,11.0363,11.0209,11.0252,11.0209,11.0248,11.0632,11.1111,11.1496,11.1778,11.1875,11.1836,11.1758,11.1601,11.1289,11.0937,11.0781,11.0703,11.0703,11.0664,11.0664,11.0625,11.0703,11.0859,11.0976,11.0625,10.9922,11.0039,10.9804,10.9218,10.9062,10.9023,10.8984,10.9062,10.914,10.9062,10.8984,10.9218,10.9531,10.9804,11.0195,11.0273,11.0273,11.0039,10.957,10.9414,10.9336,10.9375,10.9492,10.9648,10.9726,10.9414,10.9101,10.8789,10.8789,10.875,10.8593,10.8281,10.8281,10.8476,10.8164,10.8203,10.8281,10.8359,10.8203,10.8047,10.7812,10.7734,10.789,10.7578,10.6953,10.6484,10.6211,10.625,10.6484,10.6133,10.5664,10.5508,10.5312,10.6405,10.6482,10.7328,10.8021,10.8675,10.9867,10.9906,10.8863,10.8056,10.8136,10.8873,10.8059,10.8329,10.8902,10.8906,10.9136,10.9409,10.9794,11.0294,11.0444,11.044,11.0978,11.1214,11.1252,11.1329,11.1406,11.1522,11.1522,11.1483,11.1522,11.1522,11.1406,11.1175,11.1329,11.1406,11.1522,11.1291,11.1137,11.0978,11.0978,11.1055,11.1055,11.1445,11.1598,11.1906,11.2097,11.202,11.2364,11.2343,11.2265,11.2422,11.2422,11.2461,11.2422,11.2343,11.1562,11.1523,11.1562,11.164,11.2109,11.2343,11.2109,11.1523,11.0898,11.0625,11.0234,10.9922,10.9883,10.9804,10.9843,10.9961,10.9922,11.0039,11.0351,11.0547,11.0625,11.0976,11.1093,11.1054,11.0742,11.0273,11.0273,11.0234,11.0234,11.0312,11.0508,11.0547,11.0312,10.9961,10.9687,10.9414,10.9375,10.9375,10.9179,10.9258,10.9453,10.8867,10.8437,10.8672,10.8711,10.8476,10.832,10.8125,10.8047,10.8086,10.8008,10.7734,10.7344,10.6953,10.7265,10.7461,10.7031,10.664,10.6484,10.6133,10.6597,10.7021,10.7829,10.8829,11.0021,11.106,11.0825,10.9863,10.9056,10.9136,10.9758,10.9101,10.8944,10.944,10.9829,10.9867,10.956,11.0371,11.0794,11.0679,11.1368,11.1445,11.1522,11.1522,11.1483,11.1522,11.1522,11.1522,11.1522,11.1522,11.1522,11.1522,11.1522,11.1522,11.1522,11.1522,11.1522,11.1483,11.1483,11.1522,11.1598,11.1752,11.1791,11.1675,11.1906,11.2022,11.1991,11.25,11.2754,11.271,11.2966,11.3203,11.3125,11.3047,11.3086,11.2422,11.2422,11.2422,11.2461,11.2812,11.3086,11.3086,11.2695,11.2265,11.1562,11.1054,11.0937,11.0898,11.0703,11.0625,11.0742,11.0898,11.125,11.1562,11.1445,11.1328,11.1484,11.164,11.1484,11.1211,11.1093,11.1133,11.1093,11.1133,11.1328,11.1758,11.1953,11.1875,11.1289,11.0664,11.0351,11.0117,11.0195,11.0195,11.0312,11.0273,10.9843,10.9492,10.9648,10.9531,10.9062,10.8945,10.9023,10.8672,10.8203,10.8086,10.789,10.7969,10.7773,10.8008,10.8008,10.7656,10.7344,10.7304,10.6875,10.6982,10.7752,10.8636,10.9906,11.1406,11.1483,11.1445,11.1445,11.0555,11.0675,11.1144,11.0525,11.0098,11.0367,11.0829,11.0444,11.0329,11.0791,11.1025,11.041,11.1175,11.1522,11.1522,11.1522,11.1522,11.1522,11.1522,11.1522,11.1522,11.1522,11.1522,11.1522,11.1522,11.1522,11.1522,11.1522,11.1598,11.1829,11.1791,11.1791,11.1868,11.2099,11.2329,11.1906,11.2099,11.2368,11.2252,11.2453,11.2911,11.2796,11.2812,11.31,11.3008,11.2929,11.3008,11.3125,11.3008,11.2968,11.2968,11.3125,11.3164,11.3203,11.3164,11.2968,11.2383,11.1875,11.1797,11.1836,11.1718,11.1679,11.1797,11.1758,11.1953,11.2226,11.2265,11.2265,11.2383,11.2461,11.2304,11.2109,11.1992,11.1992,11.1992,11.1992,11.2109,11.2773,11.2929,11.2851,11.2539,11.1718,11.1367,11.1054,11.125,11.1328,11.1015,11.0937,11.0781,11.0664,11.0625,11.039,10.9922,10.9922,11.0078,10.9297,10.8476,10.8164,10.8008,10.8008,10.8008,10.8008,10.8008,10.8008,10.7929,10.7851,10.7617,10.7521,10.7867,10.9294,11.0521,11.1445,11.1522,11.1522,11.1483,11.1329,11.1291,11.1333,11.0675,11.056,11.1021,11.1291,11.1021,11.1021,11.1021,11.1291,11.1175,11.1445,11.1522,11.1522,11.1522,11.1522,11.1522,11.1522,11.1522,11.1522,11.1522,11.1522,11.1522,11.1522,11.1522,11.1522,11.1522,11.1714,11.2175,11.2252,11.2406,11.2599,11.206,11.1829,11.2017,11.2363,11.2329,11.2252,11.2291,11.2714,11.2863,11.2637,11.2647,11.2734,11.2773,11.2968,11.3125,11.3203,11.3203,11.3203,11.3203,11.3203,11.3203,11.3203,11.3203,11.3008,11.2734,11.2617,11.2695,11.2734,11.2695,11.2695,11.2578,11.2539,11.2773,11.3008,11.3086,11.3203,11.3125,11.3047,11.2968,11.2851,11.2812,11.2812,11.2929,11.3008,11.3086,11.3125,11.3125,11.3086,11.2617,11.25,11.2304,11.2539,11.2461,11.2031,11.1758,11.164,11.1445,11.1367,11.1093,11.0781,11.0547,11.0312,10.9414,10.8672,10.8359,10.8125,10.8008,10.8008,10.8008,10.8008,10.8008,10.8008,10.7929,10.789,10.7559,10.8406,11.006,11.1021,11.1483,11.1522,11.1522,11.1522,11.1522,11.1522,11.1483,11.1021,11.0868,11.1137,11.1291,11.1214,11.1175,11.1368,11.1445,11.1522,11.1522,11.1522,11.1522,11.1522,11.1522,11.1522,11.1522,11.1522,11.1522,11.1522,11.1522,11.1522,11.1522,11.1522,11.1522,11.156,11.1945,11.2637,11.2753,11.3137,11.3599,11.3407,11.2753,11.2863,11.2983,11.2834,11.2483,11.256,11.2901,11.2747,11.2175,11.231,11.2484,11.2656,11.2851,11.3086,11.3203,11.3203,11.3203,11.3203,11.3203,11.3203,11.3203,11.3203,11.3203,11.2929,11.2929,11.3008,11.3008,11.3008,11.3008,11.2929,11.289,11.3047,11.3125,11.3164,11.3203,11.3164,11.3125,11.3125,11.3047,11.3047,11.3164,11.3633,11.3633,11.3281,11.332,11.3398,11.3359,11.332,11.3281,11.3242,11.332,11.3203,11.2734,11.2578,11.2617,11.2383,11.207,11.2109,11.1914,11.1093,11.0429,10.9883,10.9218,10.8554,10.832,10.8203,10.8047,10.8008,10.8008,10.8008,10.8008,10.8008,10.7969,10.7559,10.9213,11.0791,11.1522,11.1522,11.1522,11.1522,11.1522,11.1522,11.1522,11.1522,11.1483,11.1021,11.0906,11.106,11.0791,11.0829,11.1291,11.1483,11.1522,11.1522,11.1522,11.1522,11.1522,11.1522,11.1522,11.1522,11.1522,11.1522,11.1522,11.1522,11.1522,11.1522,11.1522,11.1522,11.1752,11.2175,11.2901,11.3401,11.4093,11.4753,11.5253,11.4214,11.3945,11.4066,11.3873,11.3368,11.3099,11.3445,11.2868,11.2022,11.1997,11.2202,11.2403,11.2734,11.2929,11.3047,11.3125,11.3164,11.3203,11.3203,11.3203,11.3203,11.3203,11.3242,11.3242,11.3242,11.3203,11.3242,11.3203,11.3203,11.3203,11.3203,11.3281,11.3281,11.3281,11.3281,11.3359,11.3398,11.3359,11.3242,11.3242,11.3672,11.414,11.414,11.3789,11.3672,11.3672,11.3672,11.3633,11.3593,11.3554,11.3554,11.3398,11.3203,11.3086,11.3047,11.2968,11.2695,11.3008,11.2929,11.1875,11.1133,11.0742,11.0078,10.9101,10.8633,10.8476,10.8281,10.8203,10.8359,10.8437,10.8008,10.8008,10.8008,10.8444,11.0021,11.1098,11.1522,11.1522,11.1522,11.1522,11.1522,11.1522,11.1522,11.1522,11.1522,11.1329,11.1252,11.1368,11.1291,11.1214,11.1445,11.1483,11.1522,11.1522,11.1522,11.1522,11.1522,11.1522,11.1522,11.1522,11.1522,11.1522,11.1522,11.1522,11.1522,11.1522,11.156,11.1598,11.1983,11.2637,11.3363,11.4247,11.4939,11.533,11.5445,11.4785,11.4522,11.4373,11.4484,11.433,11.356,11.3522,11.3093,11.2329,11.1945,11.1963,11.2153,11.2415,11.2734,11.2851,11.2929,11.3008,11.3164,11.3164,11.3125,11.3203,11.3359,11.3359,11.3359,11.3359,11.3359,11.332,11.3203,11.3203,11.3203,11.3203,11.3515,11.3672,11.3633,11.3633,11.3906,11.4101,11.3789,11.3476,11.3711,11.414,11.457,11.4922,11.4687,11.4609,11.4609,11.4414,11.4218,11.4023,11.3906,11.3828,11.3593,11.3359,11.3203,11.3125,11.3164,11.3203,11.3203,11.2968,11.2383,11.1758,11.1328,11.0468,10.9492,10.914,10.9062,10.8789,10.875,10.8945,10.8945,10.8437,10.8242,10.8476]},{"header":{"parameterUnit":"m.s-1","parameterCategory":1,"la1":31.0,"la2":29.5877,"lo1":-88.7671,"lo2":-86.6584,"dy":0.0162,"dx":0.0185,"nx":115,"ny":88,"refTime":"2026-04-30T00:00:00:Z","depth":0,"parameterNumber":3,"parameterNumberName":"V-component_of_WINDS"},"data":[0.0,0.0,0.0,0.0,0.0,0.0,0.0,0.0,0.0,0.0,0.0,0.0,0.0,0.0,0.0,0.0,0.0,0.0,0.0,0.0,0.0,0.0,0.0,0.0,0.0,0.0,0.0,0.0,0.0,0.0,0.0,0.0,0.0,0.0,0.0,0.0,0.0,0.0,0.0,0.0,0.0,0.0,0.0,0.0,0.0,0.0,0.0,0.0,0.0,0.0,0.0,0.0,0.0,0.0,0.0,0.0,0.0,0.0,0.0,0.0,0.0,0.0,0.0,0.0,0.0,0.0,0.0,0.0,0.0,0.0,0.0,0.0,0.0,0.0,0.0,0.0,0.0,0.0,0.0,0.0,0.0,0.0,0.0,0.0,0.0,0.0,0.0,0.0,0.0,0.0,0.0,0.0,0.0,0.0,0.0,0.0,0.0,0.0,0.0,0.0,0.0,0.0,0.0,0.0,0.0,0.0,0.0,0.0,0.0,0.0,0.0,0.0,0.0,0.0,0.0,0.0,0.0,0.0,0.0,0.0,0.0,0.0,0.0,0.0,0.0,0.0,0.0,0.0,0.0,0.0,0.0,0.0,0.0,0.0,0.0,0.0,0.0,0.0,0.0,0.0,0.0,0.0,0.0,0.0,0.0,0.0,0.0,0.0,0.0,0.0,0.0,0.0,0.0,0.0,0.0,0.0,0.0,0.0,0.0,0.0,0.0,0.0,0.0,0.0,0.0,0.0,0.0,0.0,0.0,0.0,0.0,0.0,0.0,0.0,0.0,0.0,0.0,0.0,0.0,0.0,0.0,0.0,0.0,0.0,0.0,0.0,0.0,0.0,0.0,0.0,0.0,0.0,0.0,0.0,0.0,0.0,0.0,0.0,0.0,0.0,0.0,0.0,0.0,0.0,0.0,0.0,0.0,0.0,0.0,0.0,0.0,0.0,0.0,0.0,0.0,0.0,0.0,0.0,0.0,0.0,0.0,0.0,0.0,0.0,0.0,0.0,0.0,0.0,0.0,0.0,0.0,0.0,0.0,0.0,0.0,0.0,0.0,0.0,0.0,0.0,0.0,0.0,0.0,0.0,0.0,0.0,0.0,0.0,0.0,0.0,0.0,0.0,0.0,0.0,0.0,0.0,0.0,0.0,0.0,0.0,0.0,0.0,0.0,0.0,0.0,0.0,0.0,0.0,0.0,0.0,0.0,0.0,0.0,0.0,0.0,0.0,0.0,0.0,0.0,0.0,0.0,0.0,0.0,0.0,0.0,0.0,0.0,0.0,0.0,0.0,0.0,0.0,0.0,0.0,0.0,0.0,0.0,0.0,0.0,0.0,0.0,0.0,0.0,0.0,0.0,0.0,0.0,0.0,0.0,0.0,0.0,0.0,0.0,0.0,0.0,0.0,0.0,0.0,0.0,0.0,0.0,0.0,0.0,0.0,0.0,0.0,0.0,0.0,0.0,0.0,0.0,0.0,0.0,0.0,0.0,0.0,0.0,0.0,0.0,0.0,0.0,0.0,0.0,0.0,0.0,0.0,0.0,0.0,0.0,0.0,0.0,0.0,0.0,0.0,0.0,0.0,0.0,0.0,0.0,0.0,0.0,0.0,0.0,0.0,0.0,0.0,0.0,0.0,0.0,0.0,0.0,0.0,0.0,0.0,0.0,0.0,0.0,0.0,0.0,0.0,0.0,0.0,0.0,0.0,0.0,0.0,0.0,0.0,0.0,0.0,0.0,0.0,0.0,0.0,0.0,0.0,0.0,0.0,0.0,0.0,0.0,0.0,0.0,0.0,0.0,0.0,0.0,0.0,0.0,0.0,0.0,0.0,0.0,0.0,0.0,0.0,0.0,0.0,0.0,0.0,0.0,0.0,0.0,0.0,0.0,0.0,0.0,0.0,0.0,0.0,0.0,0.0,0.0,0.0,0.0,0.0,0.0,0.0,0.0,0.0,0.0,0.0,0.0,0.0,0.0,0.0,0.0,0.0,0.0,0.0,0.0,0.0,0.0,0.0,0.0,0.0,0.0,0.0,0.0,0.0,0.0,0.0,0.0,0.0,0.0,0.0,0.0,0.0,0.0,0.0,0.0,0.0,0.0,0.0,0.0,0.0,0.0,0.0,0.0,0.0,0.0,0.0,0.0,0.0,0.0,0.0,0.0,0.0,0.0,0.0,0.0,0.0,0.0,0.0,0.0,0.0,0.0,0.0,0.0,0.0,0.0,0.0,0.0,0.0,0.0,0.0,0.0,0.0,0.0,0.0,0.0,0.0,0.0,0.0,0.0,0.0,0.0,0.0,0.0,0.0,0.0,0.0,0.0,0.0,0.0,0.0,0.0,0.0,0.0,0.0,0.0,0.0,0.0,0.0,0.0,0.0,0.0,0.0,0.0,0.0,0.0,0.0,0.0,0.0,0.0,0.0,0.0,0.0,0.0,0.0,0.0,0.0,0.0,0.0,0.0,0.0,0.0,0.0,0.0,0.0,0.0,0.0,0.0,0.0,0.0,0.0,0.0,0.0,0.0,0.0,0.0,0.0,0.0,0.0,0.0,0.0,0.0,0.0,0.0,0.0,0.0,0.0,0.0,0.0,0.0,0.0,0.0,0.0,0.0,0.0,0.0,0.0,0.0,0.0,0.0,0.0,0.0,0.0,0.0,0.0,0.0,0.0,0.0,0.0,0.0,0.0,0.0,0.0,0.0,0.0,0.0,0.0,0.0,0.0,0.0,0.0,0.0,0.0,0.0,0.0,0.0,0.0,0.0,0.0,0.0,0.0,0.0,0.0,0.0,0.0,0.0,0.0,0.0,0.0,0.0,0.0,0.0,0.0,0.0,0.0,0.0,0.0,0.0,0.0,0.0,0.0,0.0,0.0,0.0,0.0,0.0,0.0,0.0,0.0,0.0,0.0,0.0,0.0,0.0,0.0,0.0,0.0,0.0,0.0,0.0,0.0,0.0,0.0,0.0,0.0,0.0,0.0,0.0,0.0,0.0,0.0,0.0,0.0,0.0,0.0,0.0,0.0,0.0,0.0,0.0,0.0,0.0,0.0,0.0,0.0,0.0,0.0,0.0,0.0,0.0,0.0,0.0,0.0,0.0,0.0,0.0,0.0,0.0,0.0,0.0,0.0,0.0,0.0,0.0,0.0,0.0,0.0,0.0,0.0,0.0,0.0,0.0,0.0,0.0,0.0,0.0,0.0,0.0,0.0,0.0,0.0,0.0,0.0,0.0,0.0,0.0,0.0,0.0,0.0,0.0,0.0,0.0,0.0,0.0,0.0,0.0,0.0,0.0,0.0,0.0,0.0,0.0,0.0,0.0,0.0,0.0,0.0,0.0,0.0,0.0,0.0,0.0,0.0,0.0,0.0,0.0,0.0,0.0,0.0,0.0,0.0,0.0,0.0,0.0,0.0,0.0,0.0,0.0,0.0,0.0,0.0,0.0,0.0,0.0,0.0,0.0,0.0,0.0,0.0,0.0,0.0,0.0,0.0,0.0,0.0,0.0,0.0,0.0,0.0,0.0,0.0,0.0,0.0,0.0,0.0,0.0,0.0,0.0,0.0,0.0,0.0,0.0,0.0,0.0,0.0,0.0,0.0,0.0,0.0,0.0,0.0,0.0,0.0,0.0,0.0,0.0,0.0,0.0,0.0,0.0,0.0,0.0,0.0,0.0,0.0,0.0,0.0,0.0,0.0,0.0,0.0,0.0,0.0,0.0,0.0,0.0,0.0,0.0,0.0,0.0,0.0,0.0,0.0,0.0,0.0,0.0,0.0,0.0,0.0,0.0,0.0,0.0,0.0,0.0,0.0,0.0,0.0,0.0,0.0,0.0,0.0,0.0,0.0,0.0,0.0,0.0,0.0,0.0,0.0,0.0,0.0,0.0,0.0,0.0,0.0,0.0,0.0,0.0,0.0,0.0,0.0,0.0,0.0,0.0,0.0,0.0,0.0,0.0,0.0,0.0,0.0,0.0,0.0,0.0,0.0,0.0,0.0,0.0,0.0,0.0,0.0,0.0,0.0,0.0,0.0,0.0,0.0,0.0,0.0,0.0,0.0,0.0,0.0,0.0,0.0,0.0,0.0,0.0,0.0,0.0,0.0,0.0,0.0,0.0,0.0,0.0,0.0,0.0,0.0,0.0,0.0,0.0,0.0,0.0,0.0,0.0,0.0,0.0,0.0,0.0,0.0,0.0,0.0,0.0,0.0,0.0,0.0,0.0,0.0,0.0,0.0,0.0,0.0,0.0,0.0,0.0,0.0,0.0,0.0,0.0,0.0,0.0,0.0,0.0,0.0,0.0,0.0,0.0,0.0,0.0,0.0,0.0,0.0,0.0,0.0,0.0,0.0,0.0,0.0,0.0,0.0,0.0,0.0,0.0,0.0,0.0,0.0,0.0,0.0,0.0,0.0,0.0,0.0,0.0,0.0,0.0,0.0,0.0,0.0,0.0,0.0,0.0,0.0,0.0,0.0,0.0,0.0,0.0,0.0,0.0,0.0,0.0,0.0,0.0,0.0,0.0,0.0,0.0,0.0,0.0,0.0,0.0,0.0,0.0,0.0,0.0,0.0,0.0,0.0,0.0,0.0,0.0,0.0,0.0,0.0,0.0,0.0,0.0,0.0,0.0,0.0,0.0,0.0,0.0,0.0,0.0,0.0,0.0,0.0,0.0,0.0,0.0,0.0,0.0,0.0,0.0,0.0,0.0,0.0,0.0,0.0,0.0,0.0,0.0,0.0,0.0,0.0,0.0,0.0,0.0,0.0,0.0,0.0,0.0,0.0,0.0,0.0,0.0,0.0,0.0,0.0,0.0,0.0,0.0,0.0,0.0,0.0,0.0,0.0,0.0,0.0,0.0,0.0,0.0,0.0,0.0,0.0,0.0,0.0,0.0,0.0,0.0,0.0,0.0,0.0,0.0,0.0,0.0,0.0,0.0,0.0,0.0,0.0,0.0,0.0,0.0,0.0,0.0,0.0,0.0,0.0,0.0,0.0,0.0,0.0,0.0,0.0,0.0,0.0,0.0,0.0,0.0,0.0,0.0,0.0,0.0,0.0,0.0,0.0,0.0,0.0,0.0,0.0,0.0,0.0,0.0,0.0,0.0,0.0,0.0,0.0,0.0,0.0,0.0,0.0,0.0,0.0,0.0,0.0,0.0,0.0,0.0,0.0,0.0,0.0,0.0,0.0,0.0,0.0,0.0,0.0,0.0,0.0,0.0,0.0,0.0,0.0,0.0,0.0,0.0,0.0,0.0,0.0,0.0,0.0,0.0,0.0,0.0,0.0,0.0,0.0,0.0,0.0,0.0,0.0,0.0,0.0,0.0,0.0,0.0,0.0,0.0,0.0,0.0,0.0,0.0,0.0,0.0,0.0,0.0,0.0,0.0,0.0,0.0,0.0,0.0,0.0,0.0,0.0,0.0,0.0,0.0,0.0,0.0,0.0,0.0,0.0,0.0,0.0,0.0,0.0,0.0,0.0,0.0,0.0,0.0,0.0,0.0,0.0,0.0,0.0,0.0,0.0,0.0,0.0,0.0,0.0,0.0,0.0,0.0,0.0,0.0,0.0,0.0,0.0,0.0,0.0,0.0,0.0,0.0,0.0,0.0,0.0,0.0,0.0,0.0,0.0,0.0,0.0,0.0,0.0,0.0,0.0,0.0,0.0,0.0,0.0,0.0,0.0,0.0,0.0,0.0,0.0,0.0,0.0,0.0,0.0,0.0,0.0,0.0,0.0,0.0,0.0,0.0,0.0,0.0,0.0,0.0,0.0,0.0,0.0,0.0,0.0,0.0,0.0,0.0,0.0,0.0,0.0,0.0,0.0,0.0,0.0,0.0,0.0,0.0,0.0,0.0,0.0,0.0,0.0,0.0,0.0,0.0,0.0,0.0,0.0,0.0,0.0,0.0,0.0,0.0,0.0,0.0,0.0,0.0,0.0,0.0,0.0,0.0,0.0,0.0,0.0,0.0,0.0,0.0,0.0,0.0,0.0,0.0,0.0,0.0,0.0,0.0,0.0,0.0,0.0,0.0,0.0,0.0,0.0,0.0,0.0,0.0,0.0,0.0,0.0,0.0,0.0,0.0,0.0,0.0,0.0,0.0,0.0,0.0,0.0,0.0,0.0,0.0,0.0,0.0,0.0,0.0,0.0,0.0,0.0,0.0,0.0,0.0,0.0,0.0,0.0,0.0,0.0,0.0,0.0,0.0,0.0,0.0,0.0,0.0,0.0,0.0,0.0,0.0,0.0,0.0,0.0,0.0,0.0,0.0,0.0,0.0,0.0,0.0,0.0,0.0,0.0,0.0,0.0,0.0,0.0,0.0,0.0,0.0,0.0,0.0,0.0,0.0,0.0,0.0,0.0,0.0,0.0,0.0,0.0,0.0,0.0,0.0,0.0,0.0,0.0,0.0,0.0,0.0,0.0,0.0,0.0,0.0,0.0,0.0,0.0,0.0,0.0,0.0,0.0,0.0,0.0,0.0,0.0,0.0,0.0,0.0,0.0,0.0,0.0,0.0,0.0,0.0,0.0,0.0,0.0,0.0,0.0,0.0,0.0,0.0,0.0,0.0,0.0,0.0,0.0,0.0,0.0,0.0,0.0,0.0,0.0,0.0,0.0,0.0,0.0,0.0,0.0,0.0,0.0,0.0,0.0,0.0,0.0,0.0,0.0,0.0,0.0,0.0,0.0,0.0,0.0,0.0,0.0,0.0,0.0,0.0,0.0,0.0,0.0,0.0,0.0,0.0,0.0,0.0,0.0,0.0,0.0,0.0,0.0,0.0,0.0,0.0,0.0,0.0,0.0,0.0,0.0,0.0,0.0,0.0,0.0,0.0,0.0,0.0,0.0,0.0,0.0,0.0,0.0,0.0,0.0,0.0,0.0,0.0,0.0,0.0,0.0,0.0,0.0,0.0,0.0,0.0,0.0,0.0,0.0,0.0,0.0,0.0,0.0,0.0,0.0,0.0,0.0,0.0,0.0,0.0,0.0,0.0,0.0,0.0,0.0,0.0,0.0,0.0,0.0,0.0,0.0,0.0,0.0,0.0,0.0,0.0,0.0,0.0,0.0,0.0,0.0,0.0,0.0,0.0,0.0,0.0,0.0,0.0,0.0,0.0,0.0,0.0,0.0,0.0,0.0,0.0,0.0,0.0,0.0,0.0,0.0,0.0,0.0,0.0,0.0,0.0,0.0,0.0,0.0,0.0,0.0,0.0,0.0,0.0,0.0,0.0,0.0,0.0,0.0,0.0,0.0,0.0,0.0,0.0,0.0,0.0,0.0,0.0,0.0,0.0,0.0,0.0,0.0,0.0,0.0,0.0,0.0,0.0,0.0,0.0,0.0,0.0,0.0,0.0,0.0,0.0,0.0,0.0,0.0,0.0,0.0,0.0,0.0,0.0,0.0,0.0,0.0,0.0,0.0,0.0,0.0,0.0,0.0,0.0,0.0,0.0,0.0,0.0,0.0,0.0,0.0,0.0,0.0,0.0,0.0,0.0,0.0,0.0,0.0,0.0,0.0,0.0,0.0,0.0,0.0,0.0,0.0,0.0,0.0,0.0,0.0,0.0,0.0,0.0,0.0,0.0,0.0,0.0,0.0,0.0,0.0,0.0,0.0,0.0,0.0,0.0,0.0,0.0,0.0,0.0,0.0,0.0,0.0,0.0,0.0,0.0,0.0,0.0,0.0,0.0,0.0,0.0,0.0,0.0,0.0,0.0,0.0,0.0,0.0,0.0,0.0,0.0,0.0,0.0,0.0,0.0,0.0,0.0,0.0,0.0,0.0,0.0,0.0,0.0,0.0,0.0,0.0,0.0,0.0,0.0,0.0,0.0,0.0,0.0,0.0,0.0,0.0,0.0,0.0,0.0,0.0,0.0,0.0,0.0,0.0,0.0,0.0,0.0,0.0,0.0,0.0,0.0,0.0,0.0,0.0,0.0,0.0,0.0,0.0,0.0,0.0,0.0,0.0,0.0,0.0,0.0,0.0,0.0,0.0,0.0,0.0,0.0,0.0,0.0,0.0,0.0,0.0,0.0,0.0,0.0,0.0,0.0,0.0,0.0,0.0,0.0,0.0,0.0,0.0,0.0,0.0,0.0,0.0,0.0,0.0,0.0,0.0,0.0,0.0,0.0,0.0,0.0,0.0,0.0,0.0,0.0,0.0,0.0,0.0,0.0,0.0,0.0,0.0,0.0,0.0,0.0,0.0,0.0,0.0,0.0,0.0,0.0,0.0,0.0,0.0,0.0,0.0,0.0,0.0,0.0,0.0,0.0,0.0,0.0,0.0,0.0,0.0,0.0,0.0,0.0,0.0,0.0,0.0,0.0,0.0,0.0,0.0,0.0,0.0,0.0,0.0,0.0,0.0,0.0,0.0,0.0,0.0,0.0,0.0,0.0,0.0,0.0,0.0,0.0,0.0,0.0,0.0,0.0,0.0,0.0,0.0,0.0,0.0,0.0,0.0,0.0,0.0,0.0,0.0,0.0,0.0,0.0,0.0,0.0,0.0,0.0,0.0,0.0,0.0,0.0,0.0,0.0,0.0,0.0,0.0,0.0,0.0,0.0,0.0,0.0,0.0,0.0,0.0,0.0,0.0,0.0,0.0,0.0,0.0,0.0,0.0,0.0,0.0,0.0,0.0,0.0,0.0,0.0,0.0,0.0,0.0,0.0,0.0,0.0,0.0,0.0,0.0,0.0,0.0,0.0,0.0,0.0,0.0,0.0,0.0,0.0,0.0,0.0,0.0,0.0,0.0,0.0,0.0,0.0,0.0,0.0,0.0,0.0,0.0,0.0,0.0,0.0,0.0,0.0,0.0,0.0,0.0,0.0,0.0,0.0,0.0,0.0,0.0,0.0,0.0,0.0,0.0,0.0,0.0,0.0,0.0,0.0,0.0,0.0,0.0,0.0,0.0,0.0,0.0,0.0,0.0,0.0,0.0,0.0,0.0,0.0,0.0,0.0,0.0,0.0,0.0,0.0,0.0,0.0,0.0,0.0,0.0,0.0,0.0,0.0,0.0,0.0,0.0,0.0,0.0,0.0,0.0,0.0,0.0,0.0,0.0,0.0,0.0,0.0,0.0,0.0,0.0,0.0,0.0,0.0,0.0,0.0,0.0,0.0,0.0,0.0,0.0,0.0,0.0,0.0,0.0,0.0,0.0,0.0,0.0,0.0,0.0,0.0,0.0,0.0,0.0,0.0,0.0,0.0,0.0,0.0,0.0,0.0,0.0,0.0,0.0,0.0,0.0,0.0,0.0,0.0,0.0,0.0,0.0,0.0,0.0,0.0,0.0,0.0,0.0,0.0,0.0,0.0,0.0,0.0,0.0,0.0,0.0,0.0,0.0,0.0,0.0,0.0,0.0,0.0,0.0,0.0,0.0,0.0,0.0,0.0,0.0,0.0,0.0,0.0,0.0,0.0,0.0,0.0,0.0,0.0,0.0,0.0,0.0,0.0,0.0,0.0,0.0,0.0,0.0,0.0,0.0,0.0,0.0,0.0,0.0,0.0,0.0,0.0,0.0,0.0,0.0,0.0,0.0,0.0,0.0,0.0,0.0,0.0,0.0,0.0,0.0,0.0,0.0,0.0,0.0,0.0,0.0,0.0,0.0,0.0,0.0,0.0,0.0,0.0,0.0,0.0,0.0,0.0,0.0,0.0,0.0,0.0,0.0,0.0,0.0,0.0,0.0,0.0,0.0,0.0,0.0,0.0,0.0,0.0,0.0,0.0,0.0,0.0,0.0,0.0,0.0,0.0,0.0,0.0,0.0,0.0,0.0,0.0,0.0,0.0,0.0,0.0,0.0,0.0,0.0,0.0,0.0,0.0,0.0,0.0,0.0,0.0,0.0,0.0,0.0,0.0,0.0,0.0,0.0,0.0,0.0,0.0,0.0,0.0,0.0,0.0,0.0,0.0,0.0,0.0,0.0,0.0,0.0,0.0,0.0,0.0,0.0,0.0,0.0,0.0,0.0,0.0,0.0,0.0,0.0,0.0,0.0,0.0,0.0,0.0,0.0,0.0,0.0,0.0,0.0,0.0,0.0,0.0,0.0,0.0,0.0,0.0,0.0,0.0,0.0,0.0,0.0,0.0,0.0,0.0,0.0,0.0,0.0,0.0,0.0,0.0,0.0,0.0,0.0,0.0,0.0,0.0,0.0,0.0,0.0,0.0,0.0,0.0,0.0,0.0,0.0,0.0,0.0,0.0,0.0,0.0,0.0,0.0,0.0,0.0,0.0,0.0,0.0,0.0,0.0,0.0,0.0,0.0,0.0,0.0,0.0,0.0,0.0,0.0,0.0,0.0,0.0,0.0,0.0,0.0,0.0,0.0,0.0,0.0,0.0,0.0,0.0,0.0,0.0,0.0,0.0,0.0,0.0,0.0,0.0,0.0,0.0,0.0,0.0,0.0,0.0,0.0,0.0,0.0,0.0,0.0,0.0,0.0,0.0,0.0,0.0,0.0,0.0,0.0,0.0,0.0,0.0,0.0,0.0,0.0,0.0,0.0,0.0,0.0,0.0,0.0,0.0,0.0,0.0,0.0,0.0,0.0,0.0,0.0,0.0,0.0,0.0,0.0,0.0,0.0,0.0,0.0,0.0,0.0,0.0,0.0,0.0,0.0,0.0,0.0,0.0,0.0,0.0,0.0,0.0,0.0,0.0,0.0,0.0,0.0,0.0,0.0,0.0,0.0,0.0,0.0,0.0,0.0,0.0,0.0,0.0,0.0,0.0,0.0,0.0,0.0,0.0,0.0,0.0,0.0,0.0,0.0,0.0,0.0,0.0,0.0,0.0,0.0,0.0,0.0,0.0,0.0,0.0,0.0,0.0,0.0,0.0,0.0,0.0,0.0,0.0,0.0,0.0,0.0,0.0,0.0,0.0,0.0,0.0,0.0,0.0,0.0,0.0,0.0,0.0,0.0,0.0,0.0,0.0,0.0,0.0,0.0,0.0,0.0,0.0,0.0,0.0,0.0,0.0,0.0,0.0,0.0,0.0,0.0,0.0,0.0,0.0,0.0,0.0,0.0,0.0,0.0,0.0,0.0,0.0,0.0,0.0,0.0,0.0,0.0,0.0,0.0,0.0,0.0,0.0,0.0,0.0,0.0,0.0,0.0,0.0,0.0,0.0,0.0,0.0,0.0,0.0,0.0,0.0,0.0,0.0,0.0,0.0,0.0,0.0,0.0,0.0,0.0,0.0,0.0,0.0,0.0,0.0,0.0,0.0,0.0,0.0,0.0,0.0,0.0,0.0,0.0,0.0,0.0,0.0,0.0,0.0,0.0,0.0,0.0,0.0,0.0,0.0,0.0,0.0,0.0,0.0,0.0,0.0,0.0,0.0,0.0,0.0,0.0,0.0,0.0,0.0,0.0,0.0,0.0,0.0,0.0,0.0,0.0,0.0,0.0,0.0,0.0,0.0,0.0,0.0,0.0,0.0,0.0,0.0,0.0,0.0,0.0,0.0,0.0,0.0,0.0,0.0,0.0,0.0,0.0,0.0,0.0,0.0,0.0,0.0,0.0,0.0,0.0,0.0,0.0,0.0,0.0,0.0,0.0,0.0,0.0,0.0,0.0,0.0,0.0,0.0,0.0,0.0,0.0,0.0,0.0,0.0,0.0,0.0,0.0,0.0,0.0,0.0,0.0,0.0,0.0,0.0,0.0,0.0,0.0,0.0,0.0,0.0,0.0,0.0,0.0,0.0,0.0,0.0,0.0,0.0,0.0,0.0,0.0,0.0,0.0,0.0,0.0,0.0,0.0,0.0,0.0,0.0,0.0,0.0,0.0,0.0,0.0,0.0,0.0,0.0,0.0,0.0,0.0,0.0,0.0,0.0,0.0,0.0,0.0,0.0,0.0,0.0,0.0,0.0,0.0,0.0,0.0,0.0,0.0,0.0,0.0,0.0,0.0,0.0,0.0,0.0,0.0,0.0,0.0,0.0,0.0,0.0,0.0,0.0,0.0,0.0,0.0,0.0,0.0,0.0,0.0,0.0,0.0,0.0,0.0,0.0,0.0,0.0,0.0,0.0,0.0,0.0,0.0,0.0,0.0,0.0,0.0,0.0,0.0,0.0,0.0,0.0,0.0,0.0,0.0,0.0,0.0,0.0,0.0,0.0,0.0,0.0,0.0,0.0,0.0,0.0,0.0,0.0,0.0,0.0,0.0,0.0,0.0,0.0,0.0,0.0,0.0,0.0,0.0,0.0,0.0,0.0,0.0,0.0,0.0,0.0,0.0,0.0,0.0,0.0,0.0,0.0,0.0,0.0,0.0,0.0,0.0,0.0,0.0,0.0,0.0,0.0,0.0,0.0,0.0,0.0,0.0,0.0,0.0,0.0,0.0,0.0,0.0,0.0,0.0,0.0,0.0,0.0,0.0,0.0,0.0,0.0,0.0,0.0,0.0,0.0,0.0,0.0,0.0,0.0,0.0,0.0,0.0,0.0,0.0,0.0,0.0,0.0,0.0,0.0,0.0,0.0,0.0,0.0,0.0,0.0,0.0,0.0,0.0,0.0,0.0,0.0,0.0,0.0,0.0,0.0,0.0,0.0,0.0,0.0,0.0,0.0,0.0,0.0,0.0,0.0,0.0,0.0,0.0,0.0,0.0,0.0,0.0,0.0,0.0,0.0,0.0,0.0,0.0,0.0,0.0,0.0,0.0,0.0,0.0,0.0,0.0,0.0,0.0,0.0,0.0,0.0,0.0,0.0,0.0,0.0,0.0,0.0,0.0,0.0,0.0,0.0,0.0,0.0,0.0,0.0,0.0,0.0,0.0,0.0,0.0,0.0,0.0,0.0,0.0,0.0,0.0,0.0,0.0,0.0,0.0,0.0,0.0,0.0,0.0,0.0,0.0,0.0,0.0,0.0,0.0,0.0,0.0,0.0,0.0,0.0,0.0,0.0,0.0,0.0,0.0,0.0,0.0,0.0,0.0,0.0,0.0,0.0,0.0,0.0,0.0,0.0,0.0,0.0,0.0,0.0,0.0,0.0,0.0,0.0,0.0,0.0,0.0,0.0,0.0,0.0,0.0,0.0,0.0,0.0,0.0,0.0,0.0,0.0,0.0,0.0,0.0,0.0,0.0,0.0,0.0,0.0,0.0,0.0,0.0,0.0,0.0,0.0,0.0,0.0,0.0,0.0,0.0,0.0,0.0,0.0,0.0,0.0,0.0,0.0,0.0,0.0,0.0,0.0,0.0,0.0,0.0,0.0,0.0,0.0,0.0,0.0,0.0,0.0,0.0,0.0,0.0,0.0,0.0,0.0,0.0,0.0,0.0,0.0,0.0,0.0,0.0,0.0,0.0,0.0,0.0,0.0,0.0,0.0,0.0,0.0,0.0,0.0,0.0,0.0,0.0,0.0,0.0,0.0,0.0,0.0,0.0,0.0,0.0,0.0,0.0,0.0,0.0,0.0,0.0,0.0,0.0,0.0,0.0,0.0,0.0,0.0,0.0,0.0,0.0,0.0,0.0,0.0,0.0,0.0,0.0,0.0,0.0,0.0,0.0,0.0,0.0,0.0,0.0,0.0,0.0,0.0,0.0,0.0,0.0,0.0,0.0,0.0,0.0,0.0,0.0,0.0,0.0,0.0,0.0,0.0,0.0,0.0,0.0,0.0,0.0,0.0,0.0,0.0,0.0,0.0,0.0,0.0,0.0,0.0,0.0,0.0,0.0,0.0,0.0,0.0,0.0,0.0,0.0,0.0,0.0,0.0,0.0,0.0,0.0,0.0,0.0,0.0,0.0,0.0,0.0,0.0,0.0,0.0,0.0,0.0,0.0,0.0,0.0,0.0,0.0,0.0,0.0,0.0,0.0,0.0,0.0,0.0,0.0,0.0,0.0,0.0,0.0,0.0,0.0,0.0,0.0,0.0,0.0,0.0,0.0,0.0,0.0,0.0,0.0,0.0,0.0,0.0,0.0,0.0,0.0,0.0,0.0,0.0,0.0,0.0,0.0,0.0,0.0,0.0,0.0,0.0,0.0,0.0,0.0,0.0,0.0,0.0,0.0,0.0,0.0,0.0,0.0,0.0,0.0,0.0,0.0,0.0,0.0,0.0,0.0,0.0,0.0,0.0,0.0,0.0,0.0,0.0,0.0,0.0,0.0,0.0,0.0,0.0,0.0,0.0,0.0,0.0,0.0,0.0,0.0,0.0,0.0,0.0,0.0,0.0,0.0,0.0,0.0,0.0,0.0,0.0,0.0,0.0,0.0,0.0,0.0,0.0,0.0,0.0,0.0,0.0,0.0,0.0,0.0,0.0,0.0,0.0,0.0,0.0,0.0,0.0,0.0,0.0,0.0,0.0,0.0,0.0,0.0,0.0,0.0,0.0,0.0,0.0,0.0,0.0,0.0,0.0,0.0,0.0,0.0,0.0,0.0,0.0,0.0,0.0,0.0,0.0,0.0,0.0,0.0,0.0,0.0,0.0,0.0,0.0,0.0,0.0,0.0,0.0,0.0,0.0,0.0,0.0,0.0,0.0,0.0,0.0,0.0,0.0,0.0,0.0,0.0,0.0,0.0,0.0,0.0,0.0,0.0,0.0,0.0,0.0,0.0,0.0,0.0,0.0,0.0,0.0,0.0,0.0,0.0,0.0,0.0,0.0,0.0,0.0,0.0,0.0,0.0,0.0,0.0,0.0,0.0,0.0,0.0,0.0,0.0,0.0,0.0,0.0,0.0,0.0,0.0,0.0,0.0,0.0,0.0,0.0,0.0,0.0,0.0,0.0,0.0,0.0,0.0,0.0,0.0,0.0,0.0,0.0,0.0,0.0,0.0,0.0,0.0,0.0,0.0,0.0,0.0,0.0,0.0,0.0,0.0,0.0,0.0,0.0,0.0,0.0,0.0,0.0,0.0,0.0,0.0,0.0,0.0,0.0,0.0,0.0,0.0,0.0,0.0,0.0,0.0,0.0,0.0,0.0,0.0,0.0,0.0,0.0,0.0,0.0,0.0,0.0,0.0,0.0,0.0,0.0,0.0,0.0,0.0,0.0,0.0,0.0,0.0,0.0,0.0,0.0,0.0,0.0,0.0,0.0,0.0,0.0,0.0,0.0,0.0,0.0,0.0,0.0,0.0,0.0,0.0,0.0,0.0,0.0,0.0,0.0,0.0,0.0,0.0,0.0,0.0,0.0,0.0,0.0,0.0,0.0,0.0,0.0,0.0,0.0,0.0,0.0,0.0,0.0,0.0,0.0,0.0,0.0,0.0,0.0,0.0,0.0,0.0,0.0,0.0,0.0,0.0,0.0,0.0,0.0,0.0,0.0,0.0,0.0,0.0,0.0,0.0,0.0,0.0,0.0,0.0,0.0,0.0,0.0,0.0,0.0,0.0,0.0,0.0,0.0,0.0,0.0,0.0,0.0,0.0,0.0,0.0,0.0,0.0,0.0,0.0,0.0,0.0,0.0,0.0,0.0,0.0,0.0,0.0,0.0,0.0,0.0,0.0,0.0,0.0,0.0,0.0,0.0,0.0,0.0,0.0,0.0,0.0,0.0,0.0,0.0,0.0,0.0,0.0,0.0,0.0,0.0,0.0,0.0,0.0,0.0,0.0,0.0,0.0,0.0,0.0,0.0,0.0,0.0,0.0,0.0,0.0,0.0,0.0,0.0,0.0,0.0,0.0,0.0,0.0,0.0,0.0,0.0,0.0,0.0,0.0,0.0,0.0,0.0,0.0,0.0,0.0,0.0,0.0,0.0,0.0,0.0,0.0,0.0,0.0,0.0,0.0,0.0,0.0,0.0,0.0,0.0,0.0,0.0,0.0,0.0,0.0,0.0,0.0,0.0,0.0,0.0,0.0,0.0,0.0,0.0,0.0,0.0,0.0,0.0,0.0,0.0,0.0,0.0,0.0,0.0,0.0,0.0,0.0,0.0,0.0,0.0,0.0,0.0,0.0,0.0,0.0,0.0,0.0,0.0,0.0,0.0,0.0,0.0,0.0,0.0,0.0,0.0,0.0,0.0,0.0,0.0,0.0,0.0,0.0,0.0,0.0,0.0,0.0,0.0,0.0,0.0,0.0,0.0,0.0,0.0,0.0,0.0,0.0,0.0,0.0,0.0,0.0,0.0,0.0,0.0,0.0,0.0,0.0,0.0,0.0,0.0,0.0,0.0,0.0,0.0,0.0,0.0,0.0,0.0,0.0,0.0,0.0,0.0,0.0,0.0,0.0,0.0,0.0,0.0,0.0,0.0,0.0,0.0,0.0,0.0,0.0,0.0,0.0,0.0,0.0,0.0,0.0,0.0,0.0,0.0,0.0,0.0,0.0,0.0,0.0,0.0,0.0,0.0,0.0,0.0,0.0,0.0,0.0,0.0,0.0,0.0,0.0,0.0,0.0,0.0,0.0,0.0,0.0,0.0,0.0,0.0,0.0,0.0,0.0,0.0,0.0,0.0,0.0,0.0,0.0,0.0,0.0,0.0,0.0,0.0,0.0,0.0,0.0,0.0,0.0,0.0,0.0,0.0,0.0,0.0,0.0,0.0,0.0,0.0,0.0,0.0,0.0,0.0,0.0,0.0,0.0,0.0,0.0,0.0,0.0,0.0,0.0,0.0,0.0,0.0,0.0,0.0,0.0,0.0,0.0,0.0,0.0,0.0,0.0,0.0,0.0,0.0,0.0,0.0,0.0,0.0,0.0,0.0,0.0,0.0,0.0,0.0,0.0,0.0,0.0,0.0,0.0,0.0,0.0,0.0,0.0,0.0,0.0,0.0,0.0,0.0,0.0,0.0,0.0,0.0,0.0,0.0,0.0,0.0,0.0,0.0,0.0,0.0,0.0,0.0,0.0,0.0,0.0,0.0,0.0,0.0,0.0,0.0,0.0,0.0,0.0,0.0,0.0,0.0,0.0,0.0,0.0,0.0,0.0,0.0,0.0,0.0,0.0,0.0,0.0,0.0,0.0,0.0,0.0,0.0,0.0,0.0,0.0,0.0,0.0,0.0,0.0,0.0,0.0,0.0,0.0,0.0,0.0,0.0,0.0,0.0,0.0,0.0,0.0,0.0,0.0,0.0,0.0,0.0,0.0,0.0,0.0,0.0,0.0,0.0,0.0,0.0,0.0,0.0,0.0,0.0,0.0,0.0,0.0,0.0,0.0,0.0,0.0,0.0,0.0,0.0,0.0,0.0,0.0,0.0,0.0,0.0,0.0,0.0,0.0,0.0,0.0,0.0,0.0,0.0,0.0,0.0,0.0,0.0,0.0,0.0,0.0,0.0,0.0,0.0,0.0,0.0,0.0,0.0,0.0,0.0,0.0,0.0,0.0,0.0,0.0,0.0,0.0,0.0,0.0,0.0,0.0,0.0,0.0,0.0,0.0,0.0,0.0,0.0,0.0,0.0,0.0,0.0,0.0,0.0,0.0,0.0,0.0,0.0,0.0,0.0,0.0,0.0,0.0,0.0,0.0,0.0,0.0,0.0,0.0,0.0,0.0,0.0,0.0,0.0,0.0,0.0,0.0,0.0,0.0,0.0,0.0,0.0,0.0,0.0,0.0,0.0,0.0,0.0,0.0,0.0,0.0,0.0,0.0,0.0,0.0,0.0,0.0,0.0,0.0,0.0,0.0,0.0,0.0,0.0,0.0,0.0,0.0,0.0,0.0,0.0,0.0,0.0,0.0,0.0,0.0,0.0,0.0,0.0,0.0,0.0,0.0,0.0,0.0,0.0,0.0,0.0,0.0,0.0,0.0,0.0,0.0,0.0,0.0,0.0,0.0,0.0,0.0,0.0,0.0,0.0,0.0,0.0,0.0,0.0,0.0,0.0,0.0,0.0,0.0,0.0,0.0,0.0,0.0,0.0,0.0,0.0,0.0,0.0,0.0,0.0,0.0,0.0,0.0,0.0,0.0,0.0,0.0,0.0,0.0,0.0,0.0,0.0,0.0,0.0,0.0,0.0,0.0,0.0,0.0,0.0,0.0,0.0,0.0,0.0,0.0,0.0,0.0,0.0,0.0,0.0,0.0,0.0,0.0,0.0,0.0,0.0,0.0,0.0,0.0,0.0,0.0,0.0,0.0,0.0,0.0,0.0,0.0,0.0,0.0,0.0,0.0,0.0,0.0,0.0,0.0,0.0,0.0,0.0,0.0,0.0,0.0,0.0,0.0,0.0,0.0,0.0,0.0,0.0,0.0,0.0,0.0,0.0,0.0,0.0,0.0,0.0,0.0,0.0,0.0,0.0,0.0,0.0,0.0,0.0,0.0,0.0,0.0,0.0,0.0,0.0,0.0,0.0,0.0,0.0,0.0,0.0,0.0,0.0,0.0,0.0,0.0,0.0,0.0,0.0,0.0,0.0,0.0,0.0,0.0,0.0,0.0,0.0,0.0,0.0,0.0,0.0,0.0,0.0,0.0,0.0,0.0,0.0,0.0,0.0,0.0,0.0,0.0,0.0,0.0,0.0,0.0,0.0,0.0,0.0,0.0,0.0,0.0,0.0,0.0,0.0,0.0,0.0,0.0,0.0,0.0,0.0,0.0,0.0,0.0,0.0,0.0,0.0,0.0,0.0,0.0,0.0,0.0,0.0,0.0,0.0,0.0,0.0,0.0,0.0,0.0,0.0,0.0,0.0,0.0,0.0,0.0,0.0,0.0,0.0,0.0,0.0,0.0,0.0,0.0,0.0,0.0,0.0,0.0,0.0,0.0,0.0,0.0,0.0,0.0,0.0,0.0,0.0,0.0,0.0,0.0,0.0,0.0,0.0,0.0,0.0,0.0,0.0,0.0,0.0,0.0,0.0,0.0,0.0,0.0,0.0,0.0,0.0,0.0,0.0,0.0,0.0,0.0,0.0,0.0,0.0,0.0,0.0,0.0,0.0,0.0,0.0,0.0,0.0,0.0,0.0,0.0,0.0,0.0,0.0,0.0,0.0,0.0,0.0,0.0,0.0,0.0,0.0,0.0,0.0,0.0,0.0,0.0,0.0,0.0,0.0,0.0,0.0,0.0,0.0,0.0,0.0,0.0,0.0,0.0,0.0,0.0,0.0,0.0,0.0,0.0,0.0,0.0,0.0,0.0,0.0,0.0,0.0,0.0,0.0,0.0,0.0,0.0,0.0,0.0,0.0,0.0,0.0,0.0,0.0,0.0,0.0,0.0,0.0,0.0,0.0,0.0,0.0,0.0,0.0,0.0,0.0,0.0,0.0,0.0,0.0,0.0,0.0,0.0,0.0,0.0,0.0,0.0,0.0,0.0,0.0,0.0,0.0,0.0,0.0,0.0,0.0,0.0,0.0,0.0,0.0,0.0,0.0,0.0,0.0,0.0,0.0,0.0,0.0,0.0,0.0,0.0,0.0,0.0,0.0,0.0,0.0,0.0,0.0,0.0,0.0,0.0,0.0,0.0,0.0,0.0,0.0,0.0,0.0,0.0,0.0,0.0,0.0,0.0,0.0,0.0,0.0,0.0,0.0,0.0,0.0,0.0,0.0,0.0,0.0,0.0,0.0,0.0,0.0,0.0,0.0,0.0,0.0,0.0,0.0,0.0,0.0,0.0,0.0,0.0,0.0,0.0,0.0,0.0,0.0,0.0,0.0,0.0,0.0,0.0,0.0,0.0,0.0,0.0,0.0,0.0,0.0,0.0,0.0,0.0,0.0,0.0,0.0,0.0,0.0,0.0,0.0,0.0,0.0,0.0,0.0,0.0,0.0,0.0,0.0,0.0,0.0,0.0,0.0,0.0,0.0,0.0,0.0,0.0,0.0,0.0,0.0,0.0,0.0,0.0,0.0,0.0,0.0,0.0,0.0,0.0,0.0,0.0,0.0,0.0,0.0,0.0,0.0,0.0,0.0,0.0,0.0,0.0,0.0,0.0,0.0,0.0,0.0,0.0,0.0,0.0,0.0,0.0,0.0,0.0,0.0,0.0,0.0,0.0,0.0,0.0,0.0,0.0,0.0,0.0,0.0,0.0,0.0,0.0,0.0,0.0,0.0,0.0,0.0,0.0,0.0,0.0,0.0,0.0,0.0,0.0,0.0,0.0,0.0,0.0,0.0,0.0,0.0,0.0,0.0,0.0,0.0,0.0,0.0,0.0,0.0,0.0,0.0,0.0,0.0,0.0,0.0,0.0,0.0,0.0,0.0,0.0,0.0,0.0,0.0,0.0,0.0,0.0,0.0,0.0,0.0,0.0,0.0,0.0,0.0,0.0,0.0,0.0,0.0,0.0,0.0,0.0,0.0,0.0,0.0,0.0,0.0,0.0,0.0,0.0,0.0,0.0,0.0,0.0,0.0,0.0,0.0,0.0,0.0,0.0,0.0,0.0,0.0,0.0,0.0,0.0,0.0,0.0,0.0,0.0,0.0,0.0,0.0,0.0,0.0,0.0,0.0,0.0,0.0,0.0,0.0,0.0,0.0,0.0,0.0,0.0,0.0,0.0,0.0,0.0,0.0,0.0,0.0,0.0,0.0,0.0,0.0,0.0,0.0,0.0,0.0,0.0,0.0,0.0,0.0,0.0,0.0,0.0,0.0,0.0,0.0,0.0,0.0,0.0,0.0,0.0,0.0,0.0,0.0,0.0,0.0,0.0,0.0,0.0,0.0,0.0,0.0,0.0,0.0,0.0,0.0,0.0,0.0,0.0,0.0,0.0,0.0,0.0,0.0,0.0,0.0,0.0,0.0,0.0,0.0,0.0,0.0,0.0,0.0,0.0,0.0,0.0,0.0,0.0,0.0,0.0,0.0,0.0,0.0,0.0,0.0,0.0,0.0,0.0,0.0,0.0,0.0,0.0,0.0,0.0,0.0,0.0,0.0,0.0,0.0,0.0,0.0,0.0,0.0,0.0,0.0,0.0,0.0,0.0,0.0,0.0,0.0,0.0,0.0,0.0,0.0,0.0,0.0,0.0,0.0,0.0,0.0,0.0,0.0,0.0,0.0,0.0,0.0,0.0,0.0,0.0,0.0,0.0,0.0,0.0,0.0,0.0,0.0,0.0,0.0,0.0,0.0,0.0,0.0,0.0,0.0,0.0,0.0,0.0,0.0,0.0,0.0,0.0,0.0,0.0,0.0,0.0,0.0,0.0,0.0,0.0,0.0,0.0,0.0,0.0,0.0,0.0,0.0,0.0,0.0,0.0,0.0,0.0,0.0,0.0,0.0,0.0,0.0,0.0,0.0,0.0,0.0,0.0,0.0,0.0,0.0,0.0,0.0,0.0,0.0,0.0,0.0,0.0,0.0,0.0,0.0,0.0,0.0,0.0,0.0,0.0,0.0,0.0,0.0,0.0,0.0,0.0,0.0,0.0,0.0,0.0,0.0,0.0,0.0,0.0,0.0,0.0,0.0,0.0,0.0,0.0,0.0,0.0,0.0,0.0,0.0,0.0,0.0,0.0,0.0,0.0,0.0,0.0,0.0,0.0,0.0,0.0,0.0,0.0,0.0,0.0,0.0,0.0,0.0,0.0,0.0,0.0,0.0,0.0,0.0,0.0,0.0,0.0,0.0,0.0,0.0,0.0,0.0,0.0,0.0,0.0,0.0,0.0,0.0,0.0,0.0,0.0,0.0,0.0,0.0,0.0,0.0,0.0,0.0,0.0,0.0,0.0,0.0,0.0,0.0,0.0,0.0,0.0,0.0,0.0,0.0,0.0,0.0,0.0,0.0,0.0,0.0,0.0,0.0,0.0,0.0,0.0,0.0,0.0,0.0,0.0,0.0,0.0,0.0,0.0,0.0,0.0,0.0,0.0,0.0,0.0,0.0,0.0,0.0,0.0,0.0,0.0,0.0,0.0,0.0,0.0,0.0,0.0,0.0,0.0,0.0,0.0,0.0,0.0,0.0,0.0,0.0,0.0,0.0,0.0,0.0,0.0,0.0,0.0,0.0,0.0,0.0,0.0,0.0,0.0,0.0,0.0,0.0,0.0,0.0,0.0,0.0,0.0,0.0,0.0,0.0,0.0,0.0,0.0,0.0,0.0,0.0,0.0,0.0,0.0,0.0,0.0,0.0,0.0,0.0,0.0,0.0,0.0,0.0,0.0,0.0,0.0,0.0,0.0,0.0,0.0,0.0,0.0,0.0,0.0,0.0,0.0,0.0,0.0,0.0,0.0,0.0,0.0,0.0,0.0,0.0,0.0,0.0,0.0,0.0,0.0,0.0,0.0,0.0,0.0,0.0,0.0,0.0,0.0,0.0,0.0,0.0,0.0,0.0,0.0,0.0,0.0,0.0,0.0,0.0,0.0,0.0,0.0,0.0,0.0,0.0,0.0,0.0,0.0,0.0,0.0,0.0,0.0,0.0,0.0,0.0,0.0,0.0,0.0,0.0,0.0,0.0,0.0,0.0,0.0,0.0,0.0,0.0,0.0,0.0,0.0,0.0,0.0,0.0,0.0,0.0,0.0,0.0,0.0,0.0,0.0,0.0,0.0,0.0,0.0,0.0,0.0,0.0,0.0,0.0,0.0,0.0,0.0,0.0,0.0,0.0,0.0,0.0,0.0,0.0,0.0,0.0,0.0,0.0,0.0,0.0,0.0,0.0,0.0,0.0,0.0,0.0,0.0,0.0,0.0,0.0,0.0,0.0,0.0,0.0,0.0,0.0,0.0,0.0,0.0,0.0,0.0,0.0,0.0,0.0,0.0,0.0,0.0,0.0,0.0,0.0,0.0,0.0,0.0,0.0,0.0,0.0,0.0,0.0,0.0,0.0,0.0,0.0,0.0,0.0,0.0,0.0,0.0,0.0,0.0,0.0,0.0,0.0,0.0,0.0,0.0,0.0,0.0,0.0,0.0,0.0,0.0,0.0,0.0,0.0,0.0,0.0,0.0,0.0,0.0,0.0,0.0,0.0,0.0,0.0,0.0,0.0,0.0,0.0,0.0,0.0,0.0,0.0,0.0,0.0,0.0,0.0,0.0,0.0,0.0,0.0,0.0,0.0,0.0,0.0,0.0,0.0,0.0,0.0,0.0,0.0,0.0,0.0,0.0,0.0,0.0,0.0,0.0,0.0,0.0,0.0,0.0,0.0,0.0,0.0,0.0,0.0,0.0,0.0,0.0,0.0,0.0,0.0,0.0,0.0,0.0,0.0,0.0,0.0,0.0,0.0,0.0,0.0,0.0,0.0,0.0,0.0,0.0,0.0,0.0,0.0,0.0,0.0,0.0,0.0,0.0,0.0,0.0,0.0,0.0,0.0,0.0,0.0,0.0,0.0,0.0,0.0,0.0,0.0,0.0,0.0,0.0,0.0,0.0,0.0,0.0,0.0,0.0,0.0,0.0,0.0,0.0,0.0,0.0,0.0,0.0,0.0,0.0,0.0,0.0,0.0,0.0,0.0,0.0,0.0,0.0,0.0,0.0,0.0,0.0,0.0,0.0,0.0,0.0,0.0,0.0,0.0,0.0,0.0,0.0,0.0,0.0,0.0,0.0,0.0,0.0,0.0,0.0,0.0,0.0,0.0,0.0,0.0,0.0,0.0,0.0,0.0,0.0,0.0,0.0,0.0,0.0,0.0,0.0,0.0,0.0,0.0,0.0,0.0,0.0,0.0,0.0,0.0,0.0,0.0,0.0,0.0,0.0,0.0,0.0,0.0,0.0,0.0,0.0,0.0,0.0,0.0,0.0,0.0,0.0,0.0,0.0,0.0,0.0,0.0,0.0,0.0,0.0,0.0,0.0,0.0,0.0,0.0,0.0,0.0,0.0,0.0,0.0,0.0,0.0,0.0,0.0,0.0,0.0,0.0,0.0,0.0,0.0,0.0,0.0,0.0,0.0,0.0,0.0,0.0,0.0,0.0,0.0,0.0,0.0,0.0,0.0,0.0,0.0,0.0,0.0,0.0,0.0,0.0,0.0,0.0,0.0,0.0,0.0,0.0,0.0,0.0,0.0,0.0,0.0,0.0,0.0,0.0,0.0,0.0,0.0,0.0,0.0,0.0,0.0,0.0,0.0,0.0,0.0,0.0,0.0,0.0,0.0,0.0,0.0,0.0,0.0,0.0,0.0,0.0,0.0,0.0,0.0,0.0,0.0,0.5609,0.5004,0.0,0.0,0.0,0.0,0.0,0.0,0.0,0.0,0.0,0.0,0.0,0.0,0.0,0.0,0.0,0.0,0.0,0.0,0.0,0.0,0.0,0.0,0.0,0.0,0.0,0.0,0.0,0.0,0.0,0.0,0.0,0.0,0.0,0.0,0.0,0.0,0.0,0.0,0.0,0.0,0.0,0.0,0.0,0.0,0.0,0.0,0.0,0.0,0.0,0.0,0.0,0.0,0.0,0.0,0.0,0.0,0.0,0.0,0.0,0.0,0.0,0.0,0.0,0.0,0.0,0.0,0.0,0.0,0.0,0.0,0.0,0.0,0.0,0.0,0.0,0.0,0.0,0.0,0.0,0.0,0.0,0.0,0.0,0.0,0.0,0.0,0.0,0.0,0.0,0.0,0.0,0.0,0.0,0.0,0.0,0.0,0.0,0.0,0.0,0.0,0.0,0.0,0.0,0.0,0.0,0.0,0.0,0.0,0.0,0.0,0.0,0.0,0.0,0.912,0.8503,0.0,0.0,0.0,0.0,0.2019,0.1818,0.0,0.0,0.0,0.0,0.0,0.0,0.0,0.0,0.0,0.0,0.0,0.0,0.0,0.0,0.0,0.0,0.0,0.0,0.0,0.0,0.0,0.0,0.0,0.0,0.0,0.0,0.0,0.0,0.0,0.0,0.0,0.0,0.0,0.0,0.0,0.0,0.0,0.0,0.0,0.0,0.0,0.0,0.0,0.0,0.0,0.0,0.0,0.0,0.0,0.0,0.0,0.0,0.0,0.0,0.0,0.0,0.0,0.0,0.0,0.0,0.0,0.0,0.0,0.0,0.0,0.0,0.0,0.0,0.0,0.0,0.0,0.0,0.0,0.0,0.0,0.0,0.0,0.0,0.0,0.0,0.0,0.0,0.0,0.0,0.0,0.0,0.0,0.0,0.0,0.0,0.0,0.0,0.0,0.0,0.0,0.0,0.0,0.0,0.0,0.0,0.0,0.0,0.0,0.0,0.0,0.0,0.0,0.1614,0.1411,0.0,0.0,0.0,0.0,0.9291,0.9097,0.0,0.0,0.0,0.0,0.0,0.0,0.0,0.0,0.0,0.0,0.0,0.0,0.0,0.0,0.0,0.0,0.0,0.0,0.0,0.0,0.0,0.0,0.0,0.0,0.0,0.0,0.0,0.0,0.0,0.0,0.0,0.0,0.0,0.0,0.0,0.0,0.0,0.0,0.0,0.0,0.0,0.0,0.0,0.0,0.0,0.0,0.0,0.0,0.0,0.0,0.0,0.0,0.0,0.0,0.0,0.0,0.0,0.0,0.0,0.0,0.0,0.0,0.0,0.0,0.0,0.0,0.0,0.0,0.0,0.0,0.0,0.0,0.0,0.0,0.0,0.0,0.0,0.0,0.0,0.0,0.0,0.0,0.0,0.0,0.0,0.0,0.0,0.0,0.0,0.0,0.0,0.0,0.0,0.0,0.0,0.0,0.0,0.0,0.0,0.0,0.0,0.0,0.0,0.0,0.0,0.0,0.0,0.0,0.0,0.0,0.6037,0.5652,0.1011,0.7867,1.0726,0.8528,0.5848,0.2814,0.0,0.0,0.0,0.0,0.0,0.0,0.0,0.0,0.0,0.0,0.0,0.0,0.0,0.0,0.0,0.0,0.0,0.0,0.0,0.0,0.0,0.0,0.0,0.0,0.0,0.0,0.0,0.0,0.0,0.0,0.0,0.0,0.0,0.0,0.0,0.0,0.0,0.0,0.0,0.0,0.0,0.0,0.0,0.0,0.0,0.0,0.0,0.0,0.0,0.0,0.0,0.0,0.0,0.0,0.0,0.0,0.0,0.0,0.0,0.0,0.0,0.0,0.0,0.0,0.0,0.0,0.0,0.0,0.0,0.0,0.0,0.0,0.0,0.0,0.0,0.0,0.0,0.0,0.0,0.0,0.0,0.0,0.0,0.0,0.0,0.0,0.0,0.0,0.0,0.0,0.0,0.0,0.0,0.2335,0.0422,0.2508,0.3747,0.3742,0.2471,0.0,0.2043,0.3038,0.0,0.3632,0.3618,0.3618,0.4436,1.2558,1.1782,0.4888,0.7907,1.2211,1.5405,1.1979,0.7848,0.0,0.1205,0.0,0.0,0.0,0.0,0.0,0.0,0.0,0.0,0.0,0.0,0.0,0.0,0.0,0.0,0.0,0.0,0.0,0.0,0.0,0.0,0.0,0.0,0.0,0.0,0.0,0.0,0.0,0.0,0.0,0.0,0.0,0.0,0.0,0.0,0.0,0.0,0.0,0.0,0.0,0.0,0.0,0.0,0.0,0.0,0.0,0.0,0.0,0.0,0.0,0.0,0.0,0.0,0.0,0.0,0.0,0.0,0.0,0.0,0.0,0.0,0.0,0.0,0.0,0.0,0.0,0.0,0.0,0.0,0.0,0.0,0.0,0.0,0.0,0.0,0.0,0.0,0.0,0.0,0.0,0.0,0.0,0.0,0.0,0.0,0.0,0.0,0.0,0.0,0.0,0.0,1.0683,0.9379,0.1909,1.077,1.4976,1.4707,0.9959,0.7635,0.804,1.2512,1.438,1.4235,1.4666,1.4666,1.4212,1.6035,1.6048,1.4458,1.5283,1.5718,1.6817,1.5602,1.4855,1.3535,0.4817,0.0,0.0,0.0,0.0,0.0,0.0,0.0,0.0,0.0,0.0,0.0,0.0,0.0,0.0,0.0,0.0,0.0,0.0,0.0,0.0,0.0,0.0,0.0,0.0,0.0,0.0,0.0,0.0,0.0,0.0,0.0,0.0,0.0,0.0,0.0,0.0,0.0,0.0,0.0,0.0,0.0,0.0,0.0,0.0,0.0,0.0,0.0,0.0,0.0,0.0,0.0,0.0,0.0,0.0,0.0,0.0,0.0,0.0,0.0,0.0,0.0,0.0,0.0,0.0,0.0,0.0,0.0,0.0,0.0,0.0,0.0,0.0,0.0,0.0,0.0,0.0,0.0,0.0,0.0,0.0,0.0,0.0,0.0,0.0,0.0,0.0,0.0,0.0,0.0,0.0,1.2063,1.4187,1.0904,1.5108,1.7005,1.6781,1.4493,1.3576,1.3761,1.5744,1.6333,1.6141,1.6442,1.6449,1.6115,1.6721,1.6769,1.6666,1.6598,1.6817,1.6879,1.6326,1.6192,1.589,1.1551,0.95,0.9067,0.3217,0.0,0.0,0.0,0.0,0.0,0.0,0.0,0.0,0.0,0.0,0.0,0.0,0.0,0.0,0.0,0.0,0.0,0.0,0.0,0.0,0.0,0.0,0.0,0.0,0.0,0.0,0.0,0.0,0.0,0.0,0.0,0.0,0.0,0.0,0.0,0.0,0.0,0.0,0.0,0.0,0.0,0.0,0.0,0.0,0.0,0.0,0.0,0.0,0.0,0.0,0.0,0.0,0.0,0.0,0.0,0.0,0.0,0.0,0.0,0.0,0.0,0.0,0.0,0.0,0.0,0.0,0.0,0.0,0.0,0.0,0.0,0.0,0.0,0.0,0.0,0.0,0.0,0.0,0.0,0.2012,0.4678,0.4914,0.2894,0.0,0.0,0.1971,0.5665,1.368,1.7116,1.7036,1.7127,1.7073,1.7053,1.6951,1.7099,1.7058,1.692,1.6852,1.642,1.6776,1.6776,1.6426,1.681,1.7085,1.6989,1.6707,1.6686,1.6948,1.6646,1.6312,1.6212,1.6158,1.6112,1.5221,0.7854,0.2813,0.0,0.0,0.0,0.0,0.0,0.0,0.0,0.0,0.0,0.0,0.0,0.0,0.0,0.0,0.0,0.0,0.0,0.0,0.0,0.0,0.0,0.0,0.0,0.0,0.0,0.0,0.0,0.0,0.0,0.0,0.0,0.0,0.0,0.0,0.0,0.0,0.0,0.0,0.0,0.0,0.0,0.0,0.0,0.0,0.0,0.0,0.0,0.0,0.0,0.0,0.0,0.0,0.0,0.0,0.0,0.0,0.0,0.0,0.0,0.0,0.0,0.0,0.0,0.0,0.0,0.0,0.0,0.0,0.0,0.0,0.0,0.0,0.0,0.0,0.0,0.0,0.0,0.0,0.6727,1.6261,1.702,1.0412,0.0,0.0,0.675,1.6008,1.7507,1.7621,1.7063,1.7202,1.7114,1.6998,1.6978,1.6971,1.6951,1.703,1.703,1.6897,1.6879,1.69,1.6937,1.703,1.703,1.6944,1.6931,1.687,1.6768,1.6955,1.6872,1.6517,1.6185,1.6125,1.591,1.4975,1.0049,0.0,0.0,0.0,0.0,0.0,0.0,0.0,0.0,0.0,0.0,0.0,0.0,0.0,0.0,0.0,0.0,0.0,0.0,0.0,0.0,0.0,0.0,0.0,0.0,0.0,0.0,0.0,0.0,0.0,0.0,0.0,0.0,0.0,0.0,0.0,0.0,0.0,0.0,0.0,0.0,0.0,0.0,0.0,0.0,0.0,0.0,0.0,0.0,0.0,0.0,0.0,0.0,0.0,0.0,0.0,0.0,0.0,0.0,0.0,0.0,0.0,0.0,0.0,0.0,0.0,0.0,0.0,0.0,0.0,0.0,0.0,0.0,0.0,0.0,0.0,0.0,0.0,0.0,0.8051,1.2568,1.6373,1.5202,1.1577,1.1519,1.3958,1.7779,1.7875,1.7786,1.748,1.729,1.7161,1.6895,1.7019,1.6978,1.6971,1.6924,1.6931,1.6965,1.7078,1.7092,1.6958,1.6924,1.6924,1.6971,1.6978,1.6958,1.6904,1.6904,1.703,1.6879,1.6728,1.6415,1.6112,1.6198,1.3895,1.0053,0.3833,0.0,0.0,0.0,0.0,0.0,0.0,0.0,0.0,0.0,0.0,0.0,0.0,0.0,0.0,0.0,0.0,0.0,0.0,0.0,0.0,0.0,0.0,0.0,0.0,0.0,0.0,0.0,0.0,0.0,0.0,0.0,0.0,0.0,0.0,0.0,0.0,0.0,0.0,0.0,0.0,0.0,0.0,0.0,0.0,0.0,0.0,0.0,0.0,0.0,0.0,0.0,0.0,0.0,0.0,0.0,0.0,0.0,0.0,0.0,0.0,0.0,0.0,0.0,0.0,0.0,0.0,0.0,0.0,0.0,0.0,0.0,0.0,0.0,0.0,0.0,0.0,1.1852,1.252,1.6151,1.7968,1.7955,1.7921,1.7907,1.7894,1.7998,1.7916,1.7841,1.7648,1.729,1.7188,1.7087,1.7019,1.6985,1.6978,1.6978,1.6978,1.6978,1.6978,1.6978,1.6978,1.6978,1.6978,1.6978,1.6978,1.6978,1.6978,1.6924,1.703,1.7092,1.6756,1.6232,1.6118,1.6065,1.4458,0.8771,0.0,0.5155,0.1866,0.0,0.0,0.0,0.0,0.0,0.0,0.0,0.0,0.0,0.0,0.0,0.0,0.0,0.0,0.0,0.0,0.0,0.0,0.0,0.0,0.0,0.0,0.0,0.0,0.0,0.0,0.0,0.0,0.0,0.0,0.0,0.0,0.0,0.0,0.0,0.0,0.0,0.0,0.0,0.0,0.0,0.0,0.0,0.0,0.0,0.0,0.0,0.0,0.0,0.0,0.0,0.0,0.0,0.0,0.0,0.0,0.0,0.0,0.0,0.0,0.0,0.0,0.0,0.0,0.0,0.0,0.0,0.0,0.0,0.0,0.0,0.0,0.0,1.7739,1.7477,1.7928,1.7907,1.788,1.7874,1.7867,1.7867,1.7853,1.7998,1.7902,1.7636,1.746,1.7243,1.7182,1.6895,1.6998,1.6992,1.6992,1.6985,1.6978,1.6978,1.6978,1.6978,1.6978,1.6978,1.6978,1.6978,1.6978,1.6978,1.6971,1.6944,1.7016,1.6714,1.6099,1.6148,1.6115,1.5526,1.3877,1.4198,1.5252,0.5472,0.0,0.0,0.0,0.0,0.0,0.0,0.0,0.0,0.0,0.0,0.0,0.0,0.0,0.0,0.0,0.0,0.0,0.0,0.0,0.0,0.0,0.0,0.0,0.0,0.0,0.0,0.0,0.0,0.0,0.0,0.0,0.0,0.0,0.0,0.0,0.0,0.0,0.0,0.0,0.0,0.0,0.0,0.0,0.0,0.0,0.0,0.0,0.0,0.0,0.0,0.0,0.0,0.0,0.0,0.0,0.0,0.0,0.0,0.0,0.0,0.0,0.0,0.0,0.0,0.0,0.0,0.0,0.0,0.0,0.0,0.0,0.0,0.0,1.7901,1.7887,1.7887,1.788,1.7867,1.786,1.786,1.786,1.786,1.784,1.7785,1.7916,1.7541,1.7358,1.7023,1.6902,1.6992,1.7066,1.7073,1.6998,1.6985,1.6985,1.6985,1.6978,1.6978,1.6978,1.6978,1.6978,1.6978,1.6978,1.6978,1.6951,1.7044,1.6968,1.6748,1.6817,1.6749,1.5936,0.8892,0.6867,0.9872,0.3793,0.0,0.0,0.0,0.0,0.0,0.0,0.0,0.0,0.0,0.0,0.0,0.0,0.0,0.0,0.0,0.0,0.0,0.0,0.0,0.0,0.0,0.0,0.0,0.0,0.0,0.0,0.0,0.0,0.0,0.0,0.0,0.0,0.0,0.0,0.0,0.0,0.0,0.0,0.0,0.0,0.0,0.0,0.0,0.0,0.0,0.0,0.0,0.0,0.0,0.0,0.0,0.0,0.0,0.0,0.0,0.0,0.0,0.0,0.0,0.0,0.0,0.0,0.0,0.0,0.0,0.0,0.0,0.0,0.0,0.0,0.0,0.0,0.0,1.786,1.786,1.786,1.786,1.786,1.786,1.786,1.786,1.786,1.786,1.784,1.7992,1.765,1.7507,1.7183,1.7063,1.7161,1.7023,1.7009,1.7141,1.7073,1.706,1.7053,1.706,1.7026,1.6985,1.6978,1.6978,1.6978,1.6978,1.6978,1.6958,1.7092,1.7051,1.7044,1.6962,1.6913,1.5873,1.0228,0.7957,0.9053,0.4014,0.0,0.0,0.0,0.0,0.0,0.0,0.0,0.0,0.0,0.0,0.0,0.0,0.0,0.0,0.0,0.0,0.0,0.0,0.0,0.0,0.0,0.0,0.0,0.0,0.0,0.0,0.0,0.0,0.0,0.0,0.0,0.0,0.0,0.0,0.0,0.0,0.0,0.0,0.0,0.0,0.0,0.0,0.0,0.0,0.0,0.0,0.0,0.0,0.0,0.0,0.0,0.0,0.0,0.0,0.0,0.0,0.0,0.0,0.0,0.0,0.0,0.0,0.0,0.0,0.0,0.0,0.0,0.0,0.0,0.0,0.0,0.0,0.0,1.786,1.786,1.786,1.786,1.786,1.786,1.786,1.786,1.786,1.786,1.786,1.7846,1.7772,1.7663,1.7378,1.7514,1.7439,1.7203,1.719,1.7358,1.7283,1.7229,1.7209,1.6962,1.7121,1.7053,1.7019,1.7019,1.7053,1.7026,1.6992,1.7005,1.6978,1.6971,1.6951,1.6971,1.6958,1.6755,1.6354,1.5946,1.599,0.7435,0.0,0.0,0.0,0.0,0.0,0.0,0.0,0.0,0.0,0.0,0.0,0.0,0.0,0.0,0.0,0.0,0.0,0.0,0.0,0.0,0.0,0.0,0.0,0.0,0.0,0.0,0.0,0.0,0.0,0.0,0.0,0.0,0.0,0.0,0.0,0.0,0.0,0.0,0.0,0.0,0.0,0.0,0.0,0.0,0.0,0.0,0.0,0.0,0.0,0.0,0.0,0.0,0.0,0.0,0.0,0.0,0.0,0.0,0.0,0.0,0.0,0.0,0.0,0.0,0.0,0.0,0.0,0.0,0.0,0.0,0.0,0.0,0.0,1.786,1.786,1.786,1.786,1.786,1.786,1.786,1.786,1.786,1.786,1.786,1.786,1.7785,1.7656,1.7656,1.7568,1.7487,1.7324,1.7297,1.7446,1.7514,1.7676,1.7573,1.7249,1.7023,1.727,1.7182,1.7195,1.729,1.7182,1.6922,1.6915,1.7046,1.6992,1.6978,1.6998,1.6985,1.6992,1.6998,1.7026,1.6631,1.4286,0.8289,0.0,0.0,0.0,0.0,0.0,0.0,0.0,0.0,0.0,0.0,0.0,0.0,0.0,0.0,0.0,0.0,0.0,0.0,0.0,0.0,0.0,0.0,0.0,0.0,0.0,0.0,0.0,0.0,0.0,0.0,0.0,0.0,0.0,0.0,0.0,0.0,0.0,0.0,0.0,0.0,0.0,0.0,0.0,0.0,0.0,0.0,0.0,0.0,0.0,0.0,0.0,0.0,0.0,0.0,0.0,0.0,0.0,0.0,0.0,0.0,0.0,0.0,0.0,0.0,0.0,0.0,0.0,0.0,0.0,0.0,0.0,0.0,1.786,1.786,1.786,1.786,1.786,1.786,1.786,1.786,1.786,1.786,1.786,1.786,1.7819,1.7745,1.7964,1.7697,1.7623,1.7697,1.7684,1.7643,1.7704,1.7841,1.7899,1.7593,1.7399,1.7405,1.7331,1.7344,1.7392,1.7331,1.729,1.7056,1.6989,1.6949,1.6962,1.6949,1.7161,1.7168,1.7161,1.6956,1.6982,1.7043,1.0751,0.0,0.0,0.0,0.0,0.0,0.0,0.0,0.0,0.0,0.0,0.0,0.0,0.0,0.0,0.0,0.0,0.0,0.0,0.0,0.0,0.0,0.0,0.0,0.0,0.0,0.0,0.0,0.0,0.0,0.0,0.0,0.0,0.0,0.0,0.0,0.0,0.0,0.0,0.0,0.0,0.0,0.0,0.0,0.0,0.0,0.0,0.0,0.0,0.0,0.0,0.0,0.0,0.0,0.0,0.0,0.0,0.0,0.0,0.0,0.0,0.0,0.0,0.0,0.0,0.0,0.0,0.0,0.0,0.0,0.0,0.0,0.0,1.786,1.786,1.786,1.786,1.786,1.786,1.786,1.786,1.786,1.786,1.786,1.786,1.7853,1.786,1.784,1.7853,1.7846,1.7833,1.7846,1.7826,1.7826,1.7944,1.7989,1.7792,1.7786,1.7514,1.7689,1.7689,1.7494,1.7696,1.7662,1.721,1.719,1.7183,1.715,1.717,1.719,1.7385,1.7365,1.7143,1.7163,1.6785,1.1311,0.0,0.0,0.0,0.0,0.0,0.0,0.0,0.0,0.0,0.0,0.0,0.0,0.0,0.0,0.0,0.0,0.0,0.0,0.0,0.0,0.0,0.0,0.0,0.0,0.0,0.0,0.0,0.0,0.0,0.0,0.0,0.0,0.0,0.0,0.0,0.0,0.0,0.0,0.0,0.0,0.0,0.0,0.0,0.0,0.0,0.0,0.0,0.0,0.0,0.0,0.0,0.0,0.0,0.0,0.0,0.0,0.0,0.0,0.0,0.0,0.0,0.0,0.0,0.0,0.0,0.0,0.0,0.0,0.0,0.0,0.0,0.0,1.786,1.786,1.786,1.786,1.786,1.786,1.786,1.786,1.786,1.786,1.786,1.786,1.786,1.786,1.786,1.786,1.786,1.786,1.786,1.786,1.786,1.784,1.7964,1.793,1.7923,1.7704,1.7868,1.7882,1.793,1.7868,1.7827,1.7806,1.7507,1.7648,1.7662,1.7683,1.7648,1.7864,1.7655,1.7453,1.7467,1.7317,1.2031,0.0,0.0,0.0,0.0,0.0,0.0,0.0,0.0,0.0,0.0,0.0,0.0,0.0,0.0,0.0,0.0,0.0,0.0,0.0,0.0,0.0,0.0,0.0,0.0,0.0,0.0,0.0,0.0,0.0,0.0,0.0,0.0,0.0,0.0,0.0,0.0,0.0,0.0,0.0,0.0,0.0,0.0,0.0,0.0,0.0,0.0,0.0,0.0,0.0,0.0,0.0,0.0,0.0,0.0,0.0,0.0,0.0,0.0,0.0,0.0,0.0,0.0,0.0,0.0,0.0,0.0,0.0,0.0,0.0,0.0,0.0,0.0,1.7948,1.8057,1.7921,1.7901,1.7955,1.7894,1.786,1.786,1.786,1.786,1.786,1.786,1.786,1.786,1.786,1.786,1.786,1.786,1.786,1.786,1.786,1.786,1.786,1.8019,1.8019,1.7853,1.8012,1.7806,1.7826,1.8019,1.7971,1.7971,1.7889,1.7875,1.7854,1.7854,1.7868,1.7861,1.7854,1.7854,1.7643,1.7492,1.2171,0.0,0.0,0.0,0.0,0.0,0.0,0.0,0.0,0.0,0.0,0.0,0.0,0.0,0.0,0.0,0.0,0.0,0.0,0.0,0.0,0.0,0.0,0.0,0.0,0.0,0.0,0.0,0.0,0.0,0.0,0.0,0.0,0.0,0.0,0.0,0.0,0.0,0.0,0.0,0.0,0.0,0.0,0.0,0.0,0.0,0.0,0.0,0.0,0.0,0.0,0.0,0.0,0.0,0.0,0.0,0.0,0.0,0.0,0.0,0.0,0.0,0.0,0.0,0.0,0.0,0.0,0.0,0.0,0.0,0.0,0.0,0.0,1.8057,1.8233,1.8016,1.7996,1.784,1.7982,1.7928,1.7901,1.7901,1.7894,1.786,1.786,1.786,1.786,1.786,1.786,1.786,1.7867,1.7874,1.7921,1.7921,1.7948,1.7962,1.7968,1.7962,1.7928,1.7867,1.7874,1.7901,1.7901,1.7901,1.7901,1.7935,1.788,1.7867,1.7887,1.786,1.7826,1.7812,1.7846,1.7867,1.7484,1.1625,0.0,0.0,0.0,0.0,0.0,0.0,0.0,0.0,0.0,0.0,0.0,0.0,0.0,0.0,0.0,0.0,0.0,0.0,0.0,0.0,0.0,0.0,0.0,0.0,0.0,0.0,0.0,0.0,0.0,0.0,0.0,0.0,0.0,0.0,0.0,0.0,0.0,0.0,0.0,0.0,0.0,0.0,0.0,0.0,0.0,0.0,0.0,0.0,0.0,0.0,0.0,0.0,0.0,0.0,0.0,0.0,0.0,0.0,0.0,0.0,0.0,0.0,0.0,0.0,0.0,0.0,0.0,0.0,0.0,0.0,0.0,0.0,1.8124,1.7955,1.8158,1.8186,1.7887,1.796,1.7927,1.784,1.805,1.7975,1.788,1.7867,1.7874,1.7867,1.786,1.7867,1.788,1.7907,1.7955,1.8036,1.8057,1.8097,1.8186,1.8186,1.8213,1.8172,1.8036,1.7962,1.8036,1.8057,1.8057,1.8077,1.7927,1.7887,1.7982,1.7968,1.7996,1.7935,1.7914,1.7955,1.8023,1.734,1.2107,0.0,0.0,0.0,0.0,0.0,0.0,0.0,0.0,0.0,0.0,0.0,0.0,0.0,0.0,0.0,0.0,0.0,0.0,0.0,0.0,0.0,0.0,0.0,0.0,0.0,0.0,0.0,0.0,0.0,0.0,0.0,0.0,0.0,0.0,0.0,0.0,0.0,0.0,0.0,0.0,0.0,0.0,0.0,0.0,0.0,0.0,0.0,0.0,0.0,0.0,0.0,0.0,0.0,0.0,0.0,0.0,0.0,0.0,0.0,0.0,0.0,0.0,0.0,0.0,0.0,0.0,0.0,0.0,0.0,0.0,0.0,0.0,1.8131,1.8206,1.8206,1.8253,1.8314,1.8081,1.828,1.8219,1.8206,1.8172,1.8091,1.8023,1.7982,1.7962,1.7887,1.7901,1.7975,1.7847,1.7907,1.7974,1.8213,1.8465,1.8562,1.8562,1.8321,1.828,1.8172,1.8131,1.8206,1.8445,1.8438,1.8219,1.8061,1.8007,1.8145,1.8165,1.7934,1.8097,1.8091,1.7893,1.7749,1.7722,1.132,0.0,0.0,0.0,0.0,0.0,0.0,0.0,0.0,0.0,0.0,0.0,0.0,0.0,0.0,0.0,0.0,0.0,0.0,0.0,0.0,0.0,0.0,0.0,0.0,0.0,0.0,0.0,0.0,0.0,0.0,0.0,0.0,0.0,0.0,0.0,0.0,0.0,0.0,0.0,0.0,0.0,0.0,0.0,0.0,0.0,0.0,0.0,0.0,0.0,0.0,0.0,0.0,0.0,0.0,0.0,0.0,0.0,0.0,0.0,0.0,0.0,0.0,0.0,0.0,0.0,0.0,0.0,0.0,0.0,0.0,0.0,0.0,1.8219,1.847,1.8301,1.8348,1.8733,1.845,1.8623,1.8603,1.8596,1.8342,1.8308,1.8192,1.8138,1.8111,1.8043,1.803,1.792,1.8034,1.8081,1.8128,1.8596,1.8837,1.8872,1.8872,1.8671,1.8457,1.8423,1.8389,1.8362,1.8596,1.8596,1.8389,1.8148,1.8355,1.8562,1.8328,1.8342,1.8321,1.8314,1.8088,1.7881,1.5179,1.0326,0.0,0.0,0.0,0.0,0.0,0.0,0.0,0.0,0.0,0.0,0.0,0.0,0.0,0.0,0.0,0.0,0.0,0.0,0.0,0.0,0.0,0.0,0.0,0.0,0.0,0.0,0.0,0.0,0.0,0.0,0.0,0.0,0.0,0.0,0.0,0.0,0.0,0.0,0.0,0.0,0.0,0.0,0.0,0.0,0.0,0.0,0.0,0.0,0.0,0.0,0.0,0.0,0.0,0.0,0.0,0.0,0.0,0.0,0.0,0.0,0.0,0.0,0.0,0.0,0.0,0.0,0.0,0.0,0.0,0.0,0.0,0.0,1.8531,1.8369,1.8586,1.8626,1.8329,1.8647,1.8626,1.8747,1.874,1.8671,1.8596,1.8314,1.8287,1.8267,1.8274,1.8267,1.8301,1.8342,1.8423,1.8504,1.8747,1.8802,1.8912,1.8715,1.866,1.8647,1.8667,1.8626,1.8545,1.8747,1.8747,1.8761,1.8593,1.8829,1.8644,1.8699,1.8678,1.8816,1.8568,1.8575,1.7225,0.926,0.3927,0.0,0.0,0.0,0.0,0.0,0.0,0.0,0.0,0.0,0.0,0.0,0.0,0.0,0.0,0.0,0.0,0.0,0.0,0.0,0.0,0.0,0.0,0.0,0.0,0.0,0.0,0.0,0.0,0.0,0.0,0.0,0.0,0.0,0.0,0.0,0.0,0.0,0.0,0.0,0.0,0.0,0.0,0.0,0.0,0.0,0.0,0.0,0.0,0.0,0.0,0.0,0.0,0.0,0.0,0.0,0.0,0.0,0.0,0.0,0.0,0.0,0.0,0.0,0.0,0.0,0.0,0.0,0.0,0.0,0.0,0.0,0.0,1.8633,1.8457,1.8579,1.8647,1.8667,1.8735,1.8728,1.8905,1.8898,1.8864,1.8795,1.8706,1.863,1.8596,1.8396,1.8437,1.8457,1.8518,1.8593,1.864,1.8898,1.8694,1.8735,1.8762,1.8762,1.8762,1.8755,1.8728,1.8674,1.866,1.8898,1.8905,1.8721,1.8715,1.8788,1.8857,1.8857,1.8829,1.8816,1.8823,1.7467,1.3309,0.6992,0.0,0.0,0.0,0.0,0.0,0.0,0.0,0.0,0.0,0.0,0.0,0.0,0.0,0.0,0.0,0.0,0.0,0.0,0.0,0.0,0.0,0.0,0.0,0.0,0.0,0.0,0.0,0.0,0.0,0.0,0.0,0.0,0.0,0.0,0.0,0.0,0.0,0.0,0.0,0.0,0.0,0.0,0.0,0.0,0.0,0.0,0.0,0.0,0.0,0.0,0.0,0.0,0.0,0.0,0.0,0.0,0.0,0.0,0.0,0.0,0.0,0.0,0.0,0.0,0.0,0.0,0.0,0.0,0.0,0.0,0.0,0.0,1.8694,1.8593,1.8593,1.866,1.8762,1.8762,1.8762,1.8762,1.8755,1.8755,1.8735,1.8877,1.8768,1.8713,1.8545,1.8586,1.8362,1.8708,1.8749,1.8762,1.8762,1.8755,1.8762,1.8762,1.8762,1.8762,1.8762,1.8749,1.8755,1.8749,1.8742,1.8762,1.8755,1.8755,1.8755,1.8742,1.8728,1.8728,1.8728,1.8749,1.855,1.8604,1.0758,0.0,0.0,0.0,0.0,0.0,0.0,0.0,0.0,0.0,0.0,0.0,0.0,0.0,0.0,0.0,0.0,0.0,0.0,0.0,0.0,0.0,0.0,0.0,0.0,0.0,0.0,0.0,0.0,0.0,0.0,0.0,0.0,0.0,0.0,0.0,0.0,0.0,0.0,0.0,0.0,0.0,0.0,0.0,0.0,0.0,0.0,0.0,0.0,0.0,0.0,0.0,0.0,0.0,0.0,0.0,0.0,0.0,0.0,0.0,0.0,0.0,0.0,0.0,0.0,0.0,0.0,0.0,0.0,0.0,0.0,0.0,0.0,1.8755,1.8742,1.8742,1.8749,1.8762,1.8762,1.8762,1.8762,1.8762,1.8762,1.8762,1.8742,1.8715,1.8715,1.8701,1.8721,1.8735,1.8755,1.8762,1.8762,1.8762,1.8762,1.8762,1.8762,1.8762,1.8762,1.8762,1.8762,1.8769,1.8796,1.8776,1.8762,1.8762,1.8762,1.8762,1.8762,1.8762,1.8762,1.8762,1.8762,1.8782,1.7859,1.2891,0.3969,0.0,0.0,0.0,0.0,0.0,0.0,0.0,0.0,0.0,0.0,0.0,0.0,0.0,0.0,0.0,0.0,0.0,0.0,0.0,0.0,0.0,0.0,0.0,0.0,0.0,0.0,0.0,0.0,0.0,0.0,0.0,0.0,0.0,0.0,0.0,0.0,0.0,0.0,0.0,0.0,0.0,0.0,0.0,0.0,0.0,0.0,0.0,0.0,0.0,0.0,0.0,0.0,0.0,0.0,0.0,0.0,0.0,0.0,0.0,0.0,0.0,0.0,0.0,0.0,0.0,0.0,0.0,0.0,0.0,0.0,0.0,1.8762,1.8762,1.8762,1.8762,1.8762,1.8762,1.8762,1.8762,1.8762,1.8762,1.8762,1.8762,1.8762,1.8762,1.8762,1.8762,1.8762,1.8762,1.8762,1.8762,1.8762,1.8762,1.8762,1.8776,1.8762,1.8776,1.8769,1.8762,1.8769,1.8857,1.8823,1.8796,1.8782,1.8762,1.8762,1.8782,1.8776,1.8769,1.8769,1.8762,1.8769,1.881,1.646,1.2443,0.2107,0.0,0.0,0.0,0.0,0.0,0.0,0.0,0.0,0.0,0.0,0.0,0.0,0.0,0.0,0.0,0.0,0.0,0.0,0.0,0.0,0.0,0.0,0.0,0.0,0.0,0.0,0.0,0.0,0.0,0.0,0.0,0.0,0.0,0.0,0.0,0.0,0.0,0.0,0.0,0.0,0.0,0.0,0.0,0.0,0.0,0.0,0.0,0.0,0.0,0.0,0.0,0.0,0.0,0.0,0.0,0.0,0.0,0.0,0.0,0.0,0.0,0.0,0.0,0.0,0.0,0.0,0.0,0.0,0.0,0.0,1.8762,1.8762,1.8762,1.8762,1.8762,1.8762,1.8762,1.8762,1.8762,1.8762,1.8762,1.8762,1.8762,1.8762,1.8762,1.8762,1.8762,1.8762,1.8796,1.8803,1.8796,1.8823,1.885,1.8871,1.8877,1.8871,1.8891,1.8911,1.8925,1.9006,1.8959,1.8898,1.8871,1.8884,1.885,1.8871,1.8871,1.8837,1.883,1.883,1.8837,1.8864,1.8731,1.6126,0.6384,0.0,0.0,0.0,0.0,0.0,0.0,0.0,0.0,0.0,0.0,0.0,0.0,0.0,0.0,0.0,0.0,0.0,0.0,0.0,0.0,0.0,0.0,0.0,0.0,0.0,0.0,0.0,0.0,0.0,0.0,0.0,0.0,0.0,0.0,0.0,0.0,0.0,0.0,0.0,0.0,0.0,0.0,0.0,0.0,0.0,0.0,0.0,0.0,0.0,0.0,0.0,0.0,0.0,0.0,0.0,0.0,0.0,0.0,0.0,0.0,0.0,0.0,0.0,0.0,0.0,0.0,0.0,0.0,0.0,0.0,1.8762,1.8762,1.8762,1.8762,1.8776,1.8762,1.8762,1.8762,1.8762,1.8762,1.8762,1.8762,1.8762,1.8762,1.8762,1.8776,1.8796,1.8796,1.885,1.8697,1.8905,1.8966,1.8791,1.9054,1.9262,1.8912,1.9135,1.9115,1.9149,1.9189,1.9115,1.9067,1.9081,1.8858,1.8771,1.8872,1.8865,1.8764,1.8744,1.8744,1.8744,1.8751,1.8865,1.6282,0.6684,0.0,0.0,0.0,0.0,0.0,0.0,0.0,0.0,0.0,0.0,0.0,0.0,0.0,0.0,0.0,0.0,0.0,0.0,0.0,0.0,0.0,0.0,0.0,0.0,0.0,0.0,0.0,0.0,0.0,0.0,0.0,0.0,0.0,0.0,0.0,0.0,0.0,0.0,0.0,0.0,0.0,0.0,0.0,0.0,0.0,0.0,0.0,0.0,0.0,0.0,0.0,0.0,0.0,0.0,0.0,0.0,0.0,0.0,0.0,0.0,0.0,0.0,0.0,0.0,0.0,0.0,0.0,0.0,0.0,0.0,1.8762,1.8762,1.8762,1.8823,1.8884,1.8803,1.8762,1.8762,1.8762,1.8762,1.8762,1.8762,1.8762,1.8762,1.8782,1.8823,1.8891,1.8911,1.8751,1.8858,1.9054,1.9108,1.9169,1.9189,1.9413,1.9434,1.9447,1.9468,1.9441,1.9544,1.9264,1.921,1.9257,1.9502,1.942,1.9434,1.9406,1.9379,1.9128,1.8885,1.8885,1.9142,1.9196,1.8827,0.7197,0.0,0.0,0.0,0.0,0.0,0.0,0.0,0.0,0.0,0.0,0.0,0.0,0.0,0.0,0.0,0.0,0.0,0.0,0.0,0.0,0.0,0.0,0.0,0.0,0.0,0.0,0.0,0.0,0.0,0.0,0.0,0.0,0.0,0.0,0.0,0.0,0.0,0.0,0.0,0.0,0.0,0.0,0.0,0.0,0.0,0.0,0.0,0.0,0.0,0.0,0.0,0.0,0.0,0.0,0.0,0.0,0.0,0.0,0.0,0.0,0.0,0.0,0.0,0.0,0.0,0.0,0.0,0.0,0.0,0.0,1.8762,1.8769,1.8823,1.8891,1.8731,1.8877,1.8857,1.8891,1.8864,1.8864,1.8898,1.8871,1.8877,1.8905,1.8925,1.8898,1.8758,1.8811,1.9081,1.9196,1.9441,1.9516,1.9325,1.955,1.9585,1.9578,1.9605,1.9619,1.9647,1.9715,1.9701,1.9413,1.9653,1.9653,1.9619,1.9633,1.9592,1.9564,1.9284,1.9278,1.9284,1.9544,1.9585,1.7693,1.1862,0.0,0.0,0.0,0.0,0.0,0.0,0.0,0.0,0.0,0.0,0.0,0.0,0.0,0.0,0.0,0.0,0.0,0.0,0.0,0.0,0.0,0.0,0.0,0.0,0.0,0.0,0.0,0.0,0.0,0.0,0.0,0.0,0.0,0.0,0.0,0.0,0.0,0.0,0.0,0.0,0.0,0.0,0.0,0.0,0.0,0.0,0.0,0.0,0.0,0.0,0.0,0.0,0.0,0.0,0.0,0.0,0.0,0.0,0.0,0.0,0.0,0.0,0.0,0.0,0.0,0.0,0.0,0.0,0.0,0.0,1.8762,1.8782,1.8925,1.8986,1.8758,1.8791,1.8858,1.8932,1.8805,1.8811,1.8695,1.902,1.9027,1.9156,1.9183,1.9128,1.8838,1.9162,1.923,1.9502,1.9789,1.9681,1.975,1.9743,1.975,1.9832,1.9617,1.9563,1.9644,1.9617,1.9617,1.9596,1.9756,1.9777,1.9811,1.9818,1.977,1.9708,1.9681,1.944,1.9681,1.9688,1.9756,1.8594,1.6663,1.1255,0.0,0.0,0.0,0.0,0.0,0.0,0.0,0.0,0.0,0.0,0.0,0.0,0.0,0.0,0.0,0.0,0.0,0.0,0.0,0.0,0.0,0.0,0.0,0.0,0.0,0.0,0.0,0.0,0.0,0.0,0.0,0.0,0.0,0.0,0.0,0.0,0.0,0.0,0.0,0.0,0.0,0.0,0.0,0.0,0.0,0.0,0.0,0.0,0.0,0.0,0.0,0.0,0.0,0.0,0.0,0.0,0.0,0.0,0.0,0.0,0.0,0.0,0.0,0.0,0.0,0.0,0.0,0.0,0.0,1.8762,1.8776,1.8925,1.9047,1.9162,1.9373,1.9379,1.9441,1.9296,1.9067,1.8708,1.9054,1.9101,1.9447,1.9203,1.9244,1.9046,1.9113,1.92,1.9474,1.9722,1.9818,1.961,1.9617,1.963,1.9644,1.9664,1.9664,1.9657,1.9664,1.9664,1.9644,1.9603,1.963,1.9644,1.9664,1.9624,1.9596,1.9818,1.9818,1.9832,1.9832,1.9651,1.9678,1.9732,1.5505,1.3011,0.466,0.0,0.0,0.0,0.0,0.0,0.0,0.0,0.0,0.0,0.0,0.0,0.0,0.0,0.0,0.0,0.0,0.0,0.0,0.0,0.0,0.0,0.0,0.0,0.0,0.0,0.0,0.0,0.0,0.0,0.0,0.0,0.0,0.0,0.0,0.0,0.0,0.0,0.0,0.0,0.0,0.0,0.0,0.0,0.0,0.0,0.0,0.0,0.0,0.0,0.0,0.0,0.0,0.0,0.0,0.0,0.0,0.0,0.0,0.0,0.0,0.0,0.0,0.0,0.0,0.0,0.0,0.0,1.8796,1.8871,1.9013,1.9189,1.94,1.9583,1.9791,1.9619,1.9475,1.9244,1.886,1.8992,1.921,1.9544,1.9366,1.9373,1.9318,1.9213,1.9287,1.9267,1.9637,1.9651,1.9664,1.9664,1.9657,1.9664,1.9664,1.9664,1.9664,1.9664,1.9664,1.9664,1.9664,1.9664,1.9664,1.9664,1.9664,1.9657,1.9657,1.9664,1.9678,1.9705,1.9712,1.9691,1.9732,1.9752,1.9244,0.9842,0.8132,0.7634,0.7899,0.0,0.0,0.0,0.0,0.0,0.0,0.0,0.0,0.0,0.0,0.0,0.0,0.0,0.0,0.0,0.0,0.0,0.0,0.0,0.0,0.0,0.0,0.0,0.0,0.0,0.0,0.0,0.0,0.0,0.0,0.0,0.0,0.0,0.0,0.0,0.0,0.0,0.0,0.0,0.0,0.0,0.0,0.0,0.0,0.0,0.0,0.0,0.0,0.0,0.0,0.0,0.0,0.0,0.0,0.0,0.0,0.0,0.0,0.0,0.0,0.0,0.0,0.0,0.0,1.8864,1.9,1.9156,1.9379,1.9644,1.9657,1.9651,1.9651,1.9743,1.9515,1.9098,1.924,1.9413,1.9461,1.9542,1.9474,1.9454,1.9535,1.9327,1.922,1.9603,1.9664,1.9664,1.9664,1.9664,1.9664,1.9664,1.9664,1.9664,1.9664,1.9664,1.9664,1.9664,1.9664,1.9664,1.9664,1.9678,1.9719,1.9712,1.9712,1.9725,1.9766,1.9807,1.9732,1.9766,1.9813,1.9793,1.9323,1.9655,1.9635,1.7616,1.2137,0.0,0.0,0.0,0.0,0.0,0.0,0.0,0.0,0.0,0.0,0.0,0.0,0.0,0.0,0.0,0.0,0.0,0.0,0.0,0.0,0.0,0.0,0.0,0.0,0.0,0.0,0.0,0.0,0.0,0.0,0.0,0.0,0.0,0.0,0.0,0.0,0.0,0.0,0.0,0.0,0.0,0.0,0.0,0.0,0.0,0.0,0.0,0.0,0.0,0.0,0.0,0.0,0.0,0.0,0.0,0.0,0.0,0.0,0.0,0.0,0.0,0.0,0.0,1.8959,1.902,1.9026,1.9488,1.9651,1.9664,1.9664,1.9657,1.963,1.9624,1.9381,1.9515,1.9495,1.9576,1.9624,1.9576,1.9576,1.9576,1.9624,1.9603,1.9651,1.9664,1.9664,1.9664,1.9664,1.9664,1.9664,1.9664,1.9664,1.9664,1.9664,1.9664,1.9664,1.9664,1.9664,1.9664,1.9698,1.978,1.9793,1.982,1.9854,1.9759,1.9719,2.0004,2.0065,1.9807,1.9793,1.98,1.9875,2.0155,1.9861,1.2337,0.0,0.0,0.0,0.0,0.0,0.0,0.0,0.0,0.0,0.0,0.0,0.0,0.0,0.0,0.0,0.0,0.0,0.0,0.0,0.0,0.0,0.0,0.0,0.0,0.0,0.0,0.0,0.0,0.0,0.0,0.0,0.0,0.0,0.0,0.0,0.0,0.0,0.0,0.0,0.0,0.0,0.0,0.0,0.0,0.0,0.0,0.0,0.0,0.0,0.0,0.0,0.0,0.0,0.0,0.0,0.0,0.0,0.0,0.0,0.0,0.0,0.0,0.0,1.8966,1.9115,1.9406,1.9576,1.9657,1.9664,1.9664,1.9664,1.9664,1.9664,1.9657,1.9576,1.9549,1.9596,1.9624,1.961,1.9603,1.9637,1.9651,1.9664,1.9664,1.9664,1.9664,1.9664,1.9664,1.9664,1.9664,1.9664,1.9664,1.9664,1.9664,1.9664,1.9664,1.9664,1.9664,1.9671,1.9739,1.9861,1.9881,1.9949,2.0031,1.9997,1.9881,2.0155,1.9922,1.9642,1.9834,1.9847,2.0162,2.0134,1.978,1.8039,0.91,0.0,0.0,0.0,0.0,0.0,0.0,0.0,0.0,0.0,0.0,0.0,0.0,0.0,0.0,0.0,0.0,0.0,0.0,0.0,0.0,0.0,0.0,0.0,0.0,0.0,0.0,0.0,0.0,0.0,0.0,0.0,0.0,0.0,0.0,0.0,0.0,0.0,0.0,0.0,0.0,0.0,0.0,0.0,0.0,0.0,0.0,0.0,0.0,0.0,0.0,0.0,0.0,0.0,0.0,0.0,0.0,0.0,0.0,0.0,0.0,0.0,0.0,1.8966,1.9257,1.9535,1.9664,1.9664,1.9664,1.9664,1.9664,1.9664,1.9664,1.9664,1.9657,1.9576,1.9556,1.9583,1.9535,1.9542,1.9624,1.9657,1.9664,1.9664,1.9664,1.9664,1.9664,1.9664,1.9664,1.9664,1.9664,1.9664,1.9664,1.9664,1.9664,1.9664,1.9664,1.9664,1.9705,1.978,2.0162,2.0251,2.0374,2.0234,2.0322,2.0139,2.0092,1.9856,1.9823,1.999,1.9942,2.0003,1.9902,1.9752,1.8742,1.5021,0.8106,0.0,0.0,0.0,0.0,0.0,0.0,0.0,0.0,0.0,0.0,0.0,0.0,0.0,0.0,0.0,0.0,0.0,0.0,0.0,0.0,0.0,0.0,0.0,0.0,0.0,0.0,0.0,0.0,0.0,0.0,0.0,0.0,0.0,0.0,0.0,0.0,0.0,0.0,0.0,0.0,0.0,0.0,0.0,0.0,0.0,0.0,0.0,0.0,0.0,0.0,0.0,0.0,0.0,0.0,0.0,0.0,0.0,0.0,0.0,0.0,0.0,1.9122,1.94,1.959,1.9664,1.9664,1.9664,1.9664,1.9664,1.9664,1.9664,1.9664,1.9664,1.963,1.9617,1.9637,1.9624,1.961,1.9651,1.9657,1.9664,1.9664,1.9664,1.9664,1.9664,1.9664,1.9664,1.9664,1.9664,1.9664,1.9664,1.9664,1.9664,1.9664,1.9671,1.9678,1.9746,1.9861,2.0244,2.0402,2.0526,2.0336,2.0356,2.0498,2.0193,1.991,2.0187,2.0159,2.0024,2.0017,2.0196,1.9807,1.9739,1.7233,1.253,0.7368,0.0,0.0,0.0,0.0,0.0,0.0,0.0,0.0,0.0,0.0,0.0,0.0,0.0,0.0,0.0,0.0,0.0,0.0,0.0,0.0,0.0,0.0,0.0,0.0,0.0,0.0,0.0,0.0,0.0,0.0,0.0,0.0,0.0,0.0,0.0,0.0,0.0,0.0,0.0,0.0,0.0,0.0,0.0,0.0,0.0,0.0,0.0,0.0,0.0,0.0,0.0,0.0,0.0,0.0,0.0,0.0,0.0,0.0,0.0,0.0]}]]